Time,TemperatureF,DewpointF,PressureIn,WindDirection,WindDirectionDegrees,WindSpeedMPH,WindSpeedGustMPH,Humidity,HourlyPrecipIn,Conditions,Clouds,dailyrainin,SolarRadiationWatts/m^2,SoftwareType,DateUTC
2013-02-16 00:00:00,32.9,27.4,29.77,WSW,258,0.0,0.0,80,0.00,,,0.00,0.00,VWS V14.01,2013-02-16 05:00:00,
2013-02-16 00:01:00,32.9,27.4,29.77,WSW,257,0.0,0.0,80,0.00,,,0.00,0.00,VWS V14.01,2013-02-16 05:01:00,
2013-02-16 00:02:00,32.9,27.4,29.77,WSW,257,0.0,0.0,80,0.00,,,0.00,0.00,VWS V14.01,2013-02-16 05:02:00,
2013-02-16 00:03:00,32.9,27.1,29.77,West,267,0.0,0.0,79,0.00,,,0.00,0.00,VWS V14.01,2013-02-16 05:03:00,
2013-02-16 00:04:00,32.9,27.1,29.77,West,267,0.0,0.0,79,0.00,,,0.00,0.00,VWS V14.01,2013-02-16 05:04:00,
2013-02-16 00:05:00,32.9,27.4,29.77,West,267,0.0,0.0,80,0.00,,,0.00,0.00,VWS V14.01,2013-02-16 05:05:00,
2013-02-16 00:06:00,32.9,27.1,29.77,WNW,284,0.0,0.0,79,0.00,,,0.00,0.00,VWS V14.01,2013-02-16 05:06:00,
2013-02-16 00:07:00,32.9,27.1,29.77,West,274,0.0,0.0,79,0.00,,,0.00,0.00,VWS V14.01,2013-02-16 05:07:00,
2013-02-16 00:08:00,32.9,26.8,29.77,WSW,251,0.0,0.0,78,0.00,,,0.00,0.00,VWS V14.01,2013-02-16 05:08:00,
2013-02-16 00:09:00,32.9,26.8,29.77,West,268,0.0,0.0,78,0.00,,,0.00,0.00,VWS V14.01,2013-02-16 05:09:00,
2013-02-16 00:10:00,32.9,27.1,29.77,WSW,248,0.0,0.0,79,0.00,,,0.00,0.00,VWS V14.01,2013-02-16 05:10:00,
2013-02-16 00:11:00,32.9,26.8,29.77,West,268,0.0,0.0,78,0.00,,,0.00,0.00,VWS V14.01,2013-02-16 05:11:00,
2013-02-16 00:12:00,32.9,26.8,29.77,West,268,0.0,0.0,78,0.00,,,0.00,0.00,VWS V14.01,2013-02-16 05:12:00,
2013-02-16 00:13:00,32.9,26.8,29.77,West,277,0.0,0.0,78,0.00,,,0.00,0.00,VWS V14.01,2013-02-16 05:13:00,
2013-02-16 00:14:00,32.8,26.7,29.77,West,278,0.0,0.0,78,0.00,,,0.00,0.00,VWS V14.01,2013-02-16 05:14:00,
2013-02-16 00:15:00,32.8,26.7,29.76,WNW,282,0.0,0.0,78,0.00,,,0.00,0.00,VWS V14.01,2013-02-16 05:15:00,
2013-02-16 00:16:00,32.9,26.8,29.77,West,268,0.0,0.0,78,0.00,,,0.00,0.00,VWS V14.01,2013-02-16 05:16:00,
2013-02-16 00:17:00,32.8,26.4,29.76,WSW,257,0.0,0.0,77,0.00,,,0.00,0.00,VWS V14.01,2013-02-16 05:17:00,
2013-02-16 00:18:00,32.8,26.7,29.76,West,272,0.0,0.0,78,0.00,,,0.00,0.00,VWS V14.01,2013-02-16 05:18:00,
2013-02-16 00:19:00,32.8,26.4,29.76,West,264,0.0,0.0,77,0.00,,,0.00,0.00,VWS V14.01,2013-02-16 05:19:00,
2013-02-16 00:20:00,32.8,26.4,29.76,West,275,0.0,0.0,77,0.00,,,0.00,0.00,VWS V14.01,2013-02-16 05:20:00,
2013-02-16 00:21:00,32.8,26.4,29.76,West,263,0.0,0.0,77,0.00,,,0.00,0.00,VWS V14.01,2013-02-16 05:21:00,
2013-02-16 00:22:00,32.8,26.4,29.76,WSW,257,0.0,0.0,77,0.00,,,0.00,0.00,VWS V14.01,2013-02-16 05:22:00,
2013-02-16 00:23:00,32.8,26.7,29.76,West,272,0.0,0.0,78,0.00,,,0.00,0.00,VWS V14.01,2013-02-16 05:23:00,
2013-02-16 00:24:00,32.7,26.0,29.76,West,280,0.0,0.0,76,0.00,,,0.00,0.00,VWS V14.01,2013-02-16 05:24:00,
2013-02-16 00:25:00,32.7,26.0,29.76,West,270,0.0,0.0,76,0.00,,,0.00,0.00,VWS V14.01,2013-02-16 05:25:00,
2013-02-16 00:26:00,32.7,26.0,29.76,NW,309,0.0,0.0,76,0.00,,,0.00,0.00,VWS V14.01,2013-02-16 05:26:00,
2013-02-16 00:27:00,32.7,26.0,29.76,West,263,0.0,0.0,76,0.00,,,0.00,0.00,VWS V14.01,2013-02-16 05:27:00,
2013-02-16 00:28:00,32.8,26.4,29.76,WNW,291,0.0,0.0,77,0.00,,,0.00,0.00,VWS V14.01,2013-02-16 05:28:00,
2013-02-16 00:29:00,32.7,26.0,29.76,West,264,0.0,0.0,76,0.00,,,0.00,0.00,VWS V14.01,2013-02-16 05:29:00,
2013-02-16 00:30:00,32.7,26.0,29.75,West,264,0.0,0.0,76,0.00,,,0.00,0.00,VWS V14.01,2013-02-16 05:30:00,
2013-02-16 00:31:00,32.7,26.0,29.75,South,171,0.0,0.0,76,0.00,,,0.00,0.00,VWS V14.01,2013-02-16 05:31:00,
2013-02-16 00:32:00,32.7,26.0,29.75,WSW,241,0.0,0.0,76,0.00,,,0.00,0.00,VWS V14.01,2013-02-16 05:32:00,
2013-02-16 00:33:00,32.7,26.0,29.75,WSW,241,0.0,0.0,76,0.00,,,0.00,0.00,VWS V14.01,2013-02-16 05:33:00,
2013-02-16 00:34:00,32.7,26.0,29.76,West,264,0.0,0.0,76,0.00,,,0.00,0.00,VWS V14.01,2013-02-16 05:34:00,
2013-02-16 00:35:00,32.7,26.0,29.75,WSW,237,0.0,0.0,76,0.00,,,0.00,0.00,VWS V14.01,2013-02-16 05:35:00,
2013-02-16 00:36:00,32.7,26.0,29.75,West,272,0.0,0.0,76,0.00,,,0.00,0.00,VWS V14.01,2013-02-16 05:36:00,
2013-02-16 00:37:00,32.7,26.3,29.75,West,272,0.0,0.0,77,0.00,,,0.00,0.00,VWS V14.01,2013-02-16 05:37:00,
2013-02-16 00:38:00,32.7,26.3,29.75,WSW,253,0.0,0.0,77,0.00,,,0.00,0.00,VWS V14.01,2013-02-16 05:38:00,
2013-02-16 00:39:00,32.7,26.0,29.75,WSW,237,0.0,0.0,76,0.00,,,0.00,0.00,VWS V14.01,2013-02-16 05:39:00,
2013-02-16 00:40:00,32.7,26.3,29.75,WSW,253,0.0,0.0,77,0.00,,,0.00,0.00,VWS V14.01,2013-02-16 05:40:00,
2013-02-16 00:41:00,32.7,26.3,29.75,WSW,253,0.0,0.0,77,0.00,,,0.00,0.00,VWS V14.01,2013-02-16 05:41:00,
2013-02-16 00:42:00,32.7,26.3,29.75,WSW,258,0.0,0.0,77,0.00,,,0.00,0.00,VWS V14.01,2013-02-16 05:42:00,
2013-02-16 00:43:00,32.7,26.3,29.75,WSW,257,0.0,0.0,77,0.00,,,0.00,0.00,VWS V14.01,2013-02-16 05:43:00,
2013-02-16 00:44:00,32.7,26.3,29.75,WSW,257,0.0,0.0,77,0.00,,,0.00,0.00,VWS V14.01,2013-02-16 05:44:00,
2013-02-16 00:45:00,32.7,26.3,29.75,WSW,253,0.0,0.0,77,0.00,,,0.00,0.00,VWS V14.01,2013-02-16 05:45:00,
2013-02-16 00:46:00,32.5,26.1,29.75,NNW,339,0.0,0.0,77,0.00,,,0.00,0.00,VWS V14.01,2013-02-16 05:46:00,
2013-02-16 00:47:00,32.5,26.1,29.75,NNW,339,0.0,0.0,77,0.00,,,0.00,0.00,VWS V14.01,2013-02-16 05:47:00,
2013-02-16 00:48:00,32.5,26.1,29.75,NW,315,0.0,0.0,77,0.00,,,0.00,0.00,VWS V14.01,2013-02-16 05:48:00,
2013-02-16 00:49:00,32.5,26.1,29.75,WSW,257,0.0,0.0,77,0.00,,,0.00,0.00,VWS V14.01,2013-02-16 05:49:00,
2013-02-16 00:50:00,32.7,26.3,29.75,WSW,258,0.0,0.0,77,0.00,,,0.00,0.00,VWS V14.01,2013-02-16 05:50:00,
2013-02-16 00:51:00,32.5,26.1,29.75,WSW,257,0.0,0.0,77,0.00,,,0.00,0.00,VWS V14.01,2013-02-16 05:51:00,
2013-02-16 00:52:00,32.5,26.1,29.75,WSW,257,0.0,0.0,77,0.00,,,0.00,0.00,VWS V14.01,2013-02-16 05:52:00,
2013-02-16 00:53:00,32.5,26.1,29.75,WSW,257,0.0,0.0,77,0.00,,,0.00,0.00,VWS V14.01,2013-02-16 05:53:00,
2013-02-16 00:54:00,32.5,26.1,29.75,WNW,285,0.0,0.0,77,0.00,,,0.00,0.00,VWS V14.01,2013-02-16 05:54:00,
2013-02-16 00:55:00,32.5,26.1,29.75,WSW,257,0.0,0.0,77,0.00,,,0.00,0.00,VWS V14.01,2013-02-16 05:55:00,
2013-02-16 00:56:00,32.4,26.0,29.75,WNW,284,0.0,0.0,77,0.00,,,0.00,0.00,VWS V14.01,2013-02-16 05:56:00,
2013-02-16 00:57:00,32.4,26.0,29.75,SW,215,0.0,0.0,77,0.00,,,0.00,0.00,VWS V14.01,2013-02-16 05:57:00,
2013-02-16 00:58:00,32.4,26.0,29.75,SW,216,0.0,0.0,77,0.00,,,0.00,0.00,VWS V14.01,2013-02-16 05:58:00,
2013-02-16 00:59:00,32.4,26.0,29.75,SW,216,0.0,0.0,77,0.00,,,0.00,0.00,VWS V14.01,2013-02-16 05:59:00,
2013-02-16 01:00:00,32.4,26.0,29.75,WNW,285,0.0,0.0,77,0.00,,,0.00,0.00,VWS V14.01,2013-02-16 06:00:00,
2013-02-16 01:01:00,32.4,26.0,29.75,SW,215,0.0,0.0,77,0.00,,,0.00,0.00,VWS V14.01,2013-02-16 06:01:00,
2013-02-16 01:02:00,32.4,26.0,29.75,WSW,246,0.0,0.0,77,0.00,,,0.00,0.00,VWS V14.01,2013-02-16 06:02:00,
2013-02-16 01:03:00,32.4,26.0,29.75,West,268,0.0,0.0,77,0.00,,,0.00,0.00,VWS V14.01,2013-02-16 06:03:00,
2013-02-16 01:04:00,32.4,26.0,29.75,West,270,0.0,0.0,77,0.00,,,0.00,0.00,VWS V14.01,2013-02-16 06:04:00,
2013-02-16 01:05:00,32.4,26.0,29.75,SW,215,0.0,0.0,77,0.00,,,0.00,0.00,VWS V14.01,2013-02-16 06:05:00,
2013-02-16 01:06:00,32.2,25.8,29.75,West,270,0.0,0.0,77,0.00,,,0.00,0.00,VWS V14.01,2013-02-16 06:06:00,
2013-02-16 01:07:00,32.2,25.5,29.75,West,270,0.0,0.0,76,0.00,,,0.00,0.00,VWS V14.01,2013-02-16 06:07:00,
2013-02-16 01:08:00,32.2,25.5,29.75,West,270,0.0,0.0,76,0.00,,,0.00,0.00,VWS V14.01,2013-02-16 06:08:00,
2013-02-16 01:09:00,32.2,25.5,29.75,SSW,202,0.0,0.0,76,0.00,,,0.00,0.00,VWS V14.01,2013-02-16 06:09:00,
2013-02-16 01:10:00,32.4,26.0,29.75,WSW,253,0.0,0.0,77,0.00,,,0.00,0.00,VWS V14.01,2013-02-16 06:10:00,
2013-02-16 01:11:00,32.2,25.5,29.75,West,267,0.0,0.0,76,0.00,,,0.00,0.00,VWS V14.01,2013-02-16 06:11:00,
2013-02-16 01:12:00,32.2,25.2,29.75,West,280,0.0,0.0,75,0.00,,,0.00,0.00,VWS V14.01,2013-02-16 06:12:00,
2013-02-16 01:13:00,32.2,25.2,29.75,WSW,257,0.0,0.0,75,0.00,,,0.00,0.00,VWS V14.01,2013-02-16 06:13:00,
2013-02-16 01:14:00,32.2,25.2,29.75,WSW,258,0.0,0.0,75,0.00,,,0.00,0.00,VWS V14.01,2013-02-16 06:14:00,
2013-02-16 01:15:00,32.2,25.2,29.74,WSW,258,0.0,0.0,75,0.00,,,0.00,0.00,VWS V14.01,2013-02-16 06:15:00,
2013-02-16 01:16:00,32.2,25.5,29.75,West,267,0.0,0.0,76,0.00,,,0.00,0.00,VWS V14.01,2013-02-16 06:16:00,
2013-02-16 01:17:00,32.2,25.2,29.74,WSW,258,0.0,0.0,75,0.00,,,0.00,0.00,VWS V14.01,2013-02-16 06:17:00,
2013-02-16 01:18:00,32.2,25.2,29.74,West,260,0.0,0.0,75,0.00,,,0.00,0.00,VWS V14.01,2013-02-16 06:18:00,
2013-02-16 01:19:00,32.2,25.2,29.74,WSW,258,0.0,0.0,75,0.00,,,0.00,0.00,VWS V14.01,2013-02-16 06:19:00,
2013-02-16 01:20:00,32.2,25.2,29.74,WSW,258,0.0,0.0,75,0.00,,,0.00,0.00,VWS V14.01,2013-02-16 06:20:00,
2013-02-16 01:21:00,32.2,25.2,29.74,WSW,258,0.0,0.0,75,0.00,,,0.00,0.00,VWS V14.01,2013-02-16 06:21:00,
2013-02-16 01:22:00,32.2,25.2,29.74,WSW,258,0.0,0.0,75,0.00,,,0.00,0.00,VWS V14.01,2013-02-16 06:22:00,
2013-02-16 01:23:00,32.2,25.2,29.74,WSW,258,0.0,0.0,75,0.00,,,0.00,0.00,VWS V14.01,2013-02-16 06:23:00,
2013-02-16 01:24:00,32.2,25.2,29.74,WSW,258,0.0,0.0,75,0.00,,,0.00,0.00,VWS V14.01,2013-02-16 06:24:00,
2013-02-16 01:25:00,32.2,25.2,29.74,WSW,258,0.0,0.0,75,0.00,,,0.00,0.00,VWS V14.01,2013-02-16 06:25:00,
2013-02-16 01:26:00,32.2,25.2,29.74,WSW,258,0.0,0.0,75,0.00,,,0.00,0.00,VWS V14.01,2013-02-16 06:26:00,
2013-02-16 01:27:00,32.1,25.1,29.74,WSW,258,0.0,0.0,75,0.00,,,0.00,0.00,VWS V14.01,2013-02-16 06:27:00,
2013-02-16 01:28:00,32.1,25.1,29.74,WSW,258,0.0,0.0,75,0.00,,,0.00,0.00,VWS V14.01,2013-02-16 06:28:00,
2013-02-16 01:29:00,32.1,25.1,29.74,WSW,258,0.0,0.0,75,0.00,,,0.00,0.00,VWS V14.01,2013-02-16 06:29:00,
2013-02-16 01:30:00,32.1,25.1,29.74,SSW,210,0.0,0.0,75,0.00,,,0.00,0.00,VWS V14.01,2013-02-16 06:30:00,
2013-02-16 01:31:00,32.1,25.1,29.74,SSW,192,0.0,0.0,75,0.00,,,0.00,0.00,VWS V14.01,2013-02-16 06:31:00,
2013-02-16 01:32:00,32.1,25.1,29.74,WSW,258,0.0,0.0,75,0.00,,,0.00,0.00,VWS V14.01,2013-02-16 06:32:00,
2013-02-16 01:33:00,32.1,25.1,29.74,West,267,0.0,0.0,75,0.00,,,0.00,0.00,VWS V14.01,2013-02-16 06:33:00,
2013-02-16 01:34:00,32.1,25.1,29.74,West,267,0.0,0.0,75,0.00,,,0.00,0.00,VWS V14.01,2013-02-16 06:34:00,
2013-02-16 01:35:00,32.1,25.1,29.74,West,267,0.0,0.0,75,0.00,,,0.00,0.00,VWS V14.01,2013-02-16 06:35:00,
2013-02-16 01:36:00,32.1,25.1,29.74,West,267,0.0,0.0,75,0.00,,,0.00,0.00,VWS V14.01,2013-02-16 06:36:00,
2013-02-16 01:37:00,32.1,25.1,29.74,West,261,0.0,0.0,75,0.00,,,0.00,0.00,VWS V14.01,2013-02-16 06:37:00,
2013-02-16 01:38:00,32.1,25.1,29.74,West,271,0.0,0.0,75,0.00,,,0.00,0.00,VWS V14.01,2013-02-16 06:38:00,
2013-02-16 01:39:00,32.1,25.1,29.74,West,268,0.0,0.0,75,0.00,,,0.00,0.00,VWS V14.01,2013-02-16 06:39:00,
2013-02-16 01:40:00,32.1,25.1,29.74,SSW,206,0.0,0.0,75,0.00,,,0.00,0.00,VWS V14.01,2013-02-16 06:40:00,
2013-02-16 01:41:00,31.9,24.9,29.74,SW,232,0.0,0.0,75,0.00,,,0.00,0.00,VWS V14.01,2013-02-16 06:41:00,
2013-02-16 01:42:00,31.9,24.9,29.74,South,171,0.0,0.0,75,0.00,,,0.00,0.00,VWS V14.01,2013-02-16 06:42:00,
2013-02-16 01:43:00,32.1,25.1,29.74,West,271,0.0,0.0,75,0.00,,,0.00,0.00,VWS V14.01,2013-02-16 06:43:00,
2013-02-16 01:44:00,31.9,24.9,29.74,WSW,250,0.0,0.0,75,0.00,,,0.00,0.00,VWS V14.01,2013-02-16 06:44:00,
2013-02-16 01:45:00,31.9,24.9,29.74,SW,234,0.0,0.0,75,0.00,,,0.00,0.00,VWS V14.01,2013-02-16 06:45:00,
2013-02-16 01:46:00,31.9,24.6,29.74,WSW,254,0.0,0.0,74,0.00,,,0.00,0.00,VWS V14.01,2013-02-16 06:46:00,
2013-02-16 01:47:00,31.9,24.6,29.74,WSW,254,0.0,0.0,74,0.00,,,0.00,0.00,VWS V14.01,2013-02-16 06:47:00,
2013-02-16 01:48:00,31.9,24.9,29.74,NW,304,0.0,0.0,75,0.00,,,0.00,0.00,VWS V14.01,2013-02-16 06:48:00,
2013-02-16 01:49:00,31.8,24.5,29.74,SSW,213,0.0,0.0,74,0.00,,,0.00,0.00,VWS V14.01,2013-02-16 06:49:00,
2013-02-16 01:50:00,31.8,24.5,29.74,WSW,243,0.0,0.0,74,0.00,,,0.00,0.00,VWS V14.01,2013-02-16 06:50:00,
2013-02-16 01:51:00,31.8,24.5,29.74,SW,216,0.0,0.0,74,0.00,,,0.00,0.00,VWS V14.01,2013-02-16 06:51:00,
2013-02-16 01:52:00,31.8,24.5,29.74,West,260,0.0,0.0,74,0.00,,,0.00,0.00,VWS V14.01,2013-02-16 06:52:00,
2013-02-16 01:53:00,31.9,24.6,29.74,SW,227,0.0,0.0,74,0.00,,,0.00,0.00,VWS V14.01,2013-02-16 06:53:00,
2013-02-16 01:54:00,31.8,24.5,29.74,West,260,0.0,0.0,74,0.00,,,0.00,0.00,VWS V14.01,2013-02-16 06:54:00,
2013-02-16 01:55:00,31.8,24.5,29.74,WSW,251,0.0,0.0,74,0.00,,,0.00,0.00,VWS V14.01,2013-02-16 06:55:00,
2013-02-16 01:56:00,31.8,24.5,29.74,WSW,257,0.0,0.0,74,0.00,,,0.00,0.00,VWS V14.01,2013-02-16 06:56:00,
2013-02-16 01:57:00,31.8,24.5,29.74,SSW,198,0.0,0.0,74,0.00,,,0.00,0.00,VWS V14.01,2013-02-16 06:57:00,
2013-02-16 01:58:00,31.8,24.5,29.74,WSW,247,0.0,0.0,74,0.00,,,0.00,0.00,VWS V14.01,2013-02-16 06:58:00,
2013-02-16 01:59:00,31.8,24.5,29.74,West,260,0.0,0.0,74,0.00,,,0.00,0.00,VWS V14.01,2013-02-16 06:59:00,
2013-02-16 02:00:00,31.6,24.3,29.73,SSW,209,0.0,0.0,74,0.00,,,0.00,0.00,VWS V14.01,2013-02-16 07:00:00,
2013-02-16 02:01:00,31.6,24.3,29.73,SSW,202,0.0,0.0,74,0.00,,,0.00,0.00,VWS V14.01,2013-02-16 07:01:00,
2013-02-16 02:02:00,31.6,24.3,29.73,South,175,0.0,0.0,74,0.00,,,0.00,0.00,VWS V14.01,2013-02-16 07:02:00,
2013-02-16 02:03:00,31.6,24.3,29.73,SSE,167,0.0,0.0,74,0.00,,,0.00,0.00,VWS V14.01,2013-02-16 07:03:00,
2013-02-16 02:04:00,31.6,24.6,29.73,South,169,0.0,0.0,75,0.00,,,0.00,0.00,VWS V14.01,2013-02-16 07:04:00,
2013-02-16 02:05:00,31.6,24.3,29.73,SSW,209,0.0,0.0,74,0.00,,,0.00,0.00,VWS V14.01,2013-02-16 07:05:00,
2013-02-16 02:06:00,31.6,24.6,29.73,SSW,199,0.0,0.0,75,0.00,,,0.00,0.00,VWS V14.01,2013-02-16 07:06:00,
2013-02-16 02:07:00,31.6,24.6,29.73,SSW,199,0.0,0.0,75,0.00,,,0.00,0.00,VWS V14.01,2013-02-16 07:07:00,
2013-02-16 02:08:00,31.6,24.6,29.73,SSW,199,0.0,0.0,75,0.00,,,0.00,0.00,VWS V14.01,2013-02-16 07:08:00,
2013-02-16 02:09:00,31.6,24.6,29.73,SSW,199,0.0,0.0,75,0.00,,,0.00,0.00,VWS V14.01,2013-02-16 07:09:00,
2013-02-16 02:10:00,31.6,24.6,29.73,SSW,199,0.0,0.0,75,0.00,,,0.00,0.00,VWS V14.01,2013-02-16 07:10:00,
2013-02-16 02:11:00,31.6,24.9,29.73,SW,229,0.0,0.0,76,0.00,,,0.00,0.00,VWS V14.01,2013-02-16 07:11:00,
2013-02-16 02:12:00,31.6,24.9,29.73,SSW,200,0.0,0.0,76,0.00,,,0.00,0.00,VWS V14.01,2013-02-16 07:12:00,
2013-02-16 02:13:00,31.5,24.8,29.73,SSW,198,0.0,0.0,76,0.00,,,0.00,0.00,VWS V14.01,2013-02-16 07:13:00,
2013-02-16 02:14:00,31.5,24.8,29.73,WSW,241,0.0,0.0,76,0.00,,,0.00,0.00,VWS V14.01,2013-02-16 07:14:00,
2013-02-16 02:15:00,31.6,24.9,29.73,SSW,199,0.0,0.0,76,0.00,,,0.00,0.00,VWS V14.01,2013-02-16 07:15:00,
2013-02-16 02:16:00,31.5,24.8,29.73,West,272,0.0,0.0,76,0.00,,,0.00,0.00,VWS V14.01,2013-02-16 07:16:00,
2013-02-16 02:17:00,31.5,24.8,29.73,SSW,192,0.0,0.0,76,0.00,,,0.00,0.00,VWS V14.01,2013-02-16 07:17:00,
2013-02-16 02:18:00,31.5,24.8,29.73,SE,140,0.0,0.0,76,0.00,,,0.00,0.00,VWS V14.01,2013-02-16 07:18:00,
2013-02-16 02:19:00,31.5,24.8,29.73,SSW,205,0.0,0.0,76,0.00,,,0.00,0.00,VWS V14.01,2013-02-16 07:19:00,
2013-02-16 02:20:00,31.5,25.1,29.73,SW,236,0.0,0.0,77,0.00,,,0.00,0.00,VWS V14.01,2013-02-16 07:20:00,
2013-02-16 02:21:00,31.5,24.8,29.73,West,272,0.0,0.0,76,0.00,,,0.00,0.00,VWS V14.01,2013-02-16 07:21:00,
2013-02-16 02:22:00,31.5,24.8,29.73,South,174,0.0,0.0,76,0.00,,,0.00,0.00,VWS V14.01,2013-02-16 07:22:00,
2013-02-16 02:23:00,31.3,24.6,29.73,SSW,205,0.0,0.0,76,0.00,,,0.00,0.00,VWS V14.01,2013-02-16 07:23:00,
2013-02-16 02:24:00,31.3,24.6,29.73,SW,223,0.0,0.0,76,0.00,,,0.00,0.00,VWS V14.01,2013-02-16 07:24:00,
2013-02-16 02:25:00,31.3,24.6,29.73,SW,226,0.0,0.0,76,0.00,,,0.00,0.00,VWS V14.01,2013-02-16 07:25:00,
2013-02-16 02:26:00,31.3,24.6,29.73,South,189,0.0,0.0,76,0.00,,,0.00,0.00,VWS V14.01,2013-02-16 07:26:00,
2013-02-16 02:27:00,31.5,24.8,29.73,South,174,0.0,0.0,76,0.00,,,0.00,0.00,VWS V14.01,2013-02-16 07:27:00,
2013-02-16 02:28:00,31.3,24.6,29.73,South,189,0.0,0.0,76,0.00,,,0.00,0.00,VWS V14.01,2013-02-16 07:28:00,
2013-02-16 02:29:00,31.3,24.6,29.73,South,189,0.0,0.0,76,0.00,,,0.00,0.00,VWS V14.01,2013-02-16 07:29:00,
2013-02-16 02:30:00,31.3,24.6,29.73,South,189,0.0,0.0,76,0.00,,,0.00,0.00,VWS V14.01,2013-02-16 07:30:00,
2013-02-16 02:31:00,31.3,24.6,29.73,South,189,0.0,0.0,76,0.00,,,0.00,0.00,VWS V14.01,2013-02-16 07:31:00,
2013-02-16 02:32:00,31.3,24.6,29.73,South,189,0.0,0.0,76,0.00,,,0.00,0.00,VWS V14.01,2013-02-16 07:32:00,
2013-02-16 02:33:00,31.3,24.6,29.73,South,189,0.0,0.0,76,0.00,,,0.00,0.00,VWS V14.01,2013-02-16 07:33:00,
2013-02-16 02:34:00,31.3,24.6,29.73,West,278,0.0,0.0,76,0.00,,,0.00,0.00,VWS V14.01,2013-02-16 07:34:00,
2013-02-16 02:35:00,31.3,24.6,29.73,West,270,0.0,0.0,76,0.00,,,0.00,0.00,VWS V14.01,2013-02-16 07:35:00,
2013-02-16 02:36:00,31.3,24.6,29.73,WNW,285,0.0,0.0,76,0.00,,,0.00,0.00,VWS V14.01,2013-02-16 07:36:00,
2013-02-16 02:37:00,31.3,24.6,29.73,WNW,285,0.0,0.0,76,0.00,,,0.00,0.00,VWS V14.01,2013-02-16 07:37:00,
2013-02-16 02:38:00,31.3,24.6,29.73,WSW,248,0.0,0.0,76,0.00,,,0.00,0.00,VWS V14.01,2013-02-16 07:38:00,
2013-02-16 02:39:00,31.3,24.6,29.73,WSW,239,0.0,0.0,76,0.00,,,0.00,0.00,VWS V14.01,2013-02-16 07:39:00,
2013-02-16 02:40:00,31.2,24.5,29.73,SSW,203,0.0,0.0,76,0.00,,,0.00,0.00,VWS V14.01,2013-02-16 07:40:00,
2013-02-16 02:41:00,31.2,24.5,29.73,SE,133,0.0,0.0,76,0.00,,,0.00,0.00,VWS V14.01,2013-02-16 07:41:00,
2013-02-16 02:42:00,31.2,24.5,29.73,SE,133,0.0,0.0,76,0.00,,,0.00,0.00,VWS V14.01,2013-02-16 07:42:00,
2013-02-16 02:43:00,31.3,24.6,29.73,WNW,285,0.0,0.0,76,0.00,,,0.00,0.00,VWS V14.01,2013-02-16 07:43:00,
2013-02-16 02:44:00,31.2,24.2,29.73,WSW,248,0.0,0.0,75,0.00,,,0.00,0.00,VWS V14.01,2013-02-16 07:44:00,
2013-02-16 02:45:00,31.2,24.2,29.72,SSW,195,0.0,0.0,75,0.00,,,0.00,0.00,VWS V14.01,2013-02-16 07:45:00,
2013-02-16 02:46:00,31.2,24.2,29.72,SSW,206,0.0,0.0,75,0.00,,,0.00,0.00,VWS V14.01,2013-02-16 07:46:00,
2013-02-16 02:47:00,31.2,24.2,29.72,WSW,244,0.0,0.0,75,0.00,,,0.00,0.00,VWS V14.01,2013-02-16 07:47:00,
2013-02-16 02:48:00,31.2,24.2,29.72,SSE,160,0.0,0.0,75,0.00,,,0.00,0.00,VWS V14.01,2013-02-16 07:48:00,
2013-02-16 02:49:00,31.2,24.2,29.73,WSW,248,0.0,0.0,75,0.00,,,0.00,0.00,VWS V14.01,2013-02-16 07:49:00,
2013-02-16 02:50:00,31.2,24.2,29.72,SW,215,0.0,0.0,75,0.00,,,0.00,0.00,VWS V14.01,2013-02-16 07:50:00,
2013-02-16 02:51:00,31.2,24.2,29.72,WSW,240,0.0,0.0,75,0.00,,,0.00,0.00,VWS V14.01,2013-02-16 07:51:00,
2013-02-16 02:52:00,31.2,24.2,29.72,WSW,240,0.0,0.0,75,0.00,,,0.00,0.00,VWS V14.01,2013-02-16 07:52:00,
2013-02-16 02:53:00,31.2,24.2,29.72,WSW,240,0.0,0.0,75,0.00,,,0.00,0.00,VWS V14.01,2013-02-16 07:53:00,
2013-02-16 02:54:00,31.2,24.2,29.72,WSW,250,0.0,0.0,75,0.00,,,0.00,0.00,VWS V14.01,2013-02-16 07:54:00,
2013-02-16 02:55:00,31.2,24.2,29.72,SW,215,0.0,0.0,75,0.00,,,0.00,0.00,VWS V14.01,2013-02-16 07:55:00,
2013-02-16 02:56:00,31.2,24.2,29.72,SW,216,0.0,0.0,75,0.00,,,0.00,0.00,VWS V14.01,2013-02-16 07:56:00,
2013-02-16 02:57:00,31.2,23.9,29.72,SW,233,0.0,0.0,74,0.00,,,0.00,0.00,VWS V14.01,2013-02-16 07:57:00,
2013-02-16 02:58:00,31.2,23.9,29.72,West,268,0.0,0.0,74,0.00,,,0.00,0.00,VWS V14.01,2013-02-16 07:58:00,
2013-02-16 02:59:00,31.2,23.9,29.72,West,268,0.0,0.0,74,0.00,,,0.00,0.00,VWS V14.01,2013-02-16 07:59:00,
2013-02-16 03:00:00,31.2,24.2,29.72,WSW,247,0.0,0.0,75,0.00,,,0.00,0.00,VWS V14.01,2013-02-16 08:00:00,
2013-02-16 03:01:00,31.2,23.9,29.72,West,268,0.0,0.0,74,0.00,,,0.00,0.00,VWS V14.01,2013-02-16 08:01:00,
2013-02-16 03:02:00,31.2,24.2,29.72,West,268,0.0,0.0,75,0.00,,,0.00,0.00,VWS V14.01,2013-02-16 08:02:00,
2013-02-16 03:03:00,31.2,24.2,29.72,West,268,0.0,0.0,75,0.00,,,0.00,0.00,VWS V14.01,2013-02-16 08:03:00,
2013-02-16 03:04:00,31.2,24.2,29.72,West,268,0.0,0.0,75,0.00,,,0.00,0.00,VWS V14.01,2013-02-16 08:04:00,
2013-02-16 03:05:00,31.2,23.9,29.72,West,268,0.0,0.0,74,0.00,,,0.00,0.00,VWS V14.01,2013-02-16 08:05:00,
2013-02-16 03:06:00,31.2,24.2,29.72,West,265,0.0,0.0,75,0.00,,,0.00,0.00,VWS V14.01,2013-02-16 08:06:00,
2013-02-16 03:07:00,31.2,23.9,29.72,West,267,0.0,0.0,74,0.00,,,0.00,0.00,VWS V14.01,2013-02-16 08:07:00,
2013-02-16 03:08:00,31.2,23.9,29.72,West,267,0.0,0.0,74,0.00,,,0.00,0.00,VWS V14.01,2013-02-16 08:08:00,
2013-02-16 03:09:00,31.2,23.9,29.72,West,267,0.0,0.0,74,0.00,,,0.00,0.00,VWS V14.01,2013-02-16 08:09:00,
2013-02-16 03:10:00,31.2,23.9,29.72,West,265,0.0,0.0,74,0.00,,,0.00,0.00,VWS V14.01,2013-02-16 08:10:00,
2013-02-16 03:11:00,31.2,24.2,29.72,West,265,0.0,0.0,75,0.00,,,0.00,0.00,VWS V14.01,2013-02-16 08:11:00,
2013-02-16 03:12:00,31.2,24.2,29.72,SW,222,0.0,0.0,75,0.00,,,0.00,0.00,VWS V14.01,2013-02-16 08:12:00,
2013-02-16 03:13:00,31.2,24.2,29.72,SW,222,0.0,0.0,75,0.00,,,0.00,0.00,VWS V14.01,2013-02-16 08:13:00,
2013-02-16 03:14:00,31.2,24.2,29.72,SW,222,0.0,0.0,75,0.00,,,0.00,0.00,VWS V14.01,2013-02-16 08:14:00,
2013-02-16 03:15:00,31.2,24.2,29.72,West,280,0.0,0.0,75,0.00,,,0.00,0.00,VWS V14.01,2013-02-16 08:15:00,
2013-02-16 03:16:00,31.2,23.9,29.72,SW,222,0.0,0.0,74,0.00,,,0.00,0.00,VWS V14.01,2013-02-16 08:16:00,
2013-02-16 03:17:00,31.2,24.2,29.72,West,280,0.0,0.0,75,0.00,,,0.00,0.00,VWS V14.01,2013-02-16 08:17:00,
2013-02-16 03:18:00,31.2,24.2,29.72,West,280,0.0,0.0,75,0.00,,,0.00,0.00,VWS V14.01,2013-02-16 08:18:00,
2013-02-16 03:19:00,31.2,24.2,29.72,West,280,0.0,0.0,75,0.00,,,0.00,0.00,VWS V14.01,2013-02-16 08:19:00,
2013-02-16 03:20:00,31.2,24.5,29.72,West,280,0.0,0.0,76,0.00,,,0.00,0.00,VWS V14.01,2013-02-16 08:20:00,
2013-02-16 03:21:00,31.2,24.2,29.72,West,280,0.0,0.0,75,0.00,,,0.00,0.00,VWS V14.01,2013-02-16 08:21:00,
2013-02-16 03:22:00,31.2,24.5,29.72,SSE,162,0.0,0.0,76,0.00,,,0.00,0.00,VWS V14.01,2013-02-16 08:22:00,
2013-02-16 03:23:00,31.2,24.5,29.72,SSE,162,0.0,0.0,76,0.00,,,0.00,0.00,VWS V14.01,2013-02-16 08:23:00,
2013-02-16 03:24:00,31.2,24.5,29.72,WSW,256,0.0,0.0,76,0.00,,,0.00,0.00,VWS V14.01,2013-02-16 08:24:00,
2013-02-16 03:25:00,31.2,24.5,29.72,WSW,256,0.0,0.0,76,0.00,,,0.00,0.00,VWS V14.01,2013-02-16 08:25:00,
2013-02-16 03:26:00,31.2,24.5,29.72,SSE,158,0.0,0.0,76,0.00,,,0.00,0.00,VWS V14.01,2013-02-16 08:26:00,
2013-02-16 03:27:00,31.2,24.5,29.72,WSW,244,0.0,0.0,76,0.00,,,0.00,0.00,VWS V14.01,2013-02-16 08:27:00,
2013-02-16 03:28:00,31.2,24.5,29.72,West,268,0.0,0.0,76,0.00,,,0.00,0.00,VWS V14.01,2013-02-16 08:28:00,
2013-02-16 03:29:00,31.2,24.5,29.72,WNW,285,0.0,0.0,76,0.00,,,0.00,0.00,VWS V14.01,2013-02-16 08:29:00,
2013-02-16 03:30:00,31.2,24.5,29.72,WNW,285,0.0,0.0,76,0.00,,,0.00,0.00,VWS V14.01,2013-02-16 08:30:00,
2013-02-16 03:31:00,31.2,24.5,29.72,WSW,257,0.0,0.0,76,0.00,,,0.00,0.00,VWS V14.01,2013-02-16 08:31:00,
2013-02-16 03:32:00,31.2,24.5,29.72,West,270,0.0,0.0,76,0.00,,,0.00,0.00,VWS V14.01,2013-02-16 08:32:00,
2013-02-16 03:33:00,31.2,24.5,29.72,West,270,0.0,0.0,76,0.00,,,0.00,0.00,VWS V14.01,2013-02-16 08:33:00,
2013-02-16 03:34:00,31.2,24.5,29.72,West,270,0.0,0.0,76,0.00,,,0.00,0.00,VWS V14.01,2013-02-16 08:34:00,
2013-02-16 03:35:00,31.2,24.5,29.72,West,275,0.0,0.0,76,0.00,,,0.00,0.00,VWS V14.01,2013-02-16 08:35:00,
2013-02-16 03:36:00,31.2,24.5,29.72,West,274,0.0,0.0,76,0.00,,,0.00,0.00,VWS V14.01,2013-02-16 08:36:00,
2013-02-16 03:37:00,31.2,24.5,29.72,West,270,0.0,0.0,76,0.00,,,0.00,0.00,VWS V14.01,2013-02-16 08:37:00,
2013-02-16 03:38:00,31.2,24.5,29.72,West,271,0.0,0.0,76,0.00,,,0.00,0.00,VWS V14.01,2013-02-16 08:38:00,
2013-02-16 03:39:00,31.2,24.5,29.72,West,271,0.0,0.0,76,0.00,,,0.00,0.00,VWS V14.01,2013-02-16 08:39:00,
2013-02-16 03:40:00,31.2,24.5,29.72,West,271,0.0,0.0,76,0.00,,,0.00,0.00,VWS V14.01,2013-02-16 08:40:00,
2013-02-16 03:41:00,31.2,24.5,29.72,West,271,0.0,0.0,76,0.00,,,0.00,0.00,VWS V14.01,2013-02-16 08:41:00,
2013-02-16 03:42:00,31.2,24.5,29.72,West,277,0.0,0.0,76,0.00,,,0.00,0.00,VWS V14.01,2013-02-16 08:42:00,
2013-02-16 03:43:00,31.2,24.5,29.72,WSW,243,0.0,0.0,76,0.00,,,0.00,0.00,VWS V14.01,2013-02-16 08:43:00,
2013-02-16 03:44:00,31.2,24.5,29.72,West,274,0.0,0.0,76,0.00,,,0.00,0.00,VWS V14.01,2013-02-16 08:44:00,
2013-02-16 03:45:00,31.2,24.5,29.72,WNW,289,0.0,0.0,76,0.00,,,0.00,0.00,VWS V14.01,2013-02-16 08:45:00,
2013-02-16 03:46:00,31.2,24.5,29.72,WNW,294,0.0,0.0,76,0.00,,,0.00,0.00,VWS V14.01,2013-02-16 08:46:00,
2013-02-16 03:47:00,31.2,24.5,29.72,SW,215,0.0,0.0,76,0.00,,,0.00,0.00,VWS V14.01,2013-02-16 08:47:00,
2013-02-16 03:48:00,31.2,24.5,29.72,WSW,251,0.0,0.0,76,0.00,,,0.00,0.00,VWS V14.01,2013-02-16 08:48:00,
2013-02-16 03:49:00,31.2,24.5,29.72,West,265,0.0,0.0,76,0.00,,,0.00,0.00,VWS V14.01,2013-02-16 08:49:00,
2013-02-16 03:50:00,31.2,24.5,29.72,WNW,288,0.0,0.0,76,0.00,,,0.00,0.00,VWS V14.01,2013-02-16 08:50:00,
2013-02-16 03:51:00,31.2,24.5,29.72,West,280,0.0,0.0,76,0.00,,,0.00,0.00,VWS V14.01,2013-02-16 08:51:00,
2013-02-16 03:52:00,31.2,24.5,29.72,West,268,0.0,0.0,76,0.00,,,0.00,0.00,VWS V14.01,2013-02-16 08:52:00,
2013-02-16 03:53:00,31.2,24.5,29.72,WSW,251,0.0,0.0,76,0.00,,,0.00,0.00,VWS V14.01,2013-02-16 08:53:00,
2013-02-16 03:54:00,31.2,24.5,29.72,West,268,0.0,0.0,76,0.00,,,0.00,0.00,VWS V14.01,2013-02-16 08:54:00,
2013-02-16 03:55:00,31.2,24.5,29.72,West,267,0.0,0.0,76,0.00,,,0.00,0.00,VWS V14.01,2013-02-16 08:55:00,
2013-02-16 03:56:00,31.2,24.5,29.72,West,267,0.0,0.0,76,0.00,,,0.00,0.00,VWS V14.01,2013-02-16 08:56:00,
2013-02-16 03:57:00,31.2,24.5,29.72,West,267,0.0,0.0,76,0.00,,,0.00,0.00,VWS V14.01,2013-02-16 08:57:00,
2013-02-16 03:58:00,31.2,24.5,29.72,West,268,0.0,0.0,76,0.00,,,0.00,0.00,VWS V14.01,2013-02-16 08:58:00,
2013-02-16 03:59:00,31.2,24.5,29.72,WSW,240,0.0,0.0,76,0.00,,,0.00,0.00,VWS V14.01,2013-02-16 08:59:00,
2013-02-16 04:00:00,31.2,24.5,29.71,WSW,240,0.0,0.0,76,0.00,,,0.00,0.00,VWS V14.01,2013-02-16 09:00:00,
2013-02-16 04:01:00,31.2,24.5,29.71,WSW,240,0.0,0.0,76,0.00,,,0.00,0.00,VWS V14.01,2013-02-16 09:01:00,
2013-02-16 04:02:00,31.2,24.5,29.71,WSW,240,0.0,0.0,76,0.00,,,0.00,0.00,VWS V14.01,2013-02-16 09:02:00,
2013-02-16 04:03:00,31.2,24.5,29.72,WSW,240,0.0,0.0,76,0.00,,,0.00,0.00,VWS V14.01,2013-02-16 09:03:00,
2013-02-16 04:04:00,31.2,24.5,29.71,WSW,240,0.0,0.0,76,0.00,,,0.00,0.00,VWS V14.01,2013-02-16 09:04:00,
2013-02-16 04:05:00,31.2,24.5,29.71,WSW,240,0.0,0.0,76,0.00,,,0.00,0.00,VWS V14.01,2013-02-16 09:05:00,
2013-02-16 04:06:00,31.2,24.5,29.71,WSW,240,0.0,0.0,76,0.00,,,0.00,0.00,VWS V14.01,2013-02-16 09:06:00,
2013-02-16 04:07:00,31.2,24.5,29.71,WSW,240,0.0,0.0,76,0.00,,,0.00,0.00,VWS V14.01,2013-02-16 09:07:00,
2013-02-16 04:08:00,31.2,24.5,29.71,SW,230,0.0,0.0,76,0.00,,,0.00,0.00,VWS V14.01,2013-02-16 09:08:00,
2013-02-16 04:09:00,31.2,24.5,29.71,WSW,240,0.0,0.0,76,0.00,,,0.00,0.00,VWS V14.01,2013-02-16 09:09:00,
2013-02-16 04:10:00,31.2,24.5,29.71,WNW,294,0.0,0.0,76,0.00,,,0.00,0.00,VWS V14.01,2013-02-16 09:10:00,
2013-02-16 04:11:00,31.2,24.5,29.71,WNW,302,0.0,0.0,76,0.00,,,0.00,0.00,VWS V14.01,2013-02-16 09:11:00,
2013-02-16 04:12:00,31.2,24.5,29.71,WNW,302,0.0,0.0,76,0.00,,,0.00,0.00,VWS V14.01,2013-02-16 09:12:00,
2013-02-16 04:13:00,31.2,24.5,29.71,WNW,294,0.0,0.0,76,0.00,,,0.00,0.00,VWS V14.01,2013-02-16 09:13:00,
2013-02-16 04:14:00,31.2,24.5,29.71,WSW,251,0.0,0.0,76,0.00,,,0.00,0.00,VWS V14.01,2013-02-16 09:14:00,
2013-02-16 04:15:00,31.2,24.5,29.72,West,271,0.0,0.0,76,0.00,,,0.00,0.00,VWS V14.01,2013-02-16 09:15:00,
2013-02-16 04:16:00,31.2,24.5,29.72,West,275,0.0,0.0,76,0.00,,,0.00,0.00,VWS V14.01,2013-02-16 09:16:00,
2013-02-16 04:17:00,31.2,24.5,29.72,NW,308,0.0,0.0,76,0.00,,,0.00,0.00,VWS V14.01,2013-02-16 09:17:00,
2013-02-16 04:18:00,31.2,24.2,29.72,NW,323,0.0,0.0,75,0.00,,,0.00,0.00,VWS V14.01,2013-02-16 09:18:00,
2013-02-16 04:19:00,31.2,24.5,29.71,West,281,0.0,0.0,76,0.00,,,0.00,0.00,VWS V14.01,2013-02-16 09:19:00,
2013-02-16 04:20:00,31.0,24.0,29.72,NNW,336,0.0,0.0,75,0.00,,,0.00,0.00,VWS V14.01,2013-02-16 09:20:00,
2013-02-16 04:21:00,31.0,24.0,29.72,WNW,294,0.0,0.0,75,0.00,,,0.00,0.00,VWS V14.01,2013-02-16 09:21:00,
2013-02-16 04:22:00,31.0,24.0,29.72,NW,323,0.0,0.0,75,0.00,,,0.00,0.00,VWS V14.01,2013-02-16 09:22:00,
2013-02-16 04:23:00,31.0,24.0,29.72,WSW,251,0.0,0.0,75,0.00,,,0.00,0.00,VWS V14.01,2013-02-16 09:23:00,
2013-02-16 04:24:00,31.0,24.0,29.72,NW,309,0.0,0.0,75,0.00,,,0.00,0.00,VWS V14.01,2013-02-16 09:24:00,
2013-02-16 04:25:00,31.0,24.0,29.72,NNW,336,0.0,0.0,75,0.00,,,0.00,0.00,VWS V14.01,2013-02-16 09:25:00,
2013-02-16 04:26:00,31.0,24.0,29.72,WNW,287,0.0,0.0,75,0.00,,,0.00,0.00,VWS V14.01,2013-02-16 09:26:00,
2013-02-16 04:27:00,31.0,24.0,29.72,WNW,291,0.0,0.0,75,0.00,,,0.00,0.00,VWS V14.01,2013-02-16 09:27:00,
2013-02-16 04:28:00,31.0,24.0,29.72,West,281,0.0,0.0,75,0.00,,,0.00,0.00,VWS V14.01,2013-02-16 09:28:00,
2013-02-16 04:29:00,31.0,24.0,29.72,WNW,301,0.0,0.0,75,0.00,,,0.00,0.00,VWS V14.01,2013-02-16 09:29:00,
2013-02-16 04:30:00,31.0,24.0,29.72,WSW,256,0.0,0.0,75,0.00,,,0.00,0.00,VWS V14.01,2013-02-16 09:30:00,
2013-02-16 04:31:00,31.0,24.0,29.72,West,275,0.0,0.0,75,0.00,,,0.00,0.00,VWS V14.01,2013-02-16 09:31:00,
2013-02-16 04:32:00,30.9,23.9,29.72,West,272,0.0,0.0,75,0.00,,,0.00,0.00,VWS V14.01,2013-02-16 09:32:00,
2013-02-16 04:33:00,30.9,23.9,29.72,West,272,0.0,0.0,75,0.00,,,0.00,0.00,VWS V14.01,2013-02-16 09:33:00,
2013-02-16 04:34:00,30.9,23.9,29.72,West,272,0.0,0.0,75,0.00,,,0.00,0.00,VWS V14.01,2013-02-16 09:34:00,
2013-02-16 04:35:00,31.0,24.0,29.72,WNW,294,0.0,0.0,75,0.00,,,0.00,0.00,VWS V14.01,2013-02-16 09:35:00,
2013-02-16 04:36:00,30.9,23.9,29.72,West,278,0.0,0.0,75,0.00,,,0.00,0.00,VWS V14.01,2013-02-16 09:36:00,
2013-02-16 04:37:00,30.9,23.9,29.72,NW,312,0.0,0.0,75,0.00,,,0.00,0.00,VWS V14.01,2013-02-16 09:37:00,
2013-02-16 04:38:00,30.9,23.9,29.72,NW,304,0.0,0.0,75,0.00,,,0.00,0.00,VWS V14.01,2013-02-16 09:38:00,
2013-02-16 04:39:00,30.9,23.9,29.72,NW,304,0.0,0.0,75,0.00,,,0.00,0.00,VWS V14.01,2013-02-16 09:39:00,
2013-02-16 04:40:00,30.9,23.9,29.72,WNW,291,0.0,0.0,75,0.00,,,0.00,0.00,VWS V14.01,2013-02-16 09:40:00,
2013-02-16 04:41:00,30.9,23.9,29.72,WNW,296,0.0,0.0,75,0.00,,,0.00,0.00,VWS V14.01,2013-02-16 09:41:00,
2013-02-16 04:42:00,30.9,23.9,29.72,WSW,258,0.0,0.0,75,0.00,,,0.00,0.00,VWS V14.01,2013-02-16 09:42:00,
2013-02-16 04:43:00,30.7,23.4,29.72,West,277,0.0,0.0,74,0.00,,,0.00,0.00,VWS V14.01,2013-02-16 09:43:00,
2013-02-16 04:44:00,30.7,23.4,29.72,West,277,0.0,0.0,74,0.00,,,0.00,0.00,VWS V14.01,2013-02-16 09:44:00,
2013-02-16 04:45:00,30.7,23.4,29.73,West,263,0.0,0.0,74,0.00,,,0.00,0.00,VWS V14.01,2013-02-16 09:45:00,
2013-02-16 04:46:00,30.9,23.9,29.72,WNW,296,0.0,0.0,75,0.00,,,0.00,0.00,VWS V14.01,2013-02-16 09:46:00,
2013-02-16 04:47:00,30.7,23.4,29.73,West,274,0.0,0.0,74,0.00,,,0.00,0.00,VWS V14.01,2013-02-16 09:47:00,
2013-02-16 04:48:00,30.7,23.4,29.73,West,274,0.0,0.0,74,0.00,,,0.00,0.00,VWS V14.01,2013-02-16 09:48:00,
2013-02-16 04:49:00,30.7,23.4,29.73,West,274,0.0,0.0,74,0.00,,,0.00,0.00,VWS V14.01,2013-02-16 09:49:00,
2013-02-16 04:50:00,30.7,23.4,29.73,West,274,0.0,0.0,74,0.00,,,0.00,0.00,VWS V14.01,2013-02-16 09:50:00,
2013-02-16 04:51:00,30.7,23.4,29.73,WSW,258,0.0,0.0,74,0.00,,,0.00,0.00,VWS V14.01,2013-02-16 09:51:00,
2013-02-16 04:52:00,30.7,23.4,29.73,West,272,0.0,0.0,74,0.00,,,0.00,0.00,VWS V14.01,2013-02-16 09:52:00,
2013-02-16 04:53:00,30.7,23.4,29.73,West,272,0.0,0.0,74,0.00,,,0.00,0.00,VWS V14.01,2013-02-16 09:53:00,
2013-02-16 04:54:00,30.7,23.4,29.73,West,272,0.0,0.0,74,0.00,,,0.00,0.00,VWS V14.01,2013-02-16 09:54:00,
2013-02-16 04:56:00,30.7,23.4,29.73,West,274,0.0,0.0,74,0.00,,,0.00,0.00,VWS V14.01,2013-02-16 09:56:00,
2013-02-16 05:00:00,30.6,23.3,29.72,WNW,282,0.0,0.0,74,0.00,,,0.00,0.00,VWS V14.01,2013-02-16 10:00:00,
2013-02-16 05:05:00,30.6,23.3,29.72,WNW,282,0.0,0.0,74,0.00,,,0.00,0.00,VWS V14.01,2013-02-16 10:05:00,
2013-02-16 05:11:00,30.6,23.0,29.72,WNW,289,0.0,0.0,73,0.00,,,0.00,0.00,VWS V14.01,2013-02-16 10:11:00,
2013-02-16 05:12:00,30.4,22.8,29.72,WNW,289,0.0,0.0,73,0.00,,,0.00,0.00,VWS V14.01,2013-02-16 10:12:00,
2013-02-16 05:13:00,30.4,22.8,29.72,WNW,289,0.0,0.0,73,0.00,,,0.00,0.00,VWS V14.01,2013-02-16 10:13:00,
2013-02-16 05:14:00,30.4,22.5,29.72,WNW,289,0.0,0.0,72,0.00,,,0.00,0.00,VWS V14.01,2013-02-16 10:14:00,
2013-02-16 05:15:00,30.4,22.8,29.74,WNW,289,0.0,0.0,73,0.00,,,0.00,0.00,VWS V14.01,2013-02-16 10:15:00,
2013-02-16 05:16:00,30.4,22.8,29.72,WNW,289,0.0,0.0,73,0.00,,,0.00,0.00,VWS V14.01,2013-02-16 10:16:00,
2013-02-16 05:17:00,30.4,22.5,29.74,WNW,289,0.0,0.0,72,0.00,,,0.00,0.00,VWS V14.01,2013-02-16 10:17:00,
2013-02-16 05:18:00,30.4,22.5,29.74,WNW,288,0.0,0.0,72,0.00,,,0.00,0.00,VWS V14.01,2013-02-16 10:18:00,
2013-02-16 05:19:00,30.4,22.8,29.74,WNW,289,0.0,0.0,73,0.00,,,0.00,0.00,VWS V14.01,2013-02-16 10:19:00,
2013-02-16 05:20:00,30.4,22.8,29.74,WNW,289,0.0,0.0,73,0.00,,,0.00,0.00,VWS V14.01,2013-02-16 10:20:00,
2013-02-16 05:21:00,30.4,22.8,29.74,WNW,289,0.0,0.0,73,0.00,,,0.00,0.00,VWS V14.01,2013-02-16 10:21:00,
2013-02-16 05:22:00,30.4,22.5,29.74,WNW,289,0.0,0.0,72,0.00,,,0.00,0.00,VWS V14.01,2013-02-16 10:22:00,
2013-02-16 05:23:00,30.4,22.8,29.74,WNW,289,0.0,0.0,73,0.00,,,0.00,0.00,VWS V14.01,2013-02-16 10:23:00,
2013-02-16 05:24:00,30.4,22.8,29.74,WNW,289,0.0,0.0,73,0.00,,,0.00,0.00,VWS V14.01,2013-02-16 10:24:00,
2013-02-16 05:25:00,30.4,22.8,29.74,WNW,289,0.0,0.0,73,0.00,,,0.00,0.00,VWS V14.01,2013-02-16 10:25:00,
2013-02-16 05:26:00,30.4,22.8,29.74,SW,223,0.0,0.0,73,0.00,,,0.00,0.00,VWS V14.01,2013-02-16 10:26:00,
2013-02-16 05:27:00,30.4,22.8,29.74,WNW,289,0.0,0.0,73,0.00,,,0.00,0.00,VWS V14.01,2013-02-16 10:27:00,
2013-02-16 05:28:00,30.3,22.7,29.74,SW,223,0.0,0.0,73,0.00,,,0.00,0.00,VWS V14.01,2013-02-16 10:28:00,
2013-02-16 05:29:00,30.3,22.7,29.74,SW,223,0.0,0.0,73,0.00,,,0.00,0.00,VWS V14.01,2013-02-16 10:29:00,
2013-02-16 05:30:00,30.3,22.7,29.74,WSW,240,0.0,0.0,73,0.00,,,0.00,0.00,VWS V14.01,2013-02-16 10:30:00,
2013-02-16 05:31:00,30.3,22.7,29.74,WSW,240,0.0,0.0,73,0.00,,,0.00,0.00,VWS V14.01,2013-02-16 10:31:00,
2013-02-16 05:32:00,30.4,22.8,29.74,SSW,212,0.0,0.0,73,0.00,,,0.00,0.00,VWS V14.01,2013-02-16 10:32:00,
2013-02-16 05:33:00,30.3,22.7,29.74,WSW,251,0.0,0.0,73,0.00,,,0.00,0.00,VWS V14.01,2013-02-16 10:33:00,
2013-02-16 05:34:00,30.3,22.7,29.74,West,278,0.0,0.0,73,0.00,,,0.00,0.00,VWS V14.01,2013-02-16 10:34:00,
2013-02-16 05:35:00,30.3,22.7,29.74,WSW,256,0.0,0.0,73,0.00,,,0.00,0.00,VWS V14.01,2013-02-16 10:35:00,
2013-02-16 05:36:00,30.3,22.4,29.74,WSW,244,0.0,0.0,72,0.00,,,0.00,0.00,VWS V14.01,2013-02-16 10:36:00,
2013-02-16 05:37:00,30.3,22.4,29.74,SW,234,0.0,0.0,72,0.00,,,0.00,0.00,VWS V14.01,2013-02-16 10:37:00,
2013-02-16 05:38:00,30.3,22.7,29.74,WSW,251,0.0,0.0,73,0.00,,,0.00,0.00,VWS V14.01,2013-02-16 10:38:00,
2013-02-16 05:39:00,30.3,22.7,29.74,SW,234,0.0,0.0,73,0.00,,,0.00,0.00,VWS V14.01,2013-02-16 10:39:00,
2013-02-16 05:40:00,30.3,22.4,29.74,SW,234,0.0,0.0,72,0.00,,,0.00,0.00,VWS V14.01,2013-02-16 10:40:00,
2013-02-16 05:41:00,30.3,22.4,29.74,SW,234,0.0,0.0,72,0.00,,,0.00,0.00,VWS V14.01,2013-02-16 10:41:00,
2013-02-16 05:42:00,30.1,22.2,29.74,SW,234,0.0,0.0,72,0.00,,,0.00,0.00,VWS V14.01,2013-02-16 10:42:00,
2013-02-16 05:43:00,30.3,22.4,29.74,SW,233,0.0,0.0,72,0.00,,,0.00,0.00,VWS V14.01,2013-02-16 10:43:00,
2013-02-16 05:44:00,30.1,22.2,29.74,SW,234,0.0,0.0,72,0.00,,,0.00,0.00,VWS V14.01,2013-02-16 10:44:00,
2013-02-16 05:45:00,30.1,21.9,29.74,SW,234,0.0,0.0,71,0.00,,,0.00,0.00,VWS V14.01,2013-02-16 10:45:00,
2013-02-16 05:46:00,30.1,21.9,29.74,SW,234,0.0,0.0,71,0.00,,,0.00,0.00,VWS V14.01,2013-02-16 10:46:00,
2013-02-16 05:47:00,30.1,21.9,29.74,SW,234,0.0,0.0,71,0.00,,,0.00,0.00,VWS V14.01,2013-02-16 10:47:00,
2013-02-16 05:48:00,30.1,22.2,29.74,SW,234,0.0,0.0,72,0.00,,,0.00,0.00,VWS V14.01,2013-02-16 10:48:00,
2013-02-16 05:49:00,30.1,22.2,29.74,SW,234,0.0,0.0,72,0.00,,,0.00,0.00,VWS V14.01,2013-02-16 10:49:00,
2013-02-16 05:50:00,30.1,22.2,29.74,WSW,239,0.0,0.0,72,0.00,,,0.00,0.00,VWS V14.01,2013-02-16 10:50:00,
2013-02-16 05:51:00,30.1,22.2,29.74,WSW,246,0.0,0.0,72,0.00,,,0.00,0.00,VWS V14.01,2013-02-16 10:51:00,
2013-02-16 05:52:00,30.1,22.2,29.74,WSW,247,0.0,0.0,72,0.00,,,0.00,0.00,VWS V14.01,2013-02-16 10:52:00,
2013-02-16 05:53:00,30.1,22.2,29.74,SW,223,0.0,0.0,72,0.00,,,0.00,0.00,VWS V14.01,2013-02-16 10:53:00,
2013-02-16 05:54:00,30.1,21.9,29.74,WSW,246,0.0,0.0,71,0.00,,,0.00,0.00,VWS V14.01,2013-02-16 10:54:00,
2013-02-16 05:55:00,30.1,21.9,29.74,WSW,247,0.0,0.0,71,0.00,,,0.00,0.00,VWS V14.01,2013-02-16 10:55:00,
2013-02-16 05:56:00,30.1,21.9,29.74,WSW,246,0.0,0.0,71,0.00,,,0.00,0.00,VWS V14.01,2013-02-16 10:56:00,
2013-02-16 05:57:00,30.1,21.9,29.74,WSW,246,0.0,0.0,71,0.00,,,0.00,0.00,VWS V14.01,2013-02-16 10:57:00,
2013-02-16 05:58:00,30.1,22.2,29.74,WSW,247,0.0,0.0,72,0.00,,,0.00,0.00,VWS V14.01,2013-02-16 10:58:00,
2013-02-16 05:59:00,30.0,21.8,29.74,WNW,291,0.0,0.0,71,0.00,,,0.00,0.00,VWS V14.01,2013-02-16 10:59:00,
2013-02-16 06:00:00,30.0,21.8,29.74,WNW,298,0.0,0.0,71,0.00,,,0.00,0.00,VWS V14.01,2013-02-16 11:00:00,
2013-02-16 06:01:00,30.0,21.8,29.74,WNW,298,0.0,0.0,71,0.00,,,0.00,0.00,VWS V14.01,2013-02-16 11:01:00,
2013-02-16 06:02:00,30.0,21.8,29.74,WNW,289,0.0,0.0,71,0.00,,,0.00,0.00,VWS V14.01,2013-02-16 11:02:00,
2013-02-16 06:03:00,30.1,21.9,29.74,WSW,256,0.0,0.0,71,0.00,,,0.00,0.00,VWS V14.01,2013-02-16 11:03:00,
2013-02-16 06:04:00,30.0,21.8,29.74,West,278,0.0,0.0,71,0.00,,,0.00,0.00,VWS V14.01,2013-02-16 11:04:00,
2013-02-16 06:05:00,30.0,21.8,29.74,WNW,285,0.0,0.0,71,0.00,,,0.00,0.00,VWS V14.01,2013-02-16 11:05:00,
2013-02-16 06:06:00,30.0,21.8,29.74,West,271,0.0,0.0,71,0.00,,,0.00,0.00,VWS V14.01,2013-02-16 11:06:00,
2013-02-16 06:07:00,30.0,21.4,29.74,WNW,295,0.0,0.0,70,0.00,,,0.00,0.00,VWS V14.01,2013-02-16 11:07:00,
2013-02-16 06:08:00,30.0,21.8,29.74,WNW,289,0.0,0.0,71,0.00,,,0.00,0.00,VWS V14.01,2013-02-16 11:08:00,
2013-02-16 06:09:00,30.0,21.4,29.74,West,270,0.0,0.0,70,0.00,,,0.00,0.00,VWS V14.01,2013-02-16 11:09:00,
2013-02-16 06:10:00,30.0,21.4,29.74,WNW,288,0.0,0.0,70,0.00,,,0.00,0.00,VWS V14.01,2013-02-16 11:10:00,
2013-02-16 06:11:00,30.0,21.4,29.74,West,271,0.0,0.0,70,0.00,,,0.00,0.00,VWS V14.01,2013-02-16 11:11:00,
2013-02-16 06:12:00,30.0,21.8,29.74,West,272,0.0,0.0,71,0.00,,,0.00,0.00,VWS V14.01,2013-02-16 11:12:00,
2013-02-16 06:13:00,30.0,21.8,29.74,West,281,0.0,0.0,71,0.00,,,0.00,0.00,VWS V14.01,2013-02-16 11:13:00,
2013-02-16 06:14:00,30.0,21.4,29.74,West,270,0.0,0.0,70,0.00,,,0.00,0.00,VWS V14.01,2013-02-16 11:14:00,
2013-02-16 06:15:00,30.0,21.8,29.75,West,271,0.0,0.0,71,0.00,,,0.00,0.00,VWS V14.01,2013-02-16 11:15:00,
2013-02-16 06:16:00,30.0,21.8,29.75,West,275,0.0,0.0,71,0.00,,,0.00,0.00,VWS V14.01,2013-02-16 11:16:00,
2013-02-16 06:17:00,30.0,21.8,29.75,West,271,0.0,0.0,71,0.00,,,0.00,0.00,VWS V14.01,2013-02-16 11:17:00,
2013-02-16 06:18:00,30.0,21.4,29.75,WSW,258,0.0,0.0,70,0.00,,,0.00,0.00,VWS V14.01,2013-02-16 11:18:00,
2013-02-16 06:19:00,30.0,21.8,29.74,WNW,298,0.0,0.0,71,0.00,,,0.00,0.00,VWS V14.01,2013-02-16 11:19:00,
2013-02-16 06:20:00,30.0,21.4,29.75,West,263,0.0,0.0,70,0.00,,,0.00,0.00,VWS V14.01,2013-02-16 11:20:00,
2013-02-16 06:21:00,30.0,21.4,29.75,West,280,0.0,0.0,70,0.00,,,0.00,0.00,VWS V14.01,2013-02-16 11:21:00,
2013-02-16 06:22:00,30.0,21.4,29.75,West,278,0.0,0.0,70,0.00,,,0.00,0.00,VWS V14.01,2013-02-16 11:22:00,
2013-02-16 06:23:00,30.0,21.1,29.75,West,261,0.0,0.0,69,0.00,,,0.00,0.00,VWS V14.01,2013-02-16 11:23:00,
2013-02-16 06:24:00,30.0,21.1,29.75,WSW,244,0.0,0.0,69,0.00,,,0.00,0.00,VWS V14.01,2013-02-16 11:24:00,
2013-02-16 06:25:00,30.0,21.4,29.75,West,263,0.0,0.0,70,0.00,,,0.00,0.00,VWS V14.01,2013-02-16 11:25:00,
2013-02-16 06:26:00,30.0,21.1,29.75,West,278,0.0,0.0,69,0.00,,,0.00,0.00,VWS V14.01,2013-02-16 11:26:00,
2013-02-16 06:27:00,30.0,21.1,29.75,WNW,301,0.0,0.0,69,0.00,,,0.00,0.00,VWS V14.01,2013-02-16 11:27:00,
2013-02-16 06:28:00,30.0,21.1,29.75,WNW,301,0.0,0.0,69,0.00,,,0.00,0.00,VWS V14.01,2013-02-16 11:28:00,
2013-02-16 06:29:00,30.0,21.1,29.75,WNW,301,0.0,0.0,69,0.00,,,0.00,0.00,VWS V14.01,2013-02-16 11:29:00,
2013-02-16 06:30:00,30.0,21.1,29.75,NW,309,0.0,0.0,69,0.00,,,0.00,0.00,VWS V14.01,2013-02-16 11:30:00,
2013-02-16 06:31:00,30.0,21.1,29.74,NW,308,0.0,0.0,69,0.00,,,0.00,0.00,VWS V14.01,2013-02-16 11:31:00,
2013-02-16 06:32:00,29.8,21.2,29.74,North,0,0.0,0.0,70,0.00,,,0.00,0.00,VWS V14.01,2013-02-16 11:32:00,
2013-02-16 06:33:00,29.8,21.2,29.74,West,270,0.0,0.0,70,0.00,,,0.00,0.00,VWS V14.01,2013-02-16 11:33:00,
2013-02-16 06:34:00,29.8,21.2,29.74,NW,326,0.0,0.0,70,0.00,,,0.00,0.00,VWS V14.01,2013-02-16 11:34:00,
2013-02-16 06:35:00,30.0,21.1,29.74,NW,308,0.0,0.0,69,0.00,,,0.00,0.00,VWS V14.01,2013-02-16 11:35:00,
2013-02-16 06:36:00,29.8,21.2,29.74,WNW,289,0.0,0.0,70,0.00,,,0.00,0.00,VWS V14.01,2013-02-16 11:36:00,
2013-02-16 06:37:00,29.8,21.2,29.74,WNW,284,0.0,0.0,70,0.00,,,0.00,0.00,VWS V14.01,2013-02-16 11:37:00,
2013-02-16 06:38:00,29.8,21.2,29.74,West,261,0.0,0.0,70,0.00,,,0.00,0.00,VWS V14.01,2013-02-16 11:38:00,
2013-02-16 06:39:00,29.8,21.2,29.74,West,278,0.0,0.0,70,0.00,,,0.00,0.00,VWS V14.01,2013-02-16 11:39:00,
2013-02-16 06:40:00,29.8,21.2,29.74,WNW,296,0.0,0.0,70,0.00,,,0.00,0.00,VWS V14.01,2013-02-16 11:40:00,
2013-02-16 06:41:00,29.8,21.2,29.74,WNW,289,0.0,0.0,70,0.00,,,0.00,0.00,VWS V14.01,2013-02-16 11:41:00,
2013-02-16 06:42:00,29.8,21.2,29.74,West,275,0.0,0.0,70,0.00,,,0.00,0.00,VWS V14.01,2013-02-16 11:42:00,
2013-02-16 06:43:00,29.8,21.2,29.74,NW,309,0.0,0.0,70,0.00,,,0.00,0.00,VWS V14.01,2013-02-16 11:43:00,
2013-02-16 06:44:00,29.8,21.2,29.74,NW,309,0.0,0.0,70,0.00,,,0.00,0.00,VWS V14.01,2013-02-16 11:44:00,
2013-02-16 06:45:00,29.8,21.2,29.75,West,260,0.0,0.0,70,0.00,,,0.00,0.00,VWS V14.01,2013-02-16 11:45:00,
2013-02-16 06:46:00,29.8,21.2,29.74,WNW,289,0.0,0.0,70,0.00,,,0.00,0.00,VWS V14.01,2013-02-16 11:46:00,
2013-02-16 06:47:00,29.8,21.2,29.75,WNW,292,0.0,0.0,70,0.00,,,0.00,0.00,VWS V14.01,2013-02-16 11:47:00,
2013-02-16 06:48:00,29.8,21.2,29.75,WNW,285,0.0,0.0,70,0.00,,,0.00,0.00,VWS V14.01,2013-02-16 11:48:00,
2013-02-16 06:49:00,29.8,21.2,29.75,WNW,302,0.0,0.0,70,0.00,,,0.00,0.00,VWS V14.01,2013-02-16 11:49:00,
2013-02-16 06:50:00,29.8,21.2,29.75,WNW,302,0.0,0.0,70,0.00,,,0.00,0.00,VWS V14.01,2013-02-16 11:50:00,
2013-02-16 06:51:00,29.8,21.2,29.75,WNW,302,0.0,0.0,70,0.00,,,0.00,0.00,VWS V14.01,2013-02-16 11:51:00,
2013-02-16 06:52:00,29.8,21.2,29.75,WNW,292,0.0,0.0,70,0.00,,,0.00,0.00,VWS V14.01,2013-02-16 11:52:00,
2013-02-16 06:53:00,29.8,21.2,29.75,West,264,0.0,0.0,70,0.00,,,0.00,0.00,VWS V14.01,2013-02-16 11:53:00,
2013-02-16 06:54:00,29.8,21.6,29.75,NW,313,0.0,0.0,71,0.00,,,0.00,0.00,VWS V14.01,2013-02-16 11:54:00,
2013-02-16 06:55:00,29.8,21.6,29.75,NW,305,0.0,0.0,71,0.00,,,0.00,0.00,VWS V14.01,2013-02-16 11:55:00,
2013-02-16 06:56:00,29.8,21.6,29.75,WNW,295,0.0,0.0,71,0.00,,,0.00,0.00,VWS V14.01,2013-02-16 11:56:00,
2013-02-16 06:57:00,29.8,21.2,29.75,West,268,0.0,0.0,70,0.00,,,0.00,0.00,VWS V14.01,2013-02-16 11:57:00,
2013-02-16 06:58:00,29.8,21.2,29.75,West,264,0.0,0.0,70,0.00,,,0.00,0.00,VWS V14.01,2013-02-16 11:58:00,
2013-02-16 06:59:00,29.8,21.2,29.75,West,264,0.0,0.0,70,0.00,,,0.00,0.00,VWS V14.01,2013-02-16 11:59:00,
2013-02-16 07:00:00,29.8,21.2,29.75,West,271,0.0,0.0,70,0.00,,,0.00,0.00,VWS V14.01,2013-02-16 12:00:00,
2013-02-16 07:01:00,29.8,21.2,29.75,WSW,248,0.0,0.0,70,0.00,,,0.00,0.00,VWS V14.01,2013-02-16 12:01:00,
2013-02-16 07:02:00,29.8,21.6,29.75,West,270,0.0,0.0,71,0.00,,,0.00,0.00,VWS V14.01,2013-02-16 12:02:00,
2013-02-16 07:03:00,29.8,21.2,29.75,WNW,301,0.0,0.0,70,0.00,,,0.00,0.00,VWS V14.01,2013-02-16 12:03:00,
2013-02-16 07:04:00,29.8,21.2,29.75,West,272,0.0,0.0,70,0.00,,,0.00,0.00,VWS V14.01,2013-02-16 12:04:00,
2013-02-16 07:05:00,29.8,21.2,29.75,WNW,289,0.0,0.0,70,0.00,,,0.00,0.00,VWS V14.01,2013-02-16 12:05:00,
2013-02-16 07:06:00,29.8,21.2,29.75,WSW,254,0.0,0.0,70,0.00,,,0.00,0.00,VWS V14.01,2013-02-16 12:06:00,
2013-02-16 07:07:00,29.8,21.2,29.75,WNW,282,0.0,0.0,70,0.00,,,0.00,0.00,VWS V14.01,2013-02-16 12:07:00,
2013-02-16 07:08:00,29.8,21.2,29.75,WSW,256,0.0,0.0,70,0.00,,,0.00,0.00,VWS V14.01,2013-02-16 12:08:00,
2013-02-16 07:09:00,29.8,21.2,29.75,WNW,292,0.0,0.0,70,0.00,,,0.00,0.00,VWS V14.01,2013-02-16 12:09:00,
2013-02-16 07:10:00,29.7,21.1,29.75,WNW,284,0.0,0.0,70,0.00,,,0.00,0.00,VWS V14.01,2013-02-16 12:10:00,
2013-02-16 07:11:00,29.7,21.1,29.75,WNW,287,0.0,0.0,70,0.00,,,0.00,0.00,VWS V14.01,2013-02-16 12:11:00,
2013-02-16 07:12:00,29.7,20.8,29.75,West,263,0.0,0.0,69,0.00,,,0.00,0.00,VWS V14.01,2013-02-16 12:12:00,
2013-02-16 07:13:00,29.7,20.8,29.75,West,278,0.0,0.0,69,0.00,,,0.00,0.00,VWS V14.01,2013-02-16 12:13:00,
2013-02-16 07:14:00,29.8,21.2,29.75,WNW,292,0.0,0.0,70,0.00,,,0.00,0.00,VWS V14.01,2013-02-16 12:14:00,
2013-02-16 07:15:00,29.7,20.8,29.75,NW,311,0.0,0.0,69,0.00,,,0.00,0.00,VWS V14.01,2013-02-16 12:15:00,
2013-02-16 07:16:00,29.7,20.8,29.75,NW,311,0.0,0.0,69,0.00,,,0.00,0.00,VWS V14.01,2013-02-16 12:16:00,
2013-02-16 07:17:00,29.7,20.8,29.75,West,263,0.0,0.0,69,0.00,,,0.00,0.00,VWS V14.01,2013-02-16 12:17:00,
2013-02-16 07:18:00,29.7,20.8,29.75,West,274,0.0,0.0,69,0.00,,,0.00,0.00,VWS V14.01,2013-02-16 12:18:00,
2013-02-16 07:19:00,29.7,20.8,29.75,WNW,289,0.0,0.0,69,0.00,,,0.00,0.00,VWS V14.01,2013-02-16 12:19:00,
2013-02-16 07:20:00,29.5,20.6,29.75,WNW,299,0.0,0.0,69,0.00,,,0.00,7.00,VWS V14.01,2013-02-16 12:20:00,
2013-02-16 07:21:00,29.5,20.6,29.75,NW,312,0.0,0.0,69,0.00,,,0.00,7.00,VWS V14.01,2013-02-16 12:21:00,
2013-02-16 07:22:00,29.5,20.6,29.75,WNW,288,0.0,0.0,69,0.00,,,0.00,7.00,VWS V14.01,2013-02-16 12:22:00,
2013-02-16 07:23:00,29.5,20.6,29.75,NW,304,0.0,0.0,69,0.00,,,0.00,7.00,VWS V14.01,2013-02-16 12:23:00,
2013-02-16 07:24:00,29.5,20.6,29.75,West,264,0.0,0.0,69,0.00,,,0.00,12.00,VWS V14.01,2013-02-16 12:24:00,
2013-02-16 07:25:00,29.5,20.6,29.75,WNW,299,0.0,0.0,69,0.00,,,0.00,7.00,VWS V14.01,2013-02-16 12:25:00,
2013-02-16 07:26:00,29.5,20.6,29.75,West,280,0.0,0.0,69,0.00,,,0.00,12.00,VWS V14.01,2013-02-16 12:26:00,
2013-02-16 07:27:00,29.5,20.6,29.75,West,260,0.0,0.0,69,0.00,,,0.00,12.00,VWS V14.01,2013-02-16 12:27:00,
2013-02-16 07:28:00,29.5,20.6,29.75,WNW,294,0.0,0.0,69,0.00,,,0.00,12.00,VWS V14.01,2013-02-16 12:28:00,
2013-02-16 07:29:00,29.5,20.6,29.75,WNW,295,0.0,0.0,69,0.00,,,0.00,19.00,VWS V14.01,2013-02-16 12:29:00,
2013-02-16 07:30:00,29.5,20.6,29.75,WNW,284,0.0,0.0,69,0.00,,,0.00,12.00,VWS V14.01,2013-02-16 12:30:00,
2013-02-16 07:31:00,29.5,20.6,29.75,WNW,298,0.0,0.0,69,0.00,,,0.00,19.00,VWS V14.01,2013-02-16 12:31:00,
2013-02-16 07:32:00,29.5,20.6,29.75,NW,305,0.0,0.0,69,0.00,,,0.00,19.00,VWS V14.01,2013-02-16 12:32:00,
2013-02-16 07:33:00,29.5,20.6,29.75,NNW,329,0.0,0.0,69,0.00,,,0.00,26.00,VWS V14.01,2013-02-16 12:33:00,
2013-02-16 07:34:00,29.5,20.6,29.75,NW,318,0.0,0.0,69,0.00,,,0.00,26.00,VWS V14.01,2013-02-16 12:34:00,
2013-02-16 07:35:00,29.5,20.6,29.75,WNW,287,0.0,0.0,69,0.00,,,0.00,26.00,VWS V14.01,2013-02-16 12:35:00,
2013-02-16 07:36:00,29.5,20.6,29.75,WNW,298,0.0,0.0,69,0.00,,,0.00,19.00,VWS V14.01,2013-02-16 12:36:00,
2013-02-16 07:37:00,29.4,20.5,29.75,WNW,288,0.0,0.0,69,0.00,,,0.00,35.00,VWS V14.01,2013-02-16 12:37:00,
2013-02-16 07:38:00,29.4,20.5,29.75,WNW,294,0.0,0.0,69,0.00,,,0.00,35.00,VWS V14.01,2013-02-16 12:38:00,
2013-02-16 07:39:00,29.4,20.5,29.75,West,271,0.0,0.0,69,0.00,,,0.00,35.00,VWS V14.01,2013-02-16 12:39:00,
2013-02-16 07:40:00,29.4,20.5,29.75,West,274,0.0,0.0,69,0.00,,,0.00,35.00,VWS V14.01,2013-02-16 12:40:00,
2013-02-16 07:41:00,29.4,20.5,29.75,WNW,301,0.0,0.0,69,0.00,,,0.00,42.00,VWS V14.01,2013-02-16 12:41:00,
2013-02-16 07:42:00,29.4,20.5,29.75,WNW,288,0.0,0.0,69,0.00,,,0.00,35.00,VWS V14.01,2013-02-16 12:42:00,
2013-02-16 07:43:00,29.4,20.5,29.75,West,272,0.0,0.0,69,0.00,,,0.00,42.00,VWS V14.01,2013-02-16 12:43:00,
2013-02-16 07:44:00,29.4,20.5,29.75,NW,320,0.0,0.0,69,0.00,,,0.00,42.00,VWS V14.01,2013-02-16 12:44:00,
2013-02-16 07:45:00,29.4,20.5,29.75,WNW,288,0.0,0.0,69,0.00,,,0.00,46.00,VWS V14.01,2013-02-16 12:45:00,
2013-02-16 07:46:00,29.4,20.2,29.75,West,275,0.0,0.0,68,0.00,,,0.00,46.00,VWS V14.01,2013-02-16 12:46:00,
2013-02-16 07:47:00,29.4,20.5,29.75,WNW,282,0.0,0.0,69,0.00,,,0.00,42.00,VWS V14.01,2013-02-16 12:47:00,
2013-02-16 07:48:00,29.4,20.2,29.75,WNW,284,0.0,0.0,68,0.00,,,0.00,46.00,VWS V14.01,2013-02-16 12:48:00,
2013-02-16 07:49:00,29.4,20.2,29.75,WNW,285,0.0,0.0,68,0.00,,,0.00,48.00,VWS V14.01,2013-02-16 12:49:00,
2013-02-16 07:50:00,29.4,20.2,29.75,WNW,285,0.0,0.0,68,0.00,,,0.00,48.00,VWS V14.01,2013-02-16 12:50:00,
2013-02-16 07:51:00,29.4,20.2,29.75,WNW,285,0.0,0.0,68,0.00,,,0.00,48.00,VWS V14.01,2013-02-16 12:51:00,
2013-02-16 07:52:00,29.4,20.2,29.75,WNW,294,0.0,0.0,68,0.00,,,0.00,46.00,VWS V14.01,2013-02-16 12:52:00,
2013-02-16 07:53:00,29.4,20.2,29.75,West,265,0.0,0.0,68,0.00,,,0.00,48.00,VWS V14.01,2013-02-16 12:53:00,
2013-02-16 07:54:00,29.4,20.2,29.75,WNW,285,0.0,0.0,68,0.00,,,0.00,53.00,VWS V14.01,2013-02-16 12:54:00,
2013-02-16 07:55:00,29.4,20.2,29.75,WNW,289,0.0,0.0,68,0.00,,,0.00,53.00,VWS V14.01,2013-02-16 12:55:00,
2013-02-16 07:56:00,29.4,20.2,29.75,WNW,289,0.0,0.0,68,0.00,,,0.00,53.00,VWS V14.01,2013-02-16 12:56:00,
2013-02-16 07:57:00,29.4,20.2,29.75,West,280,0.0,0.0,68,0.00,,,0.00,48.00,VWS V14.01,2013-02-16 12:57:00,
2013-02-16 07:58:00,29.4,20.2,29.75,West,278,0.0,0.0,68,0.00,,,0.00,62.00,VWS V14.01,2013-02-16 12:58:00,
2013-02-16 07:59:00,29.4,20.2,29.75,WNW,284,0.0,0.0,68,0.00,,,0.00,62.00,VWS V14.01,2013-02-16 12:59:00,
2013-02-16 08:00:00,29.4,20.2,29.75,NW,305,0.0,0.0,68,0.00,,,0.00,62.00,VWS V14.01,2013-02-16 13:00:00,
2013-02-16 08:01:00,29.4,20.2,29.75,WNW,289,0.0,0.0,68,0.00,,,0.00,62.00,VWS V14.01,2013-02-16 13:01:00,
2013-02-16 08:02:00,29.4,20.2,29.75,West,277,0.0,0.0,68,0.00,,,0.00,60.00,VWS V14.01,2013-02-16 13:02:00,
2013-02-16 08:03:00,29.4,20.2,29.75,West,278,0.0,0.0,68,0.00,,,0.00,62.00,VWS V14.01,2013-02-16 13:03:00,
2013-02-16 08:04:00,29.4,20.2,29.75,West,272,0.0,0.0,68,0.00,,,0.00,60.00,VWS V14.01,2013-02-16 13:04:00,
2013-02-16 08:05:00,29.4,20.2,29.75,WNW,292,0.0,0.0,68,0.00,,,0.00,60.00,VWS V14.01,2013-02-16 13:05:00,
2013-02-16 08:06:00,29.4,19.8,29.75,WNW,298,0.0,0.0,67,0.00,,,0.00,62.00,VWS V14.01,2013-02-16 13:06:00,
2013-02-16 08:07:00,29.4,20.2,29.75,West,281,0.0,0.0,68,0.00,,,0.00,62.00,VWS V14.01,2013-02-16 13:07:00,
2013-02-16 08:08:00,29.4,20.2,29.75,WNW,282,0.0,0.0,68,0.00,,,0.00,63.00,VWS V14.01,2013-02-16 13:08:00,
2013-02-16 08:09:00,29.4,20.2,29.75,West,272,0.0,0.0,68,0.00,,,0.00,60.00,VWS V14.01,2013-02-16 13:09:00,
2013-02-16 08:10:00,29.4,19.8,29.75,WNW,289,0.0,0.0,67,0.00,,,0.00,69.00,VWS V14.01,2013-02-16 13:10:00,
2013-02-16 08:11:00,29.4,19.8,29.75,West,270,0.0,0.0,67,0.00,,,0.00,70.00,VWS V14.01,2013-02-16 13:11:00,
2013-02-16 08:12:00,29.4,19.8,29.75,WNW,296,0.0,0.0,67,0.00,,,0.00,74.00,VWS V14.01,2013-02-16 13:12:00,
2013-02-16 08:13:00,29.4,19.8,29.75,West,272,0.0,0.0,67,0.00,,,0.00,76.00,VWS V14.01,2013-02-16 13:13:00,
2013-02-16 08:14:00,29.4,19.8,29.75,WNW,291,0.0,0.0,67,0.00,,,0.00,77.00,VWS V14.01,2013-02-16 13:14:00,
2013-02-16 08:15:00,29.4,19.8,29.75,WNW,289,0.0,0.0,67,0.00,,,0.00,69.00,VWS V14.01,2013-02-16 13:15:00,
2013-02-16 08:16:00,29.4,19.8,29.75,West,281,0.0,0.0,67,0.00,,,0.00,81.00,VWS V14.01,2013-02-16 13:16:00,
2013-02-16 08:17:00,29.4,19.8,29.75,WNW,287,0.0,0.0,67,0.00,,,0.00,83.00,VWS V14.01,2013-02-16 13:17:00,
2013-02-16 08:18:00,29.4,19.8,29.75,West,261,0.0,0.0,67,0.00,,,0.00,86.00,VWS V14.01,2013-02-16 13:18:00,
2013-02-16 08:19:00,29.4,19.8,29.75,West,272,0.0,0.0,67,0.00,,,0.00,86.00,VWS V14.01,2013-02-16 13:19:00,
2013-02-16 08:20:00,29.4,19.8,29.75,WNW,299,0.0,0.0,67,0.00,,,0.00,86.00,VWS V14.01,2013-02-16 13:20:00,
2013-02-16 08:21:00,29.4,19.8,29.75,West,281,0.0,0.0,67,0.00,,,0.00,81.00,VWS V14.01,2013-02-16 13:21:00,
2013-02-16 08:22:00,29.4,19.8,29.75,West,274,0.0,0.0,67,0.00,,,0.00,86.00,VWS V14.01,2013-02-16 13:22:00,
2013-02-16 08:23:00,29.4,19.8,29.75,West,275,0.0,0.0,67,0.00,,,0.00,84.00,VWS V14.01,2013-02-16 13:23:00,
2013-02-16 08:24:00,29.4,20.2,29.75,WNW,287,0.0,0.0,68,0.00,,,0.00,84.00,VWS V14.01,2013-02-16 13:24:00,
2013-02-16 08:25:00,29.5,20.3,29.75,WNW,289,0.0,0.0,68,0.00,,,0.00,84.00,VWS V14.01,2013-02-16 13:25:00,
2013-02-16 08:26:00,29.5,20.3,29.75,WSW,257,0.0,0.0,68,0.00,,,0.00,84.00,VWS V14.01,2013-02-16 13:26:00,
2013-02-16 08:27:00,29.4,19.8,29.75,West,274,0.0,0.0,67,0.00,,,0.00,86.00,VWS V14.01,2013-02-16 13:27:00,
2013-02-16 08:28:00,29.5,20.3,29.75,West,278,0.0,0.0,68,0.00,,,0.00,74.00,VWS V14.01,2013-02-16 13:28:00,
2013-02-16 08:29:00,29.5,19.9,29.75,West,277,0.0,0.0,67,0.00,,,0.00,70.00,VWS V14.01,2013-02-16 13:29:00,
2013-02-16 08:30:00,29.5,20.3,29.75,NW,322,0.0,0.0,68,0.00,,,0.00,69.00,VWS V14.01,2013-02-16 13:30:00,
2013-02-16 08:31:00,29.5,20.3,29.75,West,268,0.0,0.0,68,0.00,,,0.00,67.00,VWS V14.01,2013-02-16 13:31:00,
2013-02-16 08:32:00,29.5,20.3,29.75,WNW,292,0.0,0.0,68,0.00,,,0.00,65.00,VWS V14.01,2013-02-16 13:32:00,
2013-02-16 08:33:00,29.5,20.3,29.75,West,278,0.0,0.0,68,0.00,,,0.00,74.00,VWS V14.01,2013-02-16 13:33:00,
2013-02-16 08:34:00,29.5,20.3,29.75,West,265,0.0,0.0,68,0.00,,,0.00,63.00,VWS V14.01,2013-02-16 13:34:00,
2013-02-16 08:35:00,29.5,20.3,29.75,WNW,284,0.0,0.0,68,0.00,,,0.00,65.00,VWS V14.01,2013-02-16 13:35:00,
2013-02-16 08:36:00,29.5,20.3,29.75,WSW,248,0.0,0.0,68,0.00,,,0.00,65.00,VWS V14.01,2013-02-16 13:36:00,
2013-02-16 08:37:00,29.5,20.3,29.75,West,263,0.0,0.0,68,0.00,,,0.00,67.00,VWS V14.01,2013-02-16 13:37:00,
2013-02-16 08:38:00,29.5,20.3,29.75,West,270,0.0,0.0,68,0.00,,,0.00,63.00,VWS V14.01,2013-02-16 13:38:00,
2013-02-16 08:39:00,29.5,19.9,29.75,NW,309,0.0,0.0,67,0.00,,,0.00,70.00,VWS V14.01,2013-02-16 13:39:00,
2013-02-16 08:40:00,29.5,19.9,29.75,NW,311,0.0,0.0,67,0.00,,,0.00,70.00,VWS V14.01,2013-02-16 13:40:00,
2013-02-16 08:41:00,29.5,19.9,29.75,NW,311,0.0,0.0,67,0.00,,,0.00,72.00,VWS V14.01,2013-02-16 13:41:00,
2013-02-16 08:42:00,29.5,20.3,29.75,WNW,287,0.0,0.0,68,0.00,,,0.00,76.00,VWS V14.01,2013-02-16 13:42:00,
2013-02-16 08:43:00,29.5,19.9,29.75,WNW,296,0.0,0.0,67,0.00,,,0.00,69.00,VWS V14.01,2013-02-16 13:43:00,
2013-02-16 08:44:00,29.5,20.3,29.75,WNW,285,0.0,0.0,68,0.00,,,0.00,81.00,VWS V14.01,2013-02-16 13:44:00,
2013-02-16 08:45:00,29.5,19.9,29.75,WNW,295,0.0,0.0,67,0.00,,,0.00,84.00,VWS V14.01,2013-02-16 13:45:00,
2013-02-16 08:46:00,29.5,19.9,29.75,West,275,0.0,0.0,67,0.00,,,0.00,88.00,VWS V14.01,2013-02-16 13:46:00,
2013-02-16 08:47:00,29.5,19.9,29.75,West,264,0.0,0.0,67,0.00,,,0.00,93.00,VWS V14.01,2013-02-16 13:47:00,
2013-02-16 08:48:00,29.5,19.9,29.75,WNW,298,0.0,0.0,67,0.00,,,0.00,100.00,VWS V14.01,2013-02-16 13:48:00,
2013-02-16 08:49:00,29.5,20.3,29.75,WNW,285,0.0,0.0,68,0.00,,,0.00,81.00,VWS V14.01,2013-02-16 13:49:00,
2013-02-16 08:50:00,29.5,19.6,29.75,WNW,288,0.0,0.0,66,0.00,,,0.00,120.00,VWS V14.01,2013-02-16 13:50:00,
2013-02-16 08:51:00,29.5,19.6,29.75,NW,308,0.0,0.0,66,0.00,,,0.00,123.00,VWS V14.01,2013-02-16 13:51:00,
2013-02-16 08:52:00,29.5,19.9,29.75,West,278,0.0,0.0,67,0.00,,,0.00,125.00,VWS V14.01,2013-02-16 13:52:00,
2013-02-16 08:53:00,29.5,19.9,29.75,NW,312,0.0,0.0,67,0.00,,,0.00,127.00,VWS V14.01,2013-02-16 13:53:00,
2013-02-16 08:54:00,29.5,19.9,29.75,West,281,0.0,0.0,67,0.00,,,0.00,128.00,VWS V14.01,2013-02-16 13:54:00,
2013-02-16 08:55:00,29.5,19.6,29.75,WNW,288,0.0,0.0,66,0.00,,,0.00,120.00,VWS V14.01,2013-02-16 13:55:00,
2013-02-16 08:56:00,29.7,20.1,29.75,WNW,291,0.0,0.0,67,0.00,,,0.00,132.00,VWS V14.01,2013-02-16 13:56:00,
2013-02-16 08:57:00,29.7,19.8,29.75,NW,305,0.0,0.0,66,0.00,,,0.00,134.00,VWS V14.01,2013-02-16 13:57:00,
2013-02-16 08:58:00,29.7,19.8,29.75,WNW,302,0.0,0.0,66,0.00,,,0.00,137.00,VWS V14.01,2013-02-16 13:58:00,
2013-02-16 08:59:00,29.7,19.8,29.75,NW,323,0.0,0.0,66,0.00,,,0.00,141.00,VWS V14.01,2013-02-16 13:59:00,
2013-02-16 09:00:00,29.5,19.9,29.75,WNW,288,0.0,0.0,67,0.00,,,0.00,130.00,VWS V14.01,2013-02-16 14:00:00,
2013-02-16 09:01:00,29.7,19.8,29.74,WSW,258,0.0,0.0,66,0.00,,,0.00,143.00,VWS V14.01,2013-02-16 14:01:00,
2013-02-16 09:02:00,29.7,19.4,29.74,WNW,282,0.0,0.0,65,0.00,,,0.00,146.00,VWS V14.01,2013-02-16 14:02:00,
2013-02-16 09:03:00,29.7,19.4,29.74,NNW,335,0.0,0.0,65,0.00,,,0.00,148.00,VWS V14.01,2013-02-16 14:03:00,
2013-02-16 09:04:00,29.7,19.4,29.74,West,271,0.0,0.0,65,0.00,,,0.00,157.00,VWS V14.01,2013-02-16 14:04:00,
2013-02-16 09:05:00,29.7,19.0,29.74,WNW,296,0.0,0.0,64,0.00,,,0.00,160.00,VWS V14.01,2013-02-16 14:05:00,
2013-02-16 09:06:00,29.7,19.8,29.74,WSW,258,0.0,0.0,66,0.00,,,0.00,143.00,VWS V14.01,2013-02-16 14:06:00,
2013-02-16 09:07:00,29.7,19.0,29.74,NNW,335,0.0,0.0,64,0.00,,,0.00,171.00,VWS V14.01,2013-02-16 14:07:00,
2013-02-16 09:08:00,29.7,19.4,29.74,WNW,282,0.0,0.0,65,0.00,,,0.00,176.00,VWS V14.01,2013-02-16 14:08:00,
2013-02-16 09:09:00,29.7,19.0,29.74,WNW,285,0.0,0.0,64,0.00,,,0.00,179.00,VWS V14.01,2013-02-16 14:09:00,
2013-02-16 09:10:00,29.7,19.0,29.74,WNW,285,0.0,0.0,64,0.00,,,0.00,183.00,VWS V14.01,2013-02-16 14:10:00,
2013-02-16 09:11:00,29.7,19.0,29.74,NW,309,0.0,0.0,64,0.00,,,0.00,165.00,VWS V14.01,2013-02-16 14:11:00,
2013-02-16 09:12:00,29.7,19.0,29.74,WNW,284,0.0,0.0,64,0.00,,,0.00,181.00,VWS V14.01,2013-02-16 14:12:00,
2013-02-16 09:13:00,29.7,19.0,29.74,West,270,0.0,0.0,64,0.00,,,0.00,179.00,VWS V14.01,2013-02-16 14:13:00,
2013-02-16 09:14:00,29.7,19.0,29.74,NW,318,0.0,0.0,64,0.00,,,0.00,176.00,VWS V14.01,2013-02-16 14:14:00,
2013-02-16 09:15:00,29.7,19.0,29.74,West,263,0.0,0.0,64,0.00,,,0.00,176.00,VWS V14.01,2013-02-16 14:15:00,
2013-02-16 09:16:00,29.7,19.4,29.74,WSW,256,0.0,0.0,65,0.00,,,0.00,183.00,VWS V14.01,2013-02-16 14:16:00,
2013-02-16 09:17:00,29.7,19.0,29.74,WNW,292,0.0,0.0,64,0.00,,,0.00,174.00,VWS V14.01,2013-02-16 14:17:00,
2013-02-16 09:18:00,29.7,19.0,29.74,NW,326,0.0,0.0,64,0.00,,,0.00,174.00,VWS V14.01,2013-02-16 14:18:00,
2013-02-16 09:19:00,29.7,18.7,29.74,West,277,0.0,0.0,63,0.00,,,0.00,174.00,VWS V14.01,2013-02-16 14:19:00,
2013-02-16 09:20:00,29.8,19.1,29.74,WNW,292,0.0,0.0,64,0.00,,,0.00,174.00,VWS V14.01,2013-02-16 14:20:00,
2013-02-16 09:21:00,29.7,19.0,29.74,NW,316,0.0,0.0,64,0.00,,,0.00,174.00,VWS V14.01,2013-02-16 14:21:00,
2013-02-16 09:22:00,29.8,19.1,29.74,WNW,291,0.0,0.0,64,0.00,,,0.00,181.00,VWS V14.01,2013-02-16 14:22:00,
2013-02-16 09:23:00,29.8,19.1,29.74,WSW,246,0.0,0.0,64,0.00,,,0.00,190.00,VWS V14.01,2013-02-16 14:23:00,
2013-02-16 09:24:00,29.8,19.1,29.74,WSW,257,0.0,0.0,64,0.00,,,0.00,194.00,VWS V14.01,2013-02-16 14:24:00,
2013-02-16 09:25:00,29.8,19.1,29.74,West,264,0.0,0.0,64,0.00,,,0.00,195.00,VWS V14.01,2013-02-16 14:25:00,
2013-02-16 09:26:00,29.7,18.7,29.74,West,272,0.0,0.0,63,0.00,,,0.00,178.00,VWS V14.01,2013-02-16 14:26:00,
2013-02-16 09:27:00,29.8,18.8,29.74,WNW,289,0.0,0.0,63,0.00,,,0.00,201.00,VWS V14.01,2013-02-16 14:27:00,
2013-02-16 09:28:00,29.8,19.1,29.74,WNW,287,0.0,0.0,64,0.00,,,0.00,206.00,VWS V14.01,2013-02-16 14:28:00,
2013-02-16 09:29:00,29.8,19.1,29.74,West,280,0.0,0.0,64,0.00,,,0.00,208.00,VWS V14.01,2013-02-16 14:29:00,
2013-02-16 09:30:00,30.0,19.3,29.74,WNW,282,0.0,0.0,64,0.00,,,0.00,208.00,VWS V14.01,2013-02-16 14:30:00,
2013-02-16 09:31:00,29.8,18.8,29.74,WNW,289,0.0,0.0,63,0.00,,,0.00,197.00,VWS V14.01,2013-02-16 14:31:00,
2013-02-16 09:32:00,30.0,19.3,29.74,West,270,0.0,0.0,64,0.00,,,0.00,206.00,VWS V14.01,2013-02-16 14:32:00,
2013-02-16 09:33:00,30.1,19.4,29.74,West,271,0.0,0.0,64,0.00,,,0.00,204.00,VWS V14.01,2013-02-16 14:33:00,
2013-02-16 09:34:00,30.1,19.4,29.74,West,278,0.0,0.0,64,0.00,,,0.00,202.00,VWS V14.01,2013-02-16 14:34:00,
2013-02-16 09:35:00,30.1,19.4,29.74,West,277,0.0,0.0,64,0.00,,,0.00,201.00,VWS V14.01,2013-02-16 14:35:00,
2013-02-16 09:36:00,30.3,20.0,29.74,WSW,246,0.0,0.0,65,0.00,,,0.00,199.00,VWS V14.01,2013-02-16 14:36:00,
2013-02-16 09:37:00,30.0,19.3,29.74,West,270,0.0,0.0,64,0.00,,,0.00,206.00,VWS V14.01,2013-02-16 14:37:00,
2013-02-16 09:38:00,30.3,19.6,29.74,WSW,251,0.0,0.0,64,0.00,,,0.00,195.00,VWS V14.01,2013-02-16 14:38:00,
2013-02-16 09:39:00,30.3,19.6,29.74,WNW,284,0.0,0.0,64,0.00,,,0.00,188.00,VWS V14.01,2013-02-16 14:39:00,
2013-02-16 09:40:00,30.3,19.2,29.74,West,278,0.0,0.0,63,0.00,,,0.00,181.00,VWS V14.01,2013-02-16 14:40:00,
2013-02-16 09:41:00,30.3,19.2,29.74,West,275,0.0,0.0,63,0.00,,,0.00,174.00,VWS V14.01,2013-02-16 14:41:00,
2013-02-16 09:42:00,30.3,19.2,29.74,WNW,284,0.0,0.0,63,0.00,,,0.00,164.00,VWS V14.01,2013-02-16 14:42:00,
2013-02-16 09:43:00,30.3,19.6,29.74,WSW,251,0.0,0.0,64,0.00,,,0.00,195.00,VWS V14.01,2013-02-16 14:43:00,
2013-02-16 09:44:00,30.4,19.7,29.74,NW,311,0.0,0.0,64,0.00,,,0.00,144.00,VWS V14.01,2013-02-16 14:44:00,
2013-02-16 09:45:00,30.4,19.7,29.74,WSW,246,0.0,0.0,64,0.00,,,0.00,141.00,VWS V14.01,2013-02-16 14:45:00,
2013-02-16 09:46:00,30.4,19.7,29.74,West,274,0.0,0.0,64,0.00,,,0.00,141.00,VWS V14.01,2013-02-16 14:46:00,
2013-02-16 09:47:00,30.4,20.1,29.74,West,281,0.0,0.0,65,0.00,,,0.00,134.00,VWS V14.01,2013-02-16 14:47:00,
2013-02-16 09:48:00,30.3,19.6,29.74,NNW,335,0.0,0.0,64,0.00,,,0.00,151.00,VWS V14.01,2013-02-16 14:48:00,
2013-02-16 09:49:00,30.6,19.9,29.74,WSW,251,0.0,0.0,64,0.00,,,0.00,130.00,VWS V14.01,2013-02-16 14:49:00,
2013-02-16 09:50:00,30.6,19.9,29.74,WSW,247,0.0,0.0,64,0.00,,,0.00,130.00,VWS V14.01,2013-02-16 14:50:00,
2013-02-16 09:51:00,30.6,19.9,29.74,WSW,251,0.0,0.0,64,0.00,,,0.00,130.00,VWS V14.01,2013-02-16 14:51:00,
2013-02-16 09:52:00,30.4,19.3,29.74,West,274,0.0,0.0,63,0.00,,,0.00,132.00,VWS V14.01,2013-02-16 14:52:00,
2013-02-16 09:53:00,30.4,19.0,29.74,WNW,288,0.0,0.0,62,0.00,,,0.00,139.00,VWS V14.01,2013-02-16 14:53:00,
2013-02-16 09:54:00,30.6,19.9,29.74,WSW,251,0.0,0.0,64,0.00,,,0.00,130.00,VWS V14.01,2013-02-16 14:54:00,
2013-02-16 09:55:00,30.4,19.3,29.74,West,274,0.0,0.0,63,0.00,,,0.00,155.00,VWS V14.01,2013-02-16 14:55:00,
2013-02-16 09:56:00,30.4,19.3,29.74,West,281,0.0,0.0,63,0.00,,,0.00,162.00,VWS V14.01,2013-02-16 14:56:00,
2013-02-16 09:57:00,30.4,19.3,29.74,WSW,250,0.0,0.0,63,0.00,,,0.00,171.00,VWS V14.01,2013-02-16 14:57:00,
2013-02-16 09:58:00,30.4,19.0,29.74,WSW,253,0.0,0.0,62,0.00,,,0.00,192.00,VWS V14.01,2013-02-16 14:58:00,
2013-02-16 09:59:00,30.4,19.3,29.74,West,264,0.0,0.0,63,0.00,,,0.00,148.00,VWS V14.01,2013-02-16 14:59:00,
2013-02-16 10:00:00,30.3,18.9,29.74,West,263,0.0,0.0,62,0.00,,,0.00,209.00,VWS V14.01,2013-02-16 15:00:00,
2013-02-16 10:01:00,30.3,18.9,29.74,WSW,248,0.0,0.0,62,0.00,,,0.00,216.00,VWS V14.01,2013-02-16 15:01:00,
2013-02-16 10:02:00,30.3,18.9,29.74,WSW,250,0.0,0.0,62,0.00,,,0.00,222.00,VWS V14.01,2013-02-16 15:02:00,
2013-02-16 10:03:00,30.3,18.9,29.74,SW,232,0.0,0.0,62,0.00,,,0.00,216.00,VWS V14.01,2013-02-16 15:03:00,
2013-02-16 10:04:00,30.1,18.7,29.74,West,265,0.0,0.0,62,0.00,,,0.00,209.00,VWS V14.01,2013-02-16 15:04:00,
2013-02-16 10:05:00,30.3,18.9,29.74,West,263,0.0,0.0,62,0.00,,,0.00,209.00,VWS V14.01,2013-02-16 15:05:00,
2013-02-16 10:06:00,30.1,19.0,29.74,West,261,0.0,0.0,63,0.00,,,0.00,192.00,VWS V14.01,2013-02-16 15:06:00,
2013-02-16 10:08:00,30.1,19.0,29.74,WSW,257,0.0,0.0,63,0.00,,,0.00,174.00,VWS V14.01,2013-02-16 15:08:00,
2013-02-16 10:09:00,30.1,19.0,29.74,West,268,0.0,0.0,63,0.00,,,0.00,169.00,VWS V14.01,2013-02-16 15:09:00,
2013-02-16 10:10:00,30.1,18.7,29.74,West,267,0.0,0.0,62,0.00,,,0.00,164.00,VWS V14.01,2013-02-16 15:10:00,
2013-02-16 10:11:00,30.1,19.0,29.74,West,261,0.0,0.0,63,0.00,,,0.00,192.00,VWS V14.01,2013-02-16 15:11:00,
2013-02-16 10:12:00,30.1,19.0,29.74,West,261,0.0,0.0,63,0.00,,,0.00,155.00,VWS V14.01,2013-02-16 15:12:00,
2013-02-16 10:13:00,30.1,19.0,29.74,WSW,244,0.0,0.0,63,0.00,,,0.00,148.00,VWS V14.01,2013-02-16 15:13:00,
2013-02-16 10:14:00,30.1,19.0,29.74,WSW,257,0.0,0.0,63,0.00,,,0.00,141.00,VWS V14.01,2013-02-16 15:14:00,
2013-02-16 10:15:00,30.1,19.4,29.74,West,261,0.0,0.0,64,0.00,,,0.00,137.00,VWS V14.01,2013-02-16 15:15:00,
2013-02-16 10:16:00,30.1,19.0,29.74,West,260,0.0,0.0,63,0.00,,,0.00,158.00,VWS V14.01,2013-02-16 15:16:00,
2013-02-16 10:17:00,30.0,19.0,29.74,West,278,0.0,0.0,63,0.00,,,0.00,139.00,VWS V14.01,2013-02-16 15:17:00,
2013-02-16 10:18:00,30.0,19.0,29.74,WSW,243,0.0,0.0,63,0.00,,,0.00,143.00,VWS V14.01,2013-02-16 15:18:00,
2013-02-16 10:19:00,30.0,19.3,29.74,West,275,0.0,0.0,64,0.00,,,0.00,150.00,VWS V14.01,2013-02-16 15:19:00,
2013-02-16 10:20:00,30.0,19.0,29.74,West,264,0.0,0.0,63,0.00,,,0.00,151.00,VWS V14.01,2013-02-16 15:20:00,
2013-02-16 10:21:00,30.0,19.0,29.74,WNW,294,0.0,0.0,63,0.00,,,0.00,151.00,VWS V14.01,2013-02-16 15:21:00,
2013-02-16 10:22:00,30.0,19.0,29.74,West,278,0.0,0.0,63,0.00,,,0.00,139.00,VWS V14.01,2013-02-16 15:22:00,
2013-02-16 10:23:00,29.8,18.8,29.74,WNW,292,0.0,0.0,63,0.00,,,0.00,146.00,VWS V14.01,2013-02-16 15:23:00,
2013-02-16 10:24:00,29.8,19.1,29.74,WSW,246,0.0,0.0,64,0.00,,,0.00,146.00,VWS V14.01,2013-02-16 15:24:00,
2013-02-16 10:25:00,30.0,19.3,29.74,WSW,250,0.0,0.0,64,0.00,,,0.00,146.00,VWS V14.01,2013-02-16 15:25:00,
2013-02-16 10:26:00,29.8,19.1,29.74,West,265,0.0,0.0,64,0.00,,,0.00,148.00,VWS V14.01,2013-02-16 15:26:00,
2013-02-16 10:27:00,29.8,18.8,29.74,West,277,0.0,0.0,63,0.00,,,0.00,151.00,VWS V14.01,2013-02-16 15:27:00,
2013-02-16 10:28:00,29.8,18.8,29.74,WNW,292,0.0,0.0,63,0.00,,,0.00,146.00,VWS V14.01,2013-02-16 15:28:00,
2013-02-16 10:29:00,29.8,19.1,29.74,WNW,282,0.0,0.0,64,0.00,,,0.00,167.00,VWS V14.01,2013-02-16 15:29:00,
2013-02-16 10:30:00,29.8,19.1,29.73,West,274,0.0,0.0,64,0.00,,,0.00,167.00,VWS V14.01,2013-02-16 15:30:00,
2013-02-16 10:31:00,29.8,19.1,29.73,WNW,292,0.0,0.0,64,0.00,,,0.00,164.00,VWS V14.01,2013-02-16 15:31:00,
2013-02-16 10:32:00,29.8,19.1,29.73,West,274,0.0,0.0,64,0.00,,,0.00,160.00,VWS V14.01,2013-02-16 15:32:00,
2013-02-16 10:33:00,29.8,19.1,29.74,WNW,292,0.0,0.0,64,0.00,,,0.00,164.00,VWS V14.01,2013-02-16 15:33:00,
2013-02-16 10:34:00,29.8,19.1,29.73,WSW,239,0.0,0.0,64,0.00,,,0.00,143.00,VWS V14.01,2013-02-16 15:34:00,
2013-02-16 10:35:00,29.8,19.1,29.73,WNW,284,0.0,0.0,64,0.00,,,0.00,143.00,VWS V14.01,2013-02-16 15:35:00,
2013-02-16 10:36:00,29.8,19.1,29.73,West,277,0.0,0.0,64,0.00,,,0.00,132.00,VWS V14.01,2013-02-16 15:36:00,
2013-02-16 10:37:00,29.7,19.0,29.73,West,270,0.0,0.0,64,0.00,,,0.00,128.00,VWS V14.01,2013-02-16 15:37:00,
2013-02-16 10:38:00,29.7,19.0,29.73,SW,232,0.0,0.0,64,0.00,,,0.00,128.00,VWS V14.01,2013-02-16 15:38:00,
2013-02-16 10:39:00,29.8,19.1,29.73,WSW,239,0.0,0.0,64,0.00,,,0.00,143.00,VWS V14.01,2013-02-16 15:39:00,
2013-02-16 10:40:00,29.5,19.2,29.73,NW,308,0.0,0.0,65,0.00,,,0.00,127.00,VWS V14.01,2013-02-16 15:40:00,
2013-02-16 10:41:00,29.5,19.2,29.73,NW,309,0.0,0.0,65,0.00,,,0.00,128.00,VWS V14.01,2013-02-16 15:41:00,
2013-02-16 10:42:00,29.5,19.6,29.73,West,281,0.0,0.0,66,0.00,,,0.00,128.00,VWS V14.01,2013-02-16 15:42:00,
2013-02-16 10:43:00,29.5,19.6,29.73,WNW,284,0.0,0.0,66,0.00,,,0.00,134.00,VWS V14.01,2013-02-16 15:43:00,
2013-02-16 10:44:00,29.5,19.6,29.73,West,278,0.0,0.0,66,0.00,,,0.00,135.00,VWS V14.01,2013-02-16 15:44:00,
2013-02-16 10:45:00,29.5,19.2,29.73,NW,308,0.0,0.0,65,0.00,,,0.00,127.00,VWS V14.01,2013-02-16 15:45:00,
2013-02-16 10:46:00,29.5,19.6,29.73,West,281,0.0,0.0,66,0.00,,,0.00,144.00,VWS V14.01,2013-02-16 15:46:00,
2013-02-16 10:47:00,29.5,19.6,29.73,WNW,285,0.0,0.0,66,0.00,,,0.00,151.00,VWS V14.01,2013-02-16 15:47:00,
2013-02-16 10:48:00,29.4,19.8,29.73,WNW,294,0.0,0.0,67,0.00,,,0.00,162.00,VWS V14.01,2013-02-16 15:48:00,
2013-02-16 10:49:00,29.4,19.8,29.73,WNW,287,0.0,0.0,67,0.00,,,0.00,185.00,VWS V14.01,2013-02-16 15:49:00,
2013-02-16 10:50:00,29.5,19.6,29.73,WNW,288,0.0,0.0,66,0.00,,,0.00,139.00,VWS V14.01,2013-02-16 15:50:00,
2013-02-16 10:51:00,29.4,20.2,29.73,WNW,287,0.0,0.0,68,0.00,,,0.00,190.00,VWS V14.01,2013-02-16 15:51:00,
2013-02-16 10:52:00,29.4,19.8,29.73,West,280,0.0,0.0,67,0.00,,,0.00,188.00,VWS V14.01,2013-02-16 15:52:00,
2013-02-16 10:53:00,29.4,19.8,29.73,West,260,0.0,0.0,67,0.00,,,0.00,194.00,VWS V14.01,2013-02-16 15:53:00,
2013-02-16 10:54:00,29.4,19.8,29.73,WSW,239,0.0,0.0,67,0.00,,,0.00,197.00,VWS V14.01,2013-02-16 15:54:00,
2013-02-16 10:55:00,29.4,19.8,29.73,West,271,0.0,0.0,67,0.00,,,0.00,197.00,VWS V14.01,2013-02-16 15:55:00,
2013-02-16 10:56:00,29.4,20.2,29.73,WNW,287,0.0,0.0,68,0.00,,,0.00,190.00,VWS V14.01,2013-02-16 15:56:00,
2013-02-16 10:57:00,29.4,20.2,29.73,WSW,248,0.0,0.0,68,0.00,,,0.00,194.00,VWS V14.01,2013-02-16 15:57:00,
2013-02-16 10:58:00,29.4,20.2,29.73,West,280,0.0,0.0,68,0.00,,,0.00,194.00,VWS V14.01,2013-02-16 15:58:00,
2013-02-16 10:59:00,29.5,20.3,29.73,WSW,254,0.0,0.0,68,0.00,,,0.00,195.00,VWS V14.01,2013-02-16 15:59:00,
2013-02-16 11:00:00,29.5,20.3,29.73,West,274,0.0,0.0,68,0.00,,,0.00,192.00,VWS V14.01,2013-02-16 16:00:00,
2013-02-16 11:01:00,29.4,19.8,29.73,West,268,0.0,0.0,67,0.00,,,0.00,194.00,VWS V14.01,2013-02-16 16:01:00,
2013-02-16 11:02:00,29.5,19.9,29.73,West,271,0.0,0.0,67,0.00,,,0.00,194.00,VWS V14.01,2013-02-16 16:02:00,
2013-02-16 11:03:00,29.5,19.6,29.73,West,261,0.0,0.0,66,0.00,,,0.00,213.00,VWS V14.01,2013-02-16 16:03:00,
2013-02-16 11:04:00,29.5,19.6,29.73,West,275,0.0,0.0,66,0.00,,,0.00,215.00,VWS V14.01,2013-02-16 16:04:00,
2013-02-16 11:05:00,29.5,19.6,29.73,West,274,0.0,0.0,66,0.00,,,0.00,204.00,VWS V14.01,2013-02-16 16:05:00,
2013-02-16 11:06:00,29.5,20.3,29.73,West,261,0.0,0.0,68,0.00,,,0.00,190.00,VWS V14.01,2013-02-16 16:06:00,
2013-02-16 11:07:00,29.7,19.8,29.73,West,263,0.0,0.0,66,0.00,,,0.00,194.00,VWS V14.01,2013-02-16 16:07:00,
2013-02-16 11:08:00,29.7,19.8,29.73,WNW,287,0.0,0.0,66,0.00,,,0.00,174.00,VWS V14.01,2013-02-16 16:08:00,
2013-02-16 11:09:00,29.7,19.8,29.73,WNW,296,0.0,0.0,66,0.00,,,0.00,174.00,VWS V14.01,2013-02-16 16:09:00,
2013-02-16 11:10:00,29.7,19.8,29.73,WSW,247,0.0,0.0,66,0.00,,,0.00,178.00,VWS V14.01,2013-02-16 16:10:00,
2013-02-16 11:11:00,29.5,19.6,29.73,WSW,247,0.0,0.0,66,0.00,,,0.00,194.00,VWS V14.01,2013-02-16 16:11:00,
2013-02-16 11:12:00,29.7,19.8,29.73,WNW,282,0.0,0.0,66,0.00,,,0.00,172.00,VWS V14.01,2013-02-16 16:12:00,
2013-02-16 11:13:00,29.8,19.5,29.73,SW,232,0.0,0.0,65,0.00,,,0.00,148.00,VWS V14.01,2013-02-16 16:13:00,
2013-02-16 11:14:00,29.8,19.5,29.73,WSW,254,0.0,0.0,65,0.00,,,0.00,139.00,VWS V14.01,2013-02-16 16:14:00,
2013-02-16 11:15:00,29.7,19.4,29.73,WSW,253,0.0,0.0,65,0.00,,,0.00,134.00,VWS V14.01,2013-02-16 16:15:00,
2013-02-16 11:16:00,29.7,19.4,29.73,West,264,0.0,0.0,65,0.00,,,0.00,135.00,VWS V14.01,2013-02-16 16:16:00,
2013-02-16 11:17:00,29.7,19.8,29.73,WNW,282,0.0,0.0,66,0.00,,,0.00,172.00,VWS V14.01,2013-02-16 16:17:00,
2013-02-16 11:18:00,29.7,19.4,29.73,West,267,0.0,0.0,65,0.00,,,0.00,143.00,VWS V14.01,2013-02-16 16:18:00,
2013-02-16 11:19:00,29.7,19.8,29.73,NW,305,0.0,0.0,66,0.00,,,0.00,153.00,VWS V14.01,2013-02-16 16:19:00,
2013-02-16 11:20:00,29.7,19.8,29.73,WNW,285,0.0,0.0,66,0.00,,,0.00,167.00,VWS V14.01,2013-02-16 16:20:00,
2013-02-16 11:21:00,29.7,19.8,29.73,WNW,292,0.0,0.0,66,0.00,,,0.00,188.00,VWS V14.01,2013-02-16 16:21:00,
2013-02-16 11:22:00,29.7,19.4,29.73,WSW,257,0.0,0.0,65,0.00,,,0.00,139.00,VWS V14.01,2013-02-16 16:22:00,
2013-02-16 11:23:00,29.5,19.6,29.73,West,271,0.0,0.0,66,0.00,,,0.00,225.00,VWS V14.01,2013-02-16 16:23:00,
2013-02-16 11:24:00,29.5,19.6,29.73,West,274,0.0,0.0,66,0.00,,,0.00,201.00,VWS V14.01,2013-02-16 16:24:00,
2013-02-16 11:25:00,29.5,19.9,29.73,NNW,332,0.0,0.0,67,0.00,,,0.00,201.00,VWS V14.01,2013-02-16 16:25:00,
2013-02-16 11:26:00,29.5,19.9,29.73,West,275,0.0,0.0,67,0.00,,,0.00,194.00,VWS V14.01,2013-02-16 16:26:00,
2013-02-16 11:27:00,29.5,20.3,29.73,West,272,0.0,0.0,68,0.00,,,0.00,188.00,VWS V14.01,2013-02-16 16:27:00,
2013-02-16 11:28:00,29.5,19.6,29.73,West,271,0.0,0.0,66,0.00,,,0.00,225.00,VWS V14.01,2013-02-16 16:28:00,
2013-02-16 11:29:00,29.5,20.3,29.73,NW,308,0.0,0.0,68,0.00,,,0.00,176.00,VWS V14.01,2013-02-16 16:29:00,
2013-02-16 11:30:00,29.5,20.3,29.73,West,264,0.0,0.0,68,0.00,,,0.00,174.00,VWS V14.01,2013-02-16 16:30:00,
2013-02-16 11:31:00,29.5,20.3,29.73,West,280,0.0,0.0,68,0.00,,,0.00,172.00,VWS V14.01,2013-02-16 16:31:00,
2013-02-16 11:32:00,29.4,20.2,29.73,West,267,0.0,0.0,68,0.00,,,0.00,172.00,VWS V14.01,2013-02-16 16:32:00,
2013-02-16 11:33:00,29.5,20.3,29.73,SW,229,0.0,0.0,68,0.00,,,0.00,181.00,VWS V14.01,2013-02-16 16:33:00,
2013-02-16 11:34:00,29.3,20.4,29.73,SW,219,0.0,0.0,69,0.00,,,0.00,164.00,VWS V14.01,2013-02-16 16:34:00,
2013-02-16 11:35:00,29.3,20.4,29.73,West,271,0.0,0.0,69,0.00,,,0.00,162.00,VWS V14.01,2013-02-16 16:35:00,
2013-02-16 11:36:00,29.3,20.8,29.73,SW,236,0.0,0.0,70,0.00,,,0.00,162.00,VWS V14.01,2013-02-16 16:36:00,
2013-02-16 11:37:00,29.3,20.8,29.73,West,261,0.0,0.0,70,0.00,,,0.00,153.00,VWS V14.01,2013-02-16 16:37:00,
2013-02-16 11:38:00,29.4,20.5,29.73,West,277,0.0,0.0,69,0.00,,,0.00,167.00,VWS V14.01,2013-02-16 16:38:00,
2013-02-16 11:39:00,29.0,20.5,29.73,West,271,0.0,0.0,70,0.00,,,0.00,146.00,VWS V14.01,2013-02-16 16:39:00,
2013-02-16 11:40:00,29.0,20.5,29.73,SW,234,0.0,0.0,70,0.00,,,0.00,146.00,VWS V14.01,2013-02-16 16:40:00,
2013-02-16 11:41:00,28.8,20.3,29.73,WSW,246,0.0,0.0,70,0.00,,,0.00,150.00,VWS V14.01,2013-02-16 16:41:00,
2013-02-16 11:42:00,28.8,20.3,29.73,WSW,256,0.0,0.0,70,0.00,,,0.00,150.00,VWS V14.01,2013-02-16 16:42:00,
2013-02-16 11:43:00,29.1,20.5,29.73,West,263,0.0,0.0,70,0.00,,,0.00,151.00,VWS V14.01,2013-02-16 16:43:00,
2013-02-16 11:44:00,28.7,20.2,29.73,West,277,0.0,0.0,70,0.00,,,0.00,174.00,VWS V14.01,2013-02-16 16:44:00,
2013-02-16 11:45:00,28.7,20.2,29.72,West,267,0.0,0.0,70,0.00,,,0.00,179.00,VWS V14.01,2013-02-16 16:45:00,
2013-02-16 11:46:00,28.7,20.2,29.72,West,267,0.0,0.0,70,0.00,,,0.00,188.00,VWS V14.01,2013-02-16 16:46:00,
2013-02-16 11:47:00,28.7,20.2,29.72,West,264,0.0,0.0,70,0.00,,,0.00,215.00,VWS V14.01,2013-02-16 16:47:00,
2013-02-16 11:48:00,28.7,20.2,29.72,WNW,301,0.0,0.0,70,0.00,,,0.00,238.00,VWS V14.01,2013-02-16 16:48:00,
2013-02-16 11:49:00,28.7,20.2,29.73,West,277,0.0,0.0,70,0.00,,,0.00,174.00,VWS V14.01,2013-02-16 16:49:00,
2013-02-16 11:50:00,28.7,20.2,29.72,West,265,0.0,0.0,70,0.00,,,0.00,317.00,VWS V14.01,2013-02-16 16:50:00,
2013-02-16 11:51:00,28.7,20.2,29.72,NW,308,0.0,0.0,70,0.00,,,0.00,292.00,VWS V14.01,2013-02-16 16:51:00,
2013-02-16 11:52:00,28.8,20.6,29.72,NW,326,0.0,0.0,71,0.00,,,0.00,259.00,VWS V14.01,2013-02-16 16:52:00,
2013-02-16 11:53:00,29.0,20.5,29.72,West,270,0.0,0.0,70,0.00,,,0.00,245.00,VWS V14.01,2013-02-16 16:53:00,
2013-02-16 11:54:00,28.7,20.2,29.72,West,263,0.0,0.0,70,0.00,,,0.00,276.00,VWS V14.01,2013-02-16 16:54:00,
2013-02-16 11:55:00,29.0,20.1,29.72,West,265,0.0,0.0,69,0.00,,,0.00,264.00,VWS V14.01,2013-02-16 16:55:00,
2013-02-16 11:56:00,29.1,19.9,29.72,SE,136,0.0,0.0,68,0.00,,,0.00,269.00,VWS V14.01,2013-02-16 16:56:00,
2013-02-16 11:57:00,29.1,19.9,29.72,West,281,0.0,0.0,68,0.00,,,0.00,276.00,VWS V14.01,2013-02-16 16:57:00,
2013-02-16 11:58:00,29.1,19.5,29.72,WNW,285,0.0,0.0,67,0.00,,,0.00,278.00,VWS V14.01,2013-02-16 16:58:00,
2013-02-16 11:59:00,29.0,20.5,29.72,West,272,0.0,0.0,70,0.00,,,0.00,252.00,VWS V14.01,2013-02-16 16:59:00,
2013-02-16 12:00:00,29.1,19.5,29.72,West,265,0.0,0.0,67,0.00,,,0.00,239.00,VWS V14.01,2013-02-16 17:00:00,
2013-02-16 12:01:00,29.1,19.5,29.72,WSW,256,0.0,0.0,67,0.00,,,0.00,218.00,VWS V14.01,2013-02-16 17:01:00,
2013-02-16 12:02:00,29.1,19.2,29.72,WSW,258,0.0,0.0,66,0.00,,,0.00,209.00,VWS V14.01,2013-02-16 17:02:00,
2013-02-16 12:03:00,29.1,19.2,29.72,West,267,0.0,0.0,66,0.00,,,0.00,209.00,VWS V14.01,2013-02-16 17:03:00,
2013-02-16 12:04:00,29.1,19.5,29.72,WNW,298,0.0,0.0,67,0.00,,,0.00,267.00,VWS V14.01,2013-02-16 17:04:00,
2013-02-16 12:05:00,29.1,18.8,29.72,West,275,0.0,0.0,65,0.00,,,0.00,223.00,VWS V14.01,2013-02-16 17:05:00,
2013-02-16 12:06:00,29.1,18.8,29.72,WSW,258,0.0,0.0,65,0.00,,,0.00,222.00,VWS V14.01,2013-02-16 17:06:00,
2013-02-16 12:07:00,29.1,18.8,29.72,West,274,0.0,0.0,65,0.00,,,0.00,215.00,VWS V14.01,2013-02-16 17:07:00,
2013-02-16 12:08:00,29.3,19.0,29.72,West,275,0.0,0.0,65,0.00,,,0.00,208.00,VWS V14.01,2013-02-16 17:08:00,
2013-02-16 12:09:00,29.1,18.8,29.72,West,260,0.0,0.0,65,0.00,,,0.00,220.00,VWS V14.01,2013-02-16 17:09:00,
2013-02-16 12:10:00,29.3,19.0,29.72,West,263,0.0,0.0,65,0.00,,,0.00,201.00,VWS V14.01,2013-02-16 17:10:00,
2013-02-16 12:11:00,29.4,19.1,29.72,WNW,284,0.0,0.0,65,0.00,,,0.00,204.00,VWS V14.01,2013-02-16 17:11:00,
2013-02-16 12:12:00,29.4,19.1,29.72,West,264,0.0,0.0,65,0.00,,,0.00,215.00,VWS V14.01,2013-02-16 17:12:00,
2013-02-16 12:13:00,29.4,18.7,29.72,West,263,0.0,0.0,64,0.00,,,0.00,245.00,VWS V14.01,2013-02-16 17:13:00,
2013-02-16 12:14:00,29.4,19.1,29.72,West,272,0.0,0.0,65,0.00,,,0.00,257.00,VWS V14.01,2013-02-16 17:14:00,
2013-02-16 12:15:00,29.3,19.0,29.72,West,263,0.0,0.0,65,0.00,,,0.00,201.00,VWS V14.01,2013-02-16 17:15:00,
2013-02-16 12:16:00,29.4,18.4,29.72,West,278,0.0,0.0,63,0.00,,,0.00,223.00,VWS V14.01,2013-02-16 17:16:00,
2013-02-16 12:17:00,29.4,18.4,29.72,West,270,0.0,0.0,63,0.00,,,0.00,218.00,VWS V14.01,2013-02-16 17:17:00,
2013-02-16 12:18:00,29.4,18.4,29.72,West,263,0.0,0.0,63,0.00,,,0.00,211.00,VWS V14.01,2013-02-16 17:18:00,
2013-02-16 12:19:00,29.4,18.0,29.72,SW,236,0.0,0.0,62,0.00,,,0.00,192.00,VWS V14.01,2013-02-16 17:19:00,
2013-02-16 12:20:00,29.4,18.7,29.72,WSW,250,0.0,0.0,64,0.00,,,0.00,236.00,VWS V14.01,2013-02-16 17:20:00,
2013-02-16 12:21:00,29.5,18.1,29.72,WSW,256,0.0,0.0,62,0.00,,,0.00,176.00,VWS V14.01,2013-02-16 17:21:00,
2013-02-16 12:22:00,29.5,18.5,29.72,West,274,0.0,0.0,63,0.00,,,0.00,167.00,VWS V14.01,2013-02-16 17:22:00,
2013-02-16 12:23:00,29.5,18.1,29.72,West,274,0.0,0.0,62,0.00,,,0.00,157.00,VWS V14.01,2013-02-16 17:23:00,
2013-02-16 12:24:00,29.5,18.1,29.72,West,267,0.0,0.0,62,0.00,,,0.00,150.00,VWS V14.01,2013-02-16 17:24:00,
2013-02-16 12:25:00,29.4,18.0,29.72,West,261,0.0,0.0,62,0.00,,,0.00,192.00,VWS V14.01,2013-02-16 17:25:00,
2013-02-16 12:26:00,29.5,18.1,29.72,NW,323,0.0,0.0,62,0.00,,,0.00,144.00,VWS V14.01,2013-02-16 17:26:00,
2013-02-16 12:27:00,29.5,18.1,29.72,WNW,284,0.0,0.0,62,0.00,,,0.00,146.00,VWS V14.01,2013-02-16 17:27:00,
2013-02-16 12:28:00,29.5,18.1,29.72,NW,325,0.0,0.0,62,0.00,,,0.00,171.00,VWS V14.01,2013-02-16 17:28:00,
2013-02-16 12:29:00,29.7,18.7,29.72,WNW,292,0.0,0.0,63,0.00,,,0.00,187.00,VWS V14.01,2013-02-16 17:29:00,
2013-02-16 12:30:00,29.5,18.1,29.70,West,278,0.0,0.0,62,0.00,,,0.00,206.00,VWS V14.01,2013-02-16 17:30:00,
2013-02-16 12:31:00,29.5,18.1,29.72,NW,323,0.0,0.0,62,0.00,,,0.00,144.00,VWS V14.01,2013-02-16 17:31:00,
2013-02-16 12:32:00,29.5,18.1,29.70,NW,304,0.0,0.0,62,0.00,,,0.00,259.00,VWS V14.01,2013-02-16 17:32:00,
2013-02-16 12:33:00,29.5,18.1,29.70,WNW,291,0.0,0.0,62,0.00,,,0.00,282.00,VWS V14.01,2013-02-16 17:33:00,
2013-02-16 12:34:00,29.5,18.1,29.70,WNW,285,0.0,0.0,62,0.00,,,0.00,255.00,VWS V14.01,2013-02-16 17:34:00,
2013-02-16 12:35:00,29.7,18.7,29.70,West,270,0.0,0.0,63,0.00,,,0.00,245.00,VWS V14.01,2013-02-16 17:35:00,
2013-02-16 12:36:00,29.5,18.1,29.70,WNW,285,0.0,0.0,62,0.00,,,0.00,227.00,VWS V14.01,2013-02-16 17:36:00,
2013-02-16 12:37:00,29.8,18.8,29.70,NW,311,0.0,0.0,63,0.00,,,0.00,278.00,VWS V14.01,2013-02-16 17:37:00,
2013-02-16 12:38:00,30.0,19.0,29.70,WNW,294,0.0,0.0,63,0.00,,,0.00,209.00,VWS V14.01,2013-02-16 17:38:00,
2013-02-16 12:39:00,30.0,19.0,29.70,WNW,291,0.0,0.0,63,0.00,,,0.00,172.00,VWS V14.01,2013-02-16 17:39:00,
2013-02-16 12:40:00,30.1,19.0,29.70,West,277,0.0,0.0,63,0.00,,,0.00,139.00,VWS V14.01,2013-02-16 17:40:00,
2013-02-16 12:41:00,29.7,18.7,29.70,NNW,330,0.0,0.0,63,0.00,,,0.00,276.00,VWS V14.01,2013-02-16 17:41:00,
2013-02-16 12:42:00,30.0,18.2,29.70,West,275,0.0,0.0,61,0.00,,,0.00,130.00,VWS V14.01,2013-02-16 17:42:00,
2013-02-16 12:43:00,30.0,18.2,29.70,WNW,287,0.0,0.0,61,0.00,,,0.00,135.00,VWS V14.01,2013-02-16 17:43:00,
2013-02-16 12:44:00,29.8,18.0,29.70,WSW,257,0.0,0.0,61,0.00,,,0.00,135.00,VWS V14.01,2013-02-16 17:44:00,
2013-02-16 12:45:00,29.8,17.6,29.70,West,275,0.0,0.0,60,0.00,,,0.00,128.00,VWS V14.01,2013-02-16 17:45:00,
2013-02-16 12:46:00,29.8,17.6,29.70,SSW,206,0.0,0.0,60,0.00,,,0.00,118.00,VWS V14.01,2013-02-16 17:46:00,
2013-02-16 12:47:00,30.0,18.2,29.70,West,275,0.0,0.0,61,0.00,,,0.00,130.00,VWS V14.01,2013-02-16 17:47:00,
2013-02-16 12:48:00,29.8,18.0,29.70,West,265,0.0,0.0,61,0.00,,,0.00,88.00,VWS V14.01,2013-02-16 17:48:00,
2013-02-16 12:49:00,29.8,18.0,29.70,SSW,205,0.0,0.0,61,0.00,,,0.00,81.00,VWS V14.01,2013-02-16 17:49:00,
2013-02-16 12:50:00,29.8,18.0,29.70,WSW,250,0.0,0.0,61,0.00,,,0.00,76.00,VWS V14.01,2013-02-16 17:50:00,
2013-02-16 12:51:00,29.8,18.0,29.70,WSW,253,0.0,0.0,61,0.00,,,0.00,76.00,VWS V14.01,2013-02-16 17:51:00,
2013-02-16 12:52:00,29.8,18.0,29.70,WSW,250,0.0,0.0,61,0.00,,,0.00,118.00,VWS V14.01,2013-02-16 17:52:00,
2013-02-16 12:53:00,29.7,17.9,29.70,WNW,287,0.0,0.0,61,0.00,,,0.00,84.00,VWS V14.01,2013-02-16 17:53:00,
2013-02-16 12:54:00,29.7,17.9,29.70,WNW,287,0.0,0.0,61,0.00,,,0.00,86.00,VWS V14.01,2013-02-16 17:54:00,
2013-02-16 12:55:00,29.7,17.9,29.70,West,261,0.0,0.0,61,0.00,,,0.00,88.00,VWS V14.01,2013-02-16 17:55:00,
2013-02-16 12:56:00,29.7,17.9,29.70,WSW,237,0.0,0.0,61,0.00,,,0.00,86.00,VWS V14.01,2013-02-16 17:56:00,
2013-02-16 12:57:00,29.8,18.0,29.70,West,267,0.0,0.0,61,0.00,,,0.00,77.00,VWS V14.01,2013-02-16 17:57:00,
2013-02-16 12:58:00,29.5,17.7,29.70,WNW,291,0.0,0.0,61,0.00,,,0.00,83.00,VWS V14.01,2013-02-16 17:58:00,
2013-02-16 12:59:00,29.4,17.6,29.70,WNW,284,0.0,0.0,61,0.00,,,0.00,84.00,VWS V14.01,2013-02-16 17:59:00,
2013-02-16 13:00:00,29.4,17.6,29.70,WNW,284,0.0,0.0,61,0.00,,,0.00,91.00,VWS V14.01,2013-02-16 18:00:00,
2013-02-16 13:01:00,29.4,18.0,29.70,West,270,0.0,0.0,62,0.00,,,0.00,100.00,VWS V14.01,2013-02-16 18:01:00,
2013-02-16 13:02:00,29.3,17.9,29.70,West,265,0.0,0.0,62,0.00,,,0.00,111.00,VWS V14.01,2013-02-16 18:02:00,
2013-02-16 13:03:00,29.5,17.7,29.70,WNW,291,0.0,0.0,61,0.00,,,0.00,83.00,VWS V14.01,2013-02-16 18:03:00,
2013-02-16 13:04:00,29.3,17.9,29.70,WNW,299,0.0,0.0,62,0.00,,,0.00,120.00,VWS V14.01,2013-02-16 18:04:00,
2013-02-16 13:05:00,29.3,18.3,29.70,West,278,0.0,0.0,63,0.00,,,0.00,123.00,VWS V14.01,2013-02-16 18:05:00,
2013-02-16 13:06:00,29.3,18.3,29.70,West,271,0.0,0.0,63,0.00,,,0.00,125.00,VWS V14.01,2013-02-16 18:06:00,
2013-02-16 13:07:00,29.3,18.3,29.70,WSW,256,0.0,0.0,63,0.00,,,0.00,125.00,VWS V14.01,2013-02-16 18:07:00,
2013-02-16 13:08:00,29.3,17.9,29.70,West,268,0.0,0.0,62,0.00,,,0.00,118.00,VWS V14.01,2013-02-16 18:08:00,
2013-02-16 13:09:00,29.3,17.9,29.70,West,271,0.0,0.0,62,0.00,,,0.00,123.00,VWS V14.01,2013-02-16 18:09:00,
2013-02-16 13:10:00,29.3,17.9,29.70,WNW,292,0.0,0.0,62,0.00,,,0.00,125.00,VWS V14.01,2013-02-16 18:10:00,
2013-02-16 13:11:00,29.1,17.7,29.70,WNW,299,0.0,0.0,62,0.00,,,0.00,123.00,VWS V14.01,2013-02-16 18:11:00,
2013-02-16 13:12:00,29.1,17.7,29.70,West,271,0.0,0.0,62,0.00,,,0.00,123.00,VWS V14.01,2013-02-16 18:12:00,
2013-02-16 13:13:00,29.3,17.9,29.70,WNW,288,0.0,0.0,62,0.00,,,0.00,127.00,VWS V14.01,2013-02-16 18:13:00,
2013-02-16 13:14:00,29.3,17.9,29.70,West,271,0.0,0.0,62,0.00,,,0.00,123.00,VWS V14.01,2013-02-16 18:14:00,
2013-02-16 13:15:00,29.3,17.9,29.69,WSW,248,0.0,0.0,62,0.00,,,0.00,130.00,VWS V14.01,2013-02-16 18:15:00,
2013-02-16 13:16:00,29.1,17.7,29.69,WNW,296,0.0,0.0,62,0.00,,,0.00,130.00,VWS V14.01,2013-02-16 18:16:00,
2013-02-16 13:17:00,29.1,17.3,29.69,WNW,288,0.0,0.0,61,0.00,,,0.00,127.00,VWS V14.01,2013-02-16 18:17:00,
2013-02-16 13:18:00,29.1,17.3,29.69,West,275,0.0,0.0,61,0.00,,,0.00,116.00,VWS V14.01,2013-02-16 18:18:00,
2013-02-16 13:19:00,29.1,17.3,29.69,West,261,0.0,0.0,61,0.00,,,0.00,116.00,VWS V14.01,2013-02-16 18:19:00,
2013-02-16 13:20:00,29.3,17.9,29.69,WSW,248,0.0,0.0,62,0.00,,,0.00,130.00,VWS V14.01,2013-02-16 18:20:00,
2013-02-16 13:21:00,29.0,17.2,29.69,WNW,282,0.0,0.0,61,0.00,,,0.00,134.00,VWS V14.01,2013-02-16 18:21:00,
2013-02-16 13:22:00,29.0,17.6,29.69,NW,308,0.0,0.0,62,0.00,,,0.00,146.00,VWS V14.01,2013-02-16 18:22:00,
2013-02-16 13:23:00,29.0,17.2,29.69,West,271,0.0,0.0,61,0.00,,,0.00,151.00,VWS V14.01,2013-02-16 18:23:00,
2013-02-16 13:24:00,29.0,17.2,29.69,WNW,302,0.0,0.0,61,0.00,,,0.00,137.00,VWS V14.01,2013-02-16 18:24:00,
2013-02-16 13:25:00,29.0,17.2,29.69,WNW,298,0.0,0.0,61,0.00,,,0.00,125.00,VWS V14.01,2013-02-16 18:25:00,
2013-02-16 13:26:00,29.0,17.2,29.69,WNW,282,0.0,0.0,61,0.00,,,0.00,134.00,VWS V14.01,2013-02-16 18:26:00,
2013-02-16 13:27:00,28.8,16.7,29.69,WNW,285,0.0,0.0,60,0.00,,,0.00,111.00,VWS V14.01,2013-02-16 18:27:00,
2013-02-16 13:28:00,28.8,16.7,29.69,West,261,0.0,0.0,60,0.00,,,0.00,106.00,VWS V14.01,2013-02-16 18:28:00,
2013-02-16 13:29:00,28.8,16.7,29.69,WSW,253,0.0,0.0,60,0.00,,,0.00,102.00,VWS V14.01,2013-02-16 18:29:00,
2013-02-16 13:30:00,28.8,16.7,29.68,WNW,292,0.0,0.0,60,0.00,,,0.00,104.00,VWS V14.01,2013-02-16 18:30:00,
2013-02-16 13:31:00,29.0,17.2,29.69,WNW,299,0.0,0.0,61,0.00,,,0.00,114.00,VWS V14.01,2013-02-16 18:31:00,
2013-02-16 13:32:00,28.8,17.1,29.68,West,278,0.0,0.0,61,0.00,,,0.00,114.00,VWS V14.01,2013-02-16 18:32:00,
2013-02-16 13:33:00,28.8,17.1,29.68,NW,312,0.0,0.0,61,0.00,,,0.00,111.00,VWS V14.01,2013-02-16 18:33:00,
2013-02-16 13:34:00,29.0,17.2,29.68,NW,304,0.0,0.0,61,0.00,,,0.00,102.00,VWS V14.01,2013-02-16 18:34:00,
2013-02-16 13:35:00,29.0,17.2,29.68,West,270,0.0,0.0,61,0.00,,,0.00,100.00,VWS V14.01,2013-02-16 18:35:00,
2013-02-16 13:36:00,29.0,17.2,29.68,West,275,0.0,0.0,61,0.00,,,0.00,104.00,VWS V14.01,2013-02-16 18:36:00,
2013-02-16 13:37:00,28.8,17.1,29.68,West,278,0.0,0.0,61,0.00,,,0.00,114.00,VWS V14.01,2013-02-16 18:37:00,
2013-02-16 13:38:00,29.1,17.3,29.68,West,267,0.0,0.0,61,0.00,,,0.00,132.00,VWS V14.01,2013-02-16 18:38:00,
2013-02-16 13:39:00,29.1,17.3,29.68,WNW,294,0.0,0.0,61,0.00,,,0.00,146.00,VWS V14.01,2013-02-16 18:39:00,
2013-02-16 13:40:00,29.1,17.3,29.68,West,270,0.0,0.0,61,0.00,,,0.00,160.00,VWS V14.01,2013-02-16 18:40:00,
2013-02-16 13:41:00,29.1,17.3,29.68,West,263,0.0,0.0,61,0.00,,,0.00,169.00,VWS V14.01,2013-02-16 18:41:00,
2013-02-16 13:42:00,29.1,17.3,29.68,WNW,285,0.0,0.0,61,0.00,,,0.00,111.00,VWS V14.01,2013-02-16 18:42:00,
2013-02-16 13:43:00,29.3,17.5,29.68,SW,229,0.0,0.0,61,0.00,,,0.00,179.00,VWS V14.01,2013-02-16 18:43:00,
2013-02-16 13:44:00,29.3,17.5,29.68,WSW,258,0.0,0.0,61,0.00,,,0.00,192.00,VWS V14.01,2013-02-16 18:44:00,
2013-02-16 13:45:00,29.3,17.5,29.69,WSW,257,0.0,0.0,61,0.00,,,0.00,199.00,VWS V14.01,2013-02-16 18:45:00,
2013-02-16 13:46:00,29.3,17.5,29.69,WSW,244,0.0,0.0,61,0.00,,,0.00,206.00,VWS V14.01,2013-02-16 18:46:00,
2013-02-16 13:47:00,29.1,17.3,29.68,West,268,0.0,0.0,61,0.00,,,0.00,176.00,VWS V14.01,2013-02-16 18:47:00,
2013-02-16 13:48:00,29.4,17.6,29.69,West,281,0.0,0.0,61,0.00,,,0.00,197.00,VWS V14.01,2013-02-16 18:48:00,
2013-02-16 13:49:00,29.4,17.6,29.69,WSW,240,0.0,0.0,61,0.00,,,0.00,174.00,VWS V14.01,2013-02-16 18:49:00,
2013-02-16 13:50:00,29.4,17.6,29.69,WSW,248,0.0,0.0,61,0.00,,,0.00,171.00,VWS V14.01,2013-02-16 18:50:00,
2013-02-16 13:51:00,29.4,17.6,29.69,West,272,0.0,0.0,61,0.00,,,0.00,171.00,VWS V14.01,2013-02-16 18:51:00,
2013-02-16 13:52:00,29.4,18.0,29.69,West,260,0.0,0.0,62,0.00,,,0.00,167.00,VWS V14.01,2013-02-16 18:52:00,
2013-02-16 13:53:00,29.4,17.6,29.69,West,281,0.0,0.0,61,0.00,,,0.00,197.00,VWS V14.01,2013-02-16 18:53:00,
2013-02-16 13:54:00,29.3,17.9,29.69,WNW,296,0.0,0.0,62,0.00,,,0.00,169.00,VWS V14.01,2013-02-16 18:54:00,
2013-02-16 13:55:00,29.3,17.9,29.69,West,268,0.0,0.0,62,0.00,,,0.00,169.00,VWS V14.01,2013-02-16 18:55:00,
2013-02-16 13:56:00,29.3,17.9,29.69,WSW,251,0.0,0.0,62,0.00,,,0.00,165.00,VWS V14.01,2013-02-16 18:56:00,
2013-02-16 13:57:00,29.3,17.9,29.69,SW,234,0.0,0.0,62,0.00,,,0.00,165.00,VWS V14.01,2013-02-16 18:57:00,
2013-02-16 13:58:00,29.4,18.0,29.69,West,272,0.0,0.0,62,0.00,,,0.00,169.00,VWS V14.01,2013-02-16 18:58:00,
2013-02-16 13:59:00,29.3,17.9,29.68,West,264,0.0,0.0,62,0.00,,,0.00,160.00,VWS V14.01,2013-02-16 18:59:00,
2013-02-16 14:00:00,29.3,17.9,29.68,WNW,282,0.0,0.0,62,0.00,,,0.00,162.00,VWS V14.01,2013-02-16 19:00:00,
2013-02-16 14:01:00,29.3,17.5,29.68,West,271,0.0,0.0,61,0.00,,,0.00,169.00,VWS V14.01,2013-02-16 19:01:00,
2013-02-16 14:02:00,29.3,17.5,29.68,West,277,0.0,0.0,61,0.00,,,0.00,176.00,VWS V14.01,2013-02-16 19:02:00,
2013-02-16 14:03:00,29.3,17.5,29.68,West,278,0.0,0.0,61,0.00,,,0.00,174.00,VWS V14.01,2013-02-16 19:03:00,
2013-02-16 14:04:00,29.3,17.9,29.69,WNW,289,0.0,0.0,62,0.00,,,0.00,162.00,VWS V14.01,2013-02-16 19:04:00,
2013-02-16 14:05:00,29.3,17.5,29.68,WSW,254,0.0,0.0,61,0.00,,,0.00,165.00,VWS V14.01,2013-02-16 19:05:00,
2013-02-16 14:06:00,29.3,17.5,29.68,WNW,294,0.0,0.0,61,0.00,,,0.00,165.00,VWS V14.01,2013-02-16 19:06:00,
2013-02-16 14:07:00,29.3,17.5,29.68,WSW,243,0.0,0.0,61,0.00,,,0.00,169.00,VWS V14.01,2013-02-16 19:07:00,
2013-02-16 14:08:00,29.3,17.5,29.68,WNW,284,0.0,0.0,61,0.00,,,0.00,157.00,VWS V14.01,2013-02-16 19:08:00,
2013-02-16 14:09:00,29.1,17.3,29.68,West,277,0.0,0.0,61,0.00,,,0.00,167.00,VWS V14.01,2013-02-16 19:09:00,
2013-02-16 14:10:00,29.3,17.1,29.68,SW,234,0.0,0.0,60,0.00,,,0.00,130.00,VWS V14.01,2013-02-16 19:10:00,
2013-02-16 14:11:00,29.3,17.1,29.68,WNW,285,0.0,0.0,60,0.00,,,0.00,121.00,VWS V14.01,2013-02-16 19:11:00,
2013-02-16 14:12:00,29.3,16.8,29.68,West,265,0.0,0.0,59,0.00,,,0.00,116.00,VWS V14.01,2013-02-16 19:12:00,
2013-02-16 14:13:00,29.3,16.4,29.68,West,275,0.0,0.0,58,0.00,,,0.00,114.00,VWS V14.01,2013-02-16 19:13:00,
2013-02-16 14:14:00,29.3,17.5,29.68,WSW,244,0.0,0.0,61,0.00,,,0.00,143.00,VWS V14.01,2013-02-16 19:14:00,
2013-02-16 14:15:00,29.3,16.4,29.69,SSW,205,0.0,0.0,58,0.00,,,0.00,111.00,VWS V14.01,2013-02-16 19:15:00,
2013-02-16 14:16:00,29.3,16.4,29.69,WSW,239,0.0,0.0,58,0.00,,,0.00,111.00,VWS V14.01,2013-02-16 19:16:00,
2013-02-16 14:17:00,29.1,16.6,29.69,West,264,0.0,0.0,59,0.00,,,0.00,113.00,VWS V14.01,2013-02-16 19:17:00,
2013-02-16 14:18:00,29.1,17.0,29.69,West,260,0.0,0.0,60,0.00,,,0.00,116.00,VWS V14.01,2013-02-16 19:18:00,
2013-02-16 14:19:00,29.1,17.0,29.69,WSW,256,0.0,0.0,60,0.00,,,0.00,116.00,VWS V14.01,2013-02-16 19:19:00,
2013-02-16 14:20:00,29.3,16.4,29.69,SSW,205,0.0,0.0,58,0.00,,,0.00,111.00,VWS V14.01,2013-02-16 19:20:00,
2013-02-16 14:21:00,29.1,17.0,29.69,SW,233,0.0,0.0,60,0.00,,,0.00,120.00,VWS V14.01,2013-02-16 19:21:00,
2013-02-16 14:22:00,29.1,17.0,29.69,WSW,253,0.0,0.0,60,0.00,,,0.00,127.00,VWS V14.01,2013-02-16 19:22:00,
2013-02-16 14:23:00,29.1,17.3,29.69,West,267,0.0,0.0,61,0.00,,,0.00,130.00,VWS V14.01,2013-02-16 19:23:00,
2013-02-16 14:24:00,29.1,17.3,29.69,West,281,0.0,0.0,61,0.00,,,0.00,137.00,VWS V14.01,2013-02-16 19:24:00,
2013-02-16 14:25:00,29.1,17.0,29.69,West,260,0.0,0.0,60,0.00,,,0.00,118.00,VWS V14.01,2013-02-16 19:25:00,
2013-02-16 14:26:00,29.1,17.3,29.69,West,267,0.0,0.0,61,0.00,,,0.00,151.00,VWS V14.01,2013-02-16 19:26:00,
2013-02-16 14:27:00,29.0,17.2,29.69,West,281,0.0,0.0,61,0.00,,,0.00,157.00,VWS V14.01,2013-02-16 19:27:00,
2013-02-16 14:28:00,29.0,16.9,29.69,WSW,258,0.0,0.0,60,0.00,,,0.00,160.00,VWS V14.01,2013-02-16 19:28:00,
2013-02-16 14:29:00,29.0,16.5,29.69,West,265,0.0,0.0,59,0.00,,,0.00,183.00,VWS V14.01,2013-02-16 19:29:00,
2013-02-16 14:30:00,29.0,16.5,29.68,SW,220,0.0,0.0,59,0.00,,,0.00,197.00,VWS V14.01,2013-02-16 19:30:00,
2013-02-16 14:31:00,29.1,17.3,29.69,West,267,0.0,0.0,61,0.00,,,0.00,151.00,VWS V14.01,2013-02-16 19:31:00,
2013-02-16 14:32:00,28.8,16.3,29.68,West,274,0.0,0.0,59,0.00,,,0.00,179.00,VWS V14.01,2013-02-16 19:32:00,
2013-02-16 14:33:00,28.8,16.7,29.68,West,281,0.0,0.0,60,0.00,,,0.00,192.00,VWS V14.01,2013-02-16 19:33:00,
2013-02-16 14:34:00,28.8,16.7,29.68,West,260,0.0,0.0,60,0.00,,,0.00,213.00,VWS V14.01,2013-02-16 19:34:00,
2013-02-16 14:35:00,28.8,16.3,29.68,South,189,0.0,0.0,59,0.00,,,0.00,229.00,VWS V14.01,2013-02-16 19:35:00,
2013-02-16 14:36:00,28.8,16.3,29.68,WSW,256,0.0,0.0,59,0.00,,,0.00,234.00,VWS V14.01,2013-02-16 19:36:00,
2013-02-16 14:37:00,28.8,15.9,29.68,WNW,288,0.0,0.0,58,0.00,,,0.00,222.00,VWS V14.01,2013-02-16 19:37:00,
2013-02-16 14:38:00,28.8,16.3,29.68,West,274,0.0,0.0,59,0.00,,,0.00,179.00,VWS V14.01,2013-02-16 19:38:00,
2013-02-16 14:39:00,28.8,16.3,29.68,SW,217,0.0,0.0,59,0.00,,,0.00,171.00,VWS V14.01,2013-02-16 19:39:00,
2013-02-16 14:40:00,28.8,16.3,29.68,WSW,253,0.0,0.0,59,0.00,,,0.00,167.00,VWS V14.01,2013-02-16 19:40:00,
2013-02-16 14:41:00,28.8,16.3,29.68,West,261,0.0,0.0,59,0.00,,,0.00,171.00,VWS V14.01,2013-02-16 19:41:00,
2013-02-16 14:42:00,28.8,16.3,29.68,SW,219,0.0,0.0,59,0.00,,,0.00,178.00,VWS V14.01,2013-02-16 19:42:00,
2013-02-16 14:43:00,28.8,15.9,29.68,West,268,0.0,0.0,58,0.00,,,0.00,183.00,VWS V14.01,2013-02-16 19:43:00,
2013-02-16 14:44:00,28.8,16.3,29.68,West,261,0.0,0.0,59,0.00,,,0.00,194.00,VWS V14.01,2013-02-16 19:44:00,
2013-02-16 14:45:00,29.0,16.1,29.68,WSW,240,0.0,0.0,58,0.00,,,0.00,195.00,VWS V14.01,2013-02-16 19:45:00,
2013-02-16 14:46:00,29.0,16.1,29.68,WSW,253,0.0,0.0,58,0.00,,,0.00,204.00,VWS V14.01,2013-02-16 19:46:00,
2013-02-16 14:47:00,29.0,16.1,29.68,West,263,0.0,0.0,58,0.00,,,0.00,216.00,VWS V14.01,2013-02-16 19:47:00,
2013-02-16 14:48:00,29.0,16.1,29.68,West,261,0.0,0.0,58,0.00,,,0.00,227.00,VWS V14.01,2013-02-16 19:48:00,
2013-02-16 14:49:00,28.8,16.3,29.68,West,261,0.0,0.0,59,0.00,,,0.00,194.00,VWS V14.01,2013-02-16 19:49:00,
2013-02-16 14:50:00,28.8,15.5,29.68,WNW,282,0.0,0.0,57,0.00,,,0.00,232.00,VWS V14.01,2013-02-16 19:50:00,
2013-02-16 14:51:00,28.8,15.5,29.68,West,277,0.0,0.0,57,0.00,,,0.00,250.00,VWS V14.01,2013-02-16 19:51:00,
2013-02-16 14:52:00,28.8,15.9,29.68,SW,220,0.0,0.0,58,0.00,,,0.00,259.00,VWS V14.01,2013-02-16 19:52:00,
2013-02-16 14:53:00,28.8,15.5,29.68,WNW,295,0.0,0.0,57,0.00,,,0.00,271.00,VWS V14.01,2013-02-16 19:53:00,
2013-02-16 14:54:00,29.0,15.7,29.68,West,280,0.0,0.0,57,0.00,,,0.00,236.00,VWS V14.01,2013-02-16 19:54:00,
2013-02-16 14:55:00,28.8,15.5,29.68,WSW,247,0.0,0.0,57,0.00,,,0.00,357.00,VWS V14.01,2013-02-16 19:55:00,
2013-02-16 14:56:00,28.8,15.1,29.68,West,265,0.0,0.0,56,0.00,,,0.00,357.00,VWS V14.01,2013-02-16 19:56:00,
2013-02-16 14:57:00,28.8,14.7,29.68,WNW,284,0.0,0.0,55,0.00,,,0.00,357.00,VWS V14.01,2013-02-16 19:57:00,
2013-02-16 14:58:00,28.8,14.7,29.68,SW,233,0.0,0.0,55,0.00,,,0.00,287.00,VWS V14.01,2013-02-16 19:58:00,
2013-02-16 14:59:00,28.8,14.7,29.68,SW,219,0.0,0.0,55,0.00,,,0.00,352.00,VWS V14.01,2013-02-16 19:59:00,
2013-02-16 15:00:00,28.8,15.5,29.68,WSW,247,0.0,0.0,57,0.00,,,0.00,357.00,VWS V14.01,2013-02-16 20:00:00,
2013-02-16 15:01:00,29.0,14.9,29.67,WNW,282,0.0,0.0,55,0.00,,,0.00,366.00,VWS V14.01,2013-02-16 20:01:00,
2013-02-16 15:02:00,29.0,14.9,29.67,West,268,0.0,0.0,55,0.00,,,0.00,366.00,VWS V14.01,2013-02-16 20:02:00,
2013-02-16 15:03:00,29.1,15.0,29.67,West,281,0.0,0.0,55,0.00,,,0.00,264.00,VWS V14.01,2013-02-16 20:03:00,
2013-02-16 15:04:00,29.3,15.6,29.67,WNW,285,0.0,0.0,56,0.00,,,0.00,396.00,VWS V14.01,2013-02-16 20:04:00,
2013-02-16 15:05:00,29.4,15.2,29.67,West,267,0.0,0.0,55,0.00,,,0.00,350.00,VWS V14.01,2013-02-16 20:05:00,
2013-02-16 15:06:00,29.0,14.9,29.67,WNW,282,0.0,0.0,55,0.00,,,0.00,366.00,VWS V14.01,2013-02-16 20:06:00,
2013-02-16 15:07:00,29.4,15.2,29.67,NW,311,0.0,0.0,55,0.00,,,0.00,350.00,VWS V14.01,2013-02-16 20:07:00,
2013-02-16 15:08:00,29.4,14.8,29.67,West,275,0.0,0.0,54,0.00,,,0.00,350.00,VWS V14.01,2013-02-16 20:08:00,
2013-02-16 15:09:00,29.5,15.3,29.67,West,264,0.0,0.0,55,0.00,,,0.00,472.00,VWS V14.01,2013-02-16 20:09:00,
2013-02-16 15:10:00,29.5,15.3,29.67,West,264,0.0,0.0,55,0.00,,,0.00,440.00,VWS V14.01,2013-02-16 20:10:00,
2013-02-16 15:11:00,29.7,15.5,29.67,West,268,0.0,0.0,55,0.00,,,0.00,431.00,VWS V14.01,2013-02-16 20:11:00,
2013-02-16 15:12:00,29.4,15.2,29.67,NW,311,0.0,0.0,55,0.00,,,0.00,350.00,VWS V14.01,2013-02-16 20:12:00,
2013-02-16 15:13:00,29.7,15.1,29.67,WSW,244,0.0,0.0,54,0.00,,,0.00,431.00,VWS V14.01,2013-02-16 20:13:00,
2013-02-16 15:14:00,30.0,15.4,29.68,WSW,250,0.0,0.0,54,0.00,,,0.00,447.00,VWS V14.01,2013-02-16 20:14:00,
2013-02-16 15:15:00,30.0,15.4,29.68,West,268,0.0,0.0,54,0.00,,,0.00,447.00,VWS V14.01,2013-02-16 20:15:00,
2013-02-16 15:16:00,30.1,15.1,29.68,West,280,0.0,0.0,53,0.00,,,0.00,447.00,VWS V14.01,2013-02-16 20:16:00,
2013-02-16 15:17:00,29.7,14.7,29.67,SW,219,0.0,0.0,53,0.00,,,0.00,431.00,VWS V14.01,2013-02-16 20:17:00,
2013-02-16 15:18:00,30.1,14.6,29.68,West,264,0.0,0.0,52,0.00,,,0.00,197.00,VWS V14.01,2013-02-16 20:18:00,
2013-02-16 15:19:00,30.1,14.6,29.68,WNW,302,0.0,0.0,52,0.00,,,0.00,204.00,VWS V14.01,2013-02-16 20:19:00,
2013-02-16 15:20:00,30.1,14.6,29.68,WSW,240,0.0,0.0,52,0.00,,,0.00,208.00,VWS V14.01,2013-02-16 20:20:00,
2013-02-16 15:21:00,30.0,14.5,29.68,WSW,258,0.0,0.0,52,0.00,,,0.00,202.00,VWS V14.01,2013-02-16 20:21:00,
2013-02-16 15:22:00,30.1,15.1,29.68,WNW,289,0.0,0.0,53,0.00,,,0.00,211.00,VWS V14.01,2013-02-16 20:22:00,
2013-02-16 15:23:00,29.8,14.8,29.68,WSW,240,0.0,0.0,53,0.00,,,0.00,151.00,VWS V14.01,2013-02-16 20:23:00,
2013-02-16 15:24:00,29.8,14.8,29.68,WSW,244,0.0,0.0,53,0.00,,,0.00,158.00,VWS V14.01,2013-02-16 20:24:00,
2013-02-16 15:25:00,29.7,14.2,29.68,West,281,0.0,0.0,52,0.00,,,0.00,158.00,VWS V14.01,2013-02-16 20:25:00,
2013-02-16 15:26:00,29.5,13.6,29.68,West,264,0.0,0.0,51,0.00,,,0.00,192.00,VWS V14.01,2013-02-16 20:26:00,
2013-02-16 15:27:00,29.5,13.6,29.68,SSW,196,0.0,0.0,51,0.00,,,0.00,216.00,VWS V14.01,2013-02-16 20:27:00,
2013-02-16 15:28:00,29.8,14.8,29.68,WSW,240,0.0,0.0,53,0.00,,,0.00,151.00,VWS V14.01,2013-02-16 20:28:00,
2013-02-16 15:29:00,29.4,13.5,29.68,SW,222,0.0,0.0,51,0.00,,,0.00,243.00,VWS V14.01,2013-02-16 20:29:00,
2013-02-16 15:30:00,29.3,13.4,29.67,WNW,284,0.0,0.0,51,0.00,,,0.00,243.00,VWS V14.01,2013-02-16 20:30:00,
2013-02-16 15:31:00,29.1,12.8,29.67,West,263,0.0,0.0,50,0.00,,,0.00,213.00,VWS V14.01,2013-02-16 20:31:00,
2013-02-16 15:32:00,29.1,12.8,29.67,West,271,0.0,0.0,50,0.00,,,0.00,232.00,VWS V14.01,2013-02-16 20:32:00,
2013-02-16 15:33:00,29.0,12.7,29.67,WNW,288,0.0,0.0,50,0.00,,,0.00,232.00,VWS V14.01,2013-02-16 20:33:00,
2013-02-16 15:34:00,29.4,13.5,29.68,SW,222,0.0,0.0,51,0.00,,,0.00,243.00,VWS V14.01,2013-02-16 20:34:00,
2013-02-16 15:35:00,29.0,13.1,29.67,WNW,291,0.0,0.0,51,0.00,,,0.00,297.00,VWS V14.01,2013-02-16 20:35:00,
2013-02-16 15:36:00,29.0,13.1,29.67,West,272,0.0,0.0,51,0.00,,,0.00,405.00,VWS V14.01,2013-02-16 20:36:00,
2013-02-16 15:37:00,29.0,13.6,29.67,West,265,0.0,0.0,52,0.00,,,0.00,405.00,VWS V14.01,2013-02-16 20:37:00,
2013-02-16 15:38:00,29.0,13.6,29.67,WNW,301,0.0,0.0,52,0.00,,,0.00,303.00,VWS V14.01,2013-02-16 20:38:00,
2013-02-16 15:39:00,29.0,13.1,29.67,WSW,253,0.0,0.0,51,0.00,,,0.00,297.00,VWS V14.01,2013-02-16 20:39:00,
2013-02-16 15:40:00,29.3,14.3,29.67,WSW,248,0.0,0.0,53,0.00,,,0.00,303.00,VWS V14.01,2013-02-16 20:40:00,
2013-02-16 15:41:00,29.4,13.5,29.67,West,267,0.0,0.0,51,0.00,,,0.00,303.00,VWS V14.01,2013-02-16 20:41:00,
2013-02-16 15:42:00,29.4,13.5,29.67,WSW,247,0.0,0.0,51,0.00,,,0.00,303.00,VWS V14.01,2013-02-16 20:42:00,
2013-02-16 15:43:00,29.4,13.5,29.67,WSW,243,0.0,0.0,51,0.00,,,0.00,260.00,VWS V14.01,2013-02-16 20:43:00,
2013-02-16 15:44:00,29.1,14.1,29.67,WNW,284,0.0,0.0,53,0.00,,,0.00,303.00,VWS V14.01,2013-02-16 20:44:00,
2013-02-16 15:45:00,29.4,13.1,29.67,WSW,256,0.0,0.0,50,0.00,,,0.00,222.00,VWS V14.01,2013-02-16 20:45:00,
2013-02-16 15:46:00,29.3,13.0,29.67,West,271,0.0,0.0,50,0.00,,,0.00,209.00,VWS V14.01,2013-02-16 20:46:00,
2013-02-16 15:47:00,29.3,13.0,29.67,West,260,0.0,0.0,50,0.00,,,0.00,183.00,VWS V14.01,2013-02-16 20:47:00,
2013-02-16 15:48:00,29.3,13.4,29.67,West,278,0.0,0.0,51,0.00,,,0.00,185.00,VWS V14.01,2013-02-16 20:48:00,
2013-02-16 15:49:00,29.3,13.0,29.67,WSW,258,0.0,0.0,50,0.00,,,0.00,188.00,VWS V14.01,2013-02-16 20:49:00,
2013-02-16 15:50:00,29.4,13.1,29.67,WSW,256,0.0,0.0,50,0.00,,,0.00,222.00,VWS V14.01,2013-02-16 20:50:00,
2013-02-16 15:51:00,29.1,12.8,29.67,WNW,295,0.0,0.0,50,0.00,,,0.00,172.00,VWS V14.01,2013-02-16 20:51:00,
2013-02-16 15:52:00,29.1,13.2,29.67,WSW,240,0.0,0.0,51,0.00,,,0.00,179.00,VWS V14.01,2013-02-16 20:52:00,
2013-02-16 15:53:00,29.1,12.8,29.67,SW,230,0.0,0.0,50,0.00,,,0.00,171.00,VWS V14.01,2013-02-16 20:53:00,
2013-02-16 15:54:00,29.0,12.7,29.67,WSW,246,0.0,0.0,50,0.00,,,0.00,157.00,VWS V14.01,2013-02-16 20:54:00,
2013-02-16 15:55:00,29.3,13.4,29.67,West,280,0.0,0.0,51,0.00,,,0.00,174.00,VWS V14.01,2013-02-16 20:55:00,
2013-02-16 15:56:00,29.0,12.7,29.67,WNW,282,0.0,0.0,50,0.00,,,0.00,169.00,VWS V14.01,2013-02-16 20:56:00,
2013-02-16 15:57:00,29.0,12.7,29.67,West,270,0.0,0.0,50,0.00,,,0.00,169.00,VWS V14.01,2013-02-16 20:57:00,
2013-02-16 15:58:00,29.0,12.7,29.67,WNW,284,0.0,0.0,50,0.00,,,0.00,165.00,VWS V14.01,2013-02-16 20:58:00,
2013-02-16 15:59:00,29.0,12.7,29.67,WNW,287,0.0,0.0,50,0.00,,,0.00,194.00,VWS V14.01,2013-02-16 20:59:00,
2013-02-16 16:00:00,29.0,12.7,29.68,WNW,284,0.0,0.0,50,0.00,,,0.00,194.00,VWS V14.01,2013-02-16 21:00:00,
2013-02-16 16:01:00,29.0,12.7,29.67,WNW,282,0.0,0.0,50,0.00,,,0.00,169.00,VWS V14.01,2013-02-16 21:01:00,
2013-02-16 16:02:00,29.0,12.7,29.68,West,271,0.0,0.0,50,0.00,,,0.00,162.00,VWS V14.01,2013-02-16 21:02:00,
2013-02-16 16:03:00,29.0,12.7,29.68,WNW,288,0.0,0.0,50,0.00,,,0.00,134.00,VWS V14.01,2013-02-16 21:03:00,
2013-02-16 16:04:00,29.0,13.1,29.68,West,278,0.0,0.0,51,0.00,,,0.00,118.00,VWS V14.01,2013-02-16 21:04:00,
2013-02-16 16:05:00,29.0,13.1,29.68,NW,318,0.0,0.0,51,0.00,,,0.00,107.00,VWS V14.01,2013-02-16 21:05:00,
2013-02-16 16:06:00,29.0,13.6,29.68,WNW,294,0.0,0.0,52,0.00,,,0.00,100.00,VWS V14.01,2013-02-16 21:06:00,
2013-02-16 16:07:00,29.0,12.7,29.68,West,271,0.0,0.0,50,0.00,,,0.00,162.00,VWS V14.01,2013-02-16 21:07:00,
2013-02-16 16:08:00,29.1,13.7,29.68,WSW,254,0.0,0.0,52,0.00,,,0.00,93.00,VWS V14.01,2013-02-16 21:08:00,
2013-02-16 16:09:00,29.1,13.7,29.68,West,268,0.0,0.0,52,0.00,,,0.00,86.00,VWS V14.01,2013-02-16 21:09:00,
2013-02-16 16:10:00,29.0,12.7,29.68,WSW,258,0.0,0.0,50,0.00,,,0.00,83.00,VWS V14.01,2013-02-16 21:10:00,
2013-02-16 16:11:00,29.0,12.7,29.68,West,272,0.0,0.0,50,0.00,,,0.00,79.00,VWS V14.01,2013-02-16 21:11:00,
2013-02-16 16:12:00,29.0,12.7,29.68,WSW,258,0.0,0.0,50,0.00,,,0.00,77.00,VWS V14.01,2013-02-16 21:12:00,
2013-02-16 16:13:00,29.1,13.7,29.68,WSW,254,0.0,0.0,52,0.00,,,0.00,93.00,VWS V14.01,2013-02-16 21:13:00,
2013-02-16 16:14:00,28.7,11.5,29.68,WSW,241,0.0,0.0,48,0.00,,,0.00,70.00,VWS V14.01,2013-02-16 21:14:00,
2013-02-16 16:15:00,28.7,11.0,29.68,West,260,0.0,0.0,47,0.00,,,0.00,67.00,VWS V14.01,2013-02-16 21:15:00,
2013-02-16 16:16:00,28.5,11.3,29.68,WNW,285,0.0,0.0,48,0.00,,,0.00,67.00,VWS V14.01,2013-02-16 21:16:00,
2013-02-16 16:17:00,28.5,10.9,29.68,West,265,0.0,0.0,47,0.00,,,0.00,67.00,VWS V14.01,2013-02-16 21:17:00,
2013-02-16 16:18:00,28.4,10.8,29.68,WNW,288,0.0,0.0,47,0.00,,,0.00,63.00,VWS V14.01,2013-02-16 21:18:00,
2013-02-16 16:19:00,28.7,11.5,29.68,WSW,241,0.0,0.0,48,0.00,,,0.00,70.00,VWS V14.01,2013-02-16 21:19:00,
2013-02-16 16:20:00,28.2,11.0,29.68,WSW,247,0.0,0.0,48,0.00,,,0.00,56.00,VWS V14.01,2013-02-16 21:20:00,
2013-02-16 16:21:00,28.2,11.5,29.68,West,274,0.0,0.0,49,0.00,,,0.00,56.00,VWS V14.01,2013-02-16 21:21:00,
2013-02-16 16:22:00,28.2,11.5,29.68,West,268,0.0,0.0,49,0.00,,,0.00,58.00,VWS V14.01,2013-02-16 21:22:00,
2013-02-16 16:23:00,28.2,11.5,29.68,West,275,0.0,0.0,49,0.00,,,0.00,65.00,VWS V14.01,2013-02-16 21:23:00,
2013-02-16 16:24:00,28.4,11.2,29.68,West,264,0.0,0.0,48,0.00,,,0.00,58.00,VWS V14.01,2013-02-16 21:24:00,
2013-02-16 16:25:00,28.1,11.9,29.68,WSW,256,0.0,0.0,50,0.00,,,0.00,104.00,VWS V14.01,2013-02-16 21:25:00,
2013-02-16 16:26:00,28.1,11.9,29.68,West,263,0.0,0.0,50,0.00,,,0.00,81.00,VWS V14.01,2013-02-16 21:26:00,
2013-02-16 16:27:00,27.9,11.7,29.68,WNW,298,0.0,0.0,50,0.00,,,0.00,72.00,VWS V14.01,2013-02-16 21:27:00,
2013-02-16 16:28:00,27.9,12.1,29.68,West,278,0.0,0.0,51,0.00,,,0.00,69.00,VWS V14.01,2013-02-16 21:28:00,
2013-02-16 16:29:00,28.1,11.4,29.68,West,270,0.0,0.0,49,0.00,,,0.00,77.00,VWS V14.01,2013-02-16 21:29:00,
2013-02-16 16:30:00,27.9,12.1,29.68,West,281,0.0,0.0,51,0.00,,,0.00,63.00,VWS V14.01,2013-02-16 21:30:00,
2013-02-16 16:31:00,27.8,12.0,29.68,SSW,203,0.0,0.0,51,0.00,,,0.00,65.00,VWS V14.01,2013-02-16 21:31:00,
2013-02-16 16:32:00,27.8,12.5,29.68,West,277,0.0,0.0,52,0.00,,,0.00,65.00,VWS V14.01,2013-02-16 21:32:00,
2013-02-16 16:33:00,27.8,12.5,29.68,WSW,256,0.0,0.0,52,0.00,,,0.00,65.00,VWS V14.01,2013-02-16 21:33:00,
2013-02-16 16:34:00,27.8,12.5,29.68,West,274,0.0,0.0,52,0.00,,,0.00,65.00,VWS V14.01,2013-02-16 21:34:00,
2013-02-16 16:35:00,27.9,12.1,29.68,West,281,0.0,0.0,51,0.00,,,0.00,63.00,VWS V14.01,2013-02-16 21:35:00,
2013-02-16 16:36:00,27.8,12.9,29.68,West,280,0.0,0.0,53,0.00,,,0.00,65.00,VWS V14.01,2013-02-16 21:36:00,
2013-02-16 16:37:00,27.9,13.0,29.68,West,268,0.0,0.0,53,0.00,,,0.00,65.00,VWS V14.01,2013-02-16 21:37:00,
2013-02-16 16:38:00,27.9,13.0,29.68,WSW,248,0.0,0.0,53,0.00,,,0.00,65.00,VWS V14.01,2013-02-16 21:38:00,
2013-02-16 16:39:00,27.9,13.0,29.68,WSW,254,0.0,0.0,53,0.00,,,0.00,245.00,VWS V14.01,2013-02-16 21:39:00,
2013-02-16 16:40:00,27.8,12.9,29.68,SW,220,0.0,0.0,53,0.00,,,0.00,65.00,VWS V14.01,2013-02-16 21:40:00,
2013-02-16 16:41:00,28.1,13.2,29.68,WSW,248,0.0,0.0,53,0.00,,,0.00,225.00,VWS V14.01,2013-02-16 21:41:00,
2013-02-16 16:42:00,28.1,13.6,29.68,West,272,0.0,0.0,54,0.00,,,0.00,216.00,VWS V14.01,2013-02-16 21:42:00,
2013-02-16 16:43:00,28.2,13.3,29.68,South,189,0.0,0.0,53,0.00,,,0.00,215.00,VWS V14.01,2013-02-16 21:43:00,
2013-02-16 16:44:00,28.2,13.7,29.68,NW,312,0.0,0.0,54,0.00,,,0.00,208.00,VWS V14.01,2013-02-16 21:44:00,
2013-02-16 16:45:00,28.2,13.3,29.68,WSW,257,0.0,0.0,53,0.00,,,0.00,208.00,VWS V14.01,2013-02-16 21:45:00,
2013-02-16 16:46:00,28.1,13.2,29.68,WSW,248,0.0,0.0,53,0.00,,,0.00,225.00,VWS V14.01,2013-02-16 21:46:00,
2013-02-16 16:47:00,28.4,13.5,29.68,SSW,199,0.0,0.0,53,0.00,,,0.00,204.00,VWS V14.01,2013-02-16 21:47:00,
2013-02-16 16:48:00,28.4,13.5,29.68,West,260,0.0,0.0,53,0.00,,,0.00,162.00,VWS V14.01,2013-02-16 21:48:00,
2013-02-16 16:49:00,28.4,13.0,29.68,WSW,246,0.0,0.0,52,0.00,,,0.00,162.00,VWS V14.01,2013-02-16 21:49:00,
2013-02-16 16:50:00,28.4,13.0,29.68,West,270,0.0,0.0,52,0.00,,,0.00,195.00,VWS V14.01,2013-02-16 21:50:00,
2013-02-16 16:51:00,28.4,13.0,29.68,West,271,0.0,0.0,52,0.00,,,0.00,195.00,VWS V14.01,2013-02-16 21:51:00,
2013-02-16 16:52:00,28.4,13.5,29.68,SSW,199,0.0,0.0,53,0.00,,,0.00,204.00,VWS V14.01,2013-02-16 21:52:00,
2013-02-16 16:53:00,28.4,12.6,29.68,West,268,0.0,0.0,51,0.00,,,0.00,157.00,VWS V14.01,2013-02-16 21:53:00,
2013-02-16 16:54:00,28.4,12.6,29.68,West,265,0.0,0.0,51,0.00,,,0.00,174.00,VWS V14.01,2013-02-16 21:54:00,
2013-02-16 16:55:00,28.4,13.0,29.68,SW,233,0.0,0.0,52,0.00,,,0.00,169.00,VWS V14.01,2013-02-16 21:55:00,
2013-02-16 16:56:00,28.4,13.0,29.68,WSW,246,0.0,0.0,52,0.00,,,0.00,148.00,VWS V14.01,2013-02-16 21:56:00,
2013-02-16 16:57:00,28.4,13.0,29.68,WNW,282,0.0,0.0,52,0.00,,,0.00,125.00,VWS V14.01,2013-02-16 21:57:00,
2013-02-16 16:58:00,28.4,12.6,29.68,West,268,0.0,0.0,51,0.00,,,0.00,157.00,VWS V14.01,2013-02-16 21:58:00,
2013-02-16 16:59:00,28.2,13.3,29.68,SW,233,0.0,0.0,53,0.00,,,0.00,106.00,VWS V14.01,2013-02-16 21:59:00,
2013-02-16 17:00:00,28.2,13.3,29.68,WSW,257,0.0,0.0,53,0.00,,,0.00,93.00,VWS V14.01,2013-02-16 22:00:00,
2013-02-16 17:01:00,28.2,13.7,29.68,West,271,0.0,0.0,54,0.00,,,0.00,63.00,VWS V14.01,2013-02-16 22:01:00,
2013-02-16 17:02:00,28.2,13.7,29.68,WNW,295,0.0,0.0,54,0.00,,,0.00,56.00,VWS V14.01,2013-02-16 22:02:00,
2013-02-16 17:03:00,28.1,13.6,29.68,North,350,0.0,0.0,54,0.00,,,0.00,51.00,VWS V14.01,2013-02-16 22:03:00,
2013-02-16 17:04:00,28.2,13.3,29.68,SW,233,0.0,0.0,53,0.00,,,0.00,106.00,VWS V14.01,2013-02-16 22:04:00,
2013-02-16 17:05:00,28.1,13.6,29.68,West,265,0.0,0.0,54,0.00,,,0.00,44.00,VWS V14.01,2013-02-16 22:05:00,
2013-02-16 17:06:00,27.9,13.8,29.68,NW,323,0.0,0.0,55,0.00,,,0.00,32.00,VWS V14.01,2013-02-16 22:06:00,
2013-02-16 17:07:00,27.8,13.8,29.68,WNW,294,0.0,0.0,55,0.00,,,0.00,30.00,VWS V14.01,2013-02-16 22:07:00,
2013-02-16 17:08:00,27.8,14.2,29.68,West,268,0.0,0.0,56,0.00,,,0.00,25.00,VWS V14.01,2013-02-16 22:08:00,
2013-02-16 17:09:00,28.1,13.6,29.68,WNW,298,0.0,0.0,54,0.00,,,0.00,44.00,VWS V14.01,2013-02-16 22:09:00,
2013-02-16 17:10:00,27.6,14.4,29.68,West,277,0.0,0.0,57,0.00,,,0.00,23.00,VWS V14.01,2013-02-16 22:10:00,
2013-02-16 17:11:00,27.5,14.3,29.68,West,277,0.0,0.0,57,0.00,,,0.00,23.00,VWS V14.01,2013-02-16 22:11:00,
2013-02-16 17:12:00,27.5,14.3,29.68,West,263,0.0,0.0,57,0.00,,,0.00,21.00,VWS V14.01,2013-02-16 22:12:00,
2013-02-16 17:13:00,27.3,14.5,29.68,NNW,333,0.0,0.0,58,0.00,,,0.00,19.00,VWS V14.01,2013-02-16 22:13:00,
2013-02-16 17:14:00,27.3,14.5,29.68,NW,315,0.0,0.0,58,0.00,,,0.00,19.00,VWS V14.01,2013-02-16 22:14:00,
2013-02-16 17:15:00,27.6,14.4,29.68,West,277,0.0,0.0,57,0.00,,,0.00,23.00,VWS V14.01,2013-02-16 22:15:00,
2013-02-16 17:16:00,27.2,14.4,29.69,NW,320,0.0,0.0,58,0.00,,,0.00,18.00,VWS V14.01,2013-02-16 22:16:00,
2013-02-16 17:17:00,27.2,14.8,29.69,West,274,0.0,0.0,59,0.00,,,0.00,18.00,VWS V14.01,2013-02-16 22:17:00,
2013-02-16 17:18:00,27.0,14.6,29.69,West,274,0.0,0.0,59,0.00,,,0.00,18.00,VWS V14.01,2013-02-16 22:18:00,
2013-02-16 17:19:00,27.0,15.0,29.69,NW,325,0.0,0.0,60,0.00,,,0.00,14.00,VWS V14.01,2013-02-16 22:19:00,
2013-02-16 17:20:00,27.0,15.0,29.69,WNW,302,0.0,0.0,60,0.00,,,0.00,14.00,VWS V14.01,2013-02-16 22:20:00,
2013-02-16 17:21:00,27.2,14.4,29.69,NW,320,0.0,0.0,58,0.00,,,0.00,18.00,VWS V14.01,2013-02-16 22:21:00,
2013-02-16 17:22:00,26.9,15.3,29.69,WNW,295,0.0,0.0,61,0.00,,,0.00,14.00,VWS V14.01,2013-02-16 22:22:00,
2013-02-16 17:23:00,26.9,15.3,29.69,NW,311,0.0,0.0,61,0.00,,,0.00,14.00,VWS V14.01,2013-02-16 22:23:00,
2013-02-16 17:24:00,26.7,15.4,29.69,WNW,282,0.0,0.0,62,0.00,,,0.00,28.00,VWS V14.01,2013-02-16 22:24:00,
2013-02-16 17:25:00,26.7,15.4,29.69,NW,319,0.0,0.0,62,0.00,,,0.00,28.00,VWS V14.01,2013-02-16 22:25:00,
2013-02-16 17:26:00,27.0,15.4,29.69,West,272,0.0,0.0,61,0.00,,,0.00,14.00,VWS V14.01,2013-02-16 22:26:00,
2013-02-16 17:27:00,26.7,15.4,29.69,WNW,289,0.0,0.0,62,0.00,,,0.00,28.00,VWS V14.01,2013-02-16 22:27:00,
2013-02-16 17:28:00,26.6,15.7,29.69,West,275,0.0,0.0,63,0.00,,,0.00,35.00,VWS V14.01,2013-02-16 22:28:00,
2013-02-16 17:29:00,26.6,16.1,29.69,WSW,258,0.0,0.0,64,0.00,,,0.00,35.00,VWS V14.01,2013-02-16 22:29:00,
2013-02-16 17:30:00,26.6,16.1,29.69,North,0,0.0,0.0,64,0.00,,,0.00,35.00,VWS V14.01,2013-02-16 22:30:00,
2013-02-16 17:31:00,26.7,15.4,29.69,WNW,291,0.0,0.0,62,0.00,,,0.00,28.00,VWS V14.01,2013-02-16 22:31:00,
2013-02-16 17:35:00,26.3,16.5,29.69,WSW,248,0.0,0.0,66,0.00,,,0.00,26.00,VWS V14.01,2013-02-16 22:35:00,
2013-02-16 17:36:00,26.3,16.5,29.69,West,261,0.0,0.0,66,0.00,,,0.00,26.00,VWS V14.01,2013-02-16 22:36:00,
2013-02-16 17:37:00,26.3,16.9,29.69,WSW,250,0.0,0.0,67,0.00,,,0.00,26.00,VWS V14.01,2013-02-16 22:37:00,
2013-02-16 17:40:00,26.4,16.6,29.69,North,0,0.0,0.0,66,0.00,,,0.00,33.00,VWS V14.01,2013-02-16 22:40:00,
2013-02-16 17:47:00,26.1,17.0,29.69,West,277,0.0,0.0,68,0.00,,,0.00,9.00,VWS V14.01,2013-02-16 22:47:00,
2013-02-16 17:52:00,25.8,17.7,29.69,West,263,0.0,0.0,71,0.00,,,0.00,0.00,VWS V14.01,2013-02-16 22:52:00,
2013-02-16 17:58:00,25.6,18.2,29.69,WSW,258,0.0,0.0,73,0.00,,,0.00,0.00,VWS V14.01,2013-02-16 22:58:00,
2013-02-16 18:03:00,25.1,16.4,29.69,WNW,289,0.0,0.0,69,0.00,,,0.00,0.00,VWS V14.01,2013-02-16 23:03:00,
2013-02-16 18:08:00,24.8,14.7,29.70,WSW,243,0.0,0.0,65,0.00,,,0.00,0.00,VWS V14.01,2013-02-16 23:08:00,
2013-02-16 18:14:00,24.7,14.6,29.70,West,278,0.0,0.0,65,0.00,,,0.00,0.00,VWS V14.01,2013-02-16 23:14:00,
2013-02-16 18:19:00,24.7,14.6,29.70,South,176,0.0,0.0,65,0.00,,,0.00,0.00,VWS V14.01,2013-02-16 23:19:00,
2013-02-16 18:24:00,24.5,14.4,29.71,SW,234,0.0,0.0,65,0.00,,,0.00,0.00,VWS V14.01,2013-02-16 23:24:00,
2013-02-16 18:29:00,24.4,14.7,29.71,West,267,0.0,0.0,66,0.00,,,0.00,0.00,VWS V14.01,2013-02-16 23:29:00,
2013-02-16 18:34:00,24.4,14.3,29.71,West,272,0.0,0.0,65,0.00,,,0.00,0.00,VWS V14.01,2013-02-16 23:34:00,
2013-02-16 18:39:00,24.5,14.4,29.71,WSW,257,0.0,0.0,65,0.00,,,0.00,0.00,VWS V14.01,2013-02-16 23:39:00,
2013-02-16 18:45:00,24.4,14.3,29.71,West,264,0.0,0.0,65,0.00,,,0.00,0.00,VWS V14.01,2013-02-16 23:45:00,
2013-02-16 18:51:00,24.5,14.1,29.71,West,263,0.0,0.0,64,0.00,,,0.00,0.00,VWS V14.01,2013-02-16 23:51:00,
2013-02-16 18:56:00,24.5,14.1,29.71,West,263,0.0,0.0,64,0.00,,,0.00,0.00,VWS V14.01,2013-02-16 23:56:00,
2013-02-16 19:01:00,24.5,14.1,29.71,WNW,282,0.0,0.0,64,0.00,,,0.00,0.00,VWS V14.01,2013-02-17 00:01:00,
2013-02-16 19:06:00,24.5,14.1,29.71,West,264,0.0,0.0,64,0.00,,,0.00,0.00,VWS V14.01,2013-02-17 00:06:00,
2013-02-16 19:12:00,24.5,13.4,29.71,WNW,287,0.0,0.0,62,0.00,,,0.00,0.00,VWS V14.01,2013-02-17 00:12:00,
2013-02-16 19:17:00,24.5,13.4,29.71,West,272,0.0,0.0,62,0.00,,,0.00,0.00,VWS V14.01,2013-02-17 00:17:00,
2013-02-16 19:23:00,24.4,13.3,29.71,WSW,239,0.0,0.0,62,0.00,,,0.00,0.00,VWS V14.01,2013-02-17 00:23:00,
2013-02-16 19:29:00,24.4,12.9,29.71,WSW,253,0.0,0.0,61,0.00,,,0.00,0.00,VWS V14.01,2013-02-17 00:29:00,
2013-02-16 19:35:00,24.2,12.7,29.72,West,268,0.0,0.0,61,0.00,,,0.00,0.00,VWS V14.01,2013-02-17 00:35:00,
2013-02-16 19:41:00,24.2,12.7,29.72,WSW,247,0.0,0.0,61,0.00,,,0.00,0.00,VWS V14.01,2013-02-17 00:41:00,
2013-02-16 19:46:00,24.2,12.7,29.72,West,272,0.0,0.0,61,0.00,,,0.00,0.00,VWS V14.01,2013-02-17 00:46:00,
2013-02-16 19:51:00,24.2,12.7,29.72,West,265,0.0,0.0,61,0.00,,,0.00,0.00,VWS V14.01,2013-02-17 00:51:00,
2013-02-16 19:57:00,24.1,12.6,29.72,West,271,0.0,0.0,61,0.00,,,0.00,0.00,VWS V14.01,2013-02-17 00:57:00,
2013-02-16 20:02:00,24.1,12.6,29.72,West,278,0.0,0.0,61,0.00,,,0.00,0.00,VWS V14.01,2013-02-17 01:02:00,
2013-02-16 20:07:00,24.1,12.6,29.73,West,271,0.0,0.0,61,0.00,,,0.00,0.00,VWS V14.01,2013-02-17 01:07:00,
2013-02-16 20:12:00,23.9,12.4,29.73,West,272,0.0,0.0,61,0.00,,,0.00,0.00,VWS V14.01,2013-02-17 01:12:00,
2013-02-16 20:18:00,23.8,12.7,29.73,West,278,0.0,0.0,62,0.00,,,0.00,0.00,VWS V14.01,2013-02-17 01:18:00,
2013-02-16 20:23:00,23.8,12.3,29.72,West,275,0.0,0.0,61,0.00,,,0.00,0.00,VWS V14.01,2013-02-17 01:23:00,
2013-02-16 20:29:00,23.6,12.1,29.72,West,270,0.0,0.0,61,0.00,,,0.00,0.00,VWS V14.01,2013-02-17 01:29:00,
2013-02-16 20:35:00,23.6,12.1,29.72,West,261,0.0,0.0,61,0.00,,,0.00,0.00,VWS V14.01,2013-02-17 01:35:00,
2013-02-16 20:41:00,23.5,12.0,29.72,WSW,239,0.0,0.0,61,0.00,,,0.00,0.00,VWS V14.01,2013-02-17 01:41:00,
2013-02-16 20:46:00,23.3,11.5,29.72,West,278,0.0,0.0,60,0.00,,,0.00,0.00,VWS V14.01,2013-02-17 01:46:00,
2013-02-16 20:51:00,23.3,11.5,29.73,West,265,0.0,0.0,60,0.00,,,0.00,0.00,VWS V14.01,2013-02-17 01:51:00,
2013-02-16 20:57:00,23.2,11.8,29.73,WNW,288,0.0,0.0,61,0.00,,,0.00,0.00,VWS V14.01,2013-02-17 01:57:00,
2013-02-16 21:02:00,23.2,11.8,29.73,West,274,0.0,0.0,61,0.00,,,0.00,0.00,VWS V14.01,2013-02-17 02:02:00,
2013-02-16 21:08:00,23.0,11.6,29.73,WSW,253,0.0,0.0,61,0.00,,,0.00,0.00,VWS V14.01,2013-02-17 02:08:00,
2013-02-16 21:14:00,23.0,11.6,29.73,WNW,296,0.0,0.0,61,0.00,,,0.00,0.00,VWS V14.01,2013-02-17 02:14:00,
2013-02-16 21:19:00,22.9,11.5,29.73,North,354,0.0,0.0,61,0.00,,,0.00,0.00,VWS V14.01,2013-02-17 02:19:00,
2013-02-16 21:24:00,22.9,11.5,29.74,SW,229,0.0,0.0,61,0.00,,,0.00,0.00,VWS V14.01,2013-02-17 02:24:00,
2013-02-16 21:30:00,22.9,11.5,29.74,West,280,0.0,0.0,61,0.00,,,0.00,0.00,VWS V14.01,2013-02-17 02:30:00,
2013-02-16 21:36:00,22.9,11.8,29.74,SW,216,0.0,0.0,62,0.00,,,0.00,0.00,VWS V14.01,2013-02-17 02:36:00,
2013-02-16 21:41:00,22.9,11.8,29.74,WNW,288,0.0,0.0,62,0.00,,,0.00,0.00,VWS V14.01,2013-02-17 02:41:00,
2013-02-16 21:47:00,22.7,12.0,29.74,SSW,212,0.0,0.0,63,0.00,,,0.00,0.00,VWS V14.01,2013-02-17 02:47:00,
2013-02-16 21:52:00,22.7,12.0,29.74,WSW,250,0.0,0.0,63,0.00,,,0.00,0.00,VWS V14.01,2013-02-17 02:52:00,
2013-02-16 21:57:00,22.5,12.2,29.74,SW,236,0.0,0.0,64,0.00,,,0.00,0.00,VWS V14.01,2013-02-17 02:57:00,
2013-02-16 22:03:00,22.5,12.5,29.74,West,263,0.0,0.0,65,0.00,,,0.00,0.00,VWS V14.01,2013-02-17 03:03:00,
2013-02-16 22:09:00,22.5,12.5,29.74,WSW,257,0.0,0.0,65,0.00,,,0.00,0.00,VWS V14.01,2013-02-17 03:09:00,
2013-02-16 22:14:00,22.5,12.5,29.74,SW,234,0.0,0.0,65,0.00,,,0.00,0.00,VWS V14.01,2013-02-17 03:14:00,
2013-02-16 22:20:00,22.5,12.9,29.74,WSW,241,0.0,0.0,66,0.00,,,0.00,0.00,VWS V14.01,2013-02-17 03:20:00,
2013-02-16 22:25:00,22.4,13.1,29.74,WSW,243,0.0,0.0,67,0.00,,,0.00,0.00,VWS V14.01,2013-02-17 03:25:00,
2013-02-16 22:30:00,22.4,13.4,29.74,West,261,0.0,0.0,68,0.00,,,0.00,0.00,VWS V14.01,2013-02-17 03:30:00,
2013-02-16 22:35:00,22.4,13.1,29.74,West,265,0.0,0.0,67,0.00,,,0.00,0.00,VWS V14.01,2013-02-17 03:35:00,
2013-02-16 22:40:00,22.4,13.4,29.74,West,260,0.0,0.0,68,0.00,,,0.00,0.00,VWS V14.01,2013-02-17 03:40:00,
2013-02-16 22:46:00,22.4,13.4,29.74,WSW,243,0.0,0.0,68,0.00,,,0.00,0.00,VWS V14.01,2013-02-17 03:46:00,
2013-02-16 22:51:00,22.4,13.4,29.73,SSW,206,0.0,0.0,68,0.00,,,0.00,0.00,VWS V14.01,2013-02-17 03:51:00,
2013-02-16 22:56:00,22.4,13.4,29.73,WSW,256,0.0,0.0,68,0.00,,,0.00,0.00,VWS V14.01,2013-02-17 03:56:00,
2013-02-16 23:01:00,22.2,13.6,29.73,West,263,0.0,0.0,69,0.00,,,0.00,0.00,VWS V14.01,2013-02-17 04:01:00,
2013-02-16 23:06:00,22.2,13.6,29.73,West,263,0.0,0.0,69,0.00,,,0.00,0.00,VWS V14.01,2013-02-17 04:06:00,
2013-02-16 23:12:00,22.2,13.9,29.73,SE,143,0.0,0.0,70,0.00,,,0.00,0.00,VWS V14.01,2013-02-17 04:12:00,
2013-02-16 23:17:00,22.2,14.2,29.73,West,265,0.0,0.0,71,0.00,,,0.00,0.00,VWS V14.01,2013-02-17 04:17:00,
2013-02-16 23:23:00,22.2,14.6,29.74,WSW,247,0.0,0.0,72,0.00,,,0.00,0.00,VWS V14.01,2013-02-17 04:23:00,
2013-02-16 23:28:00,22.1,14.5,29.74,West,280,0.0,0.0,72,0.00,,,0.00,0.00,VWS V14.01,2013-02-17 04:28:00,
2013-02-16 23:34:00,21.9,14.3,29.74,South,182,0.0,0.0,72,0.00,,,0.00,0.00,VWS V14.01,2013-02-17 04:34:00,
2013-02-16 23:40:00,21.8,14.2,29.74,South,184,0.0,0.0,72,0.00,,,0.00,0.00,VWS V14.01,2013-02-17 04:40:00,
2013-02-16 23:45:00,21.8,14.5,29.74,WSW,256,0.0,0.0,73,0.00,,,0.00,0.00,VWS V14.01,2013-02-17 04:45:00,
2013-02-16 23:50:00,21.8,15.1,29.74,SW,230,0.0,0.0,75,0.00,,,0.00,0.00,VWS V14.01,2013-02-17 04:50:00,
2013-02-16 23:56:00,21.6,15.5,29.74,West,275,0.0,0.0,77,0.00,,,0.00,0.00,VWS V14.01,2013-02-17 04:56:00,